GFSSGP_prec_pwat_000.txt.gz
Precipitable_Water
1.13 1.33 1.31 1.20 0.80 0.76 0.62 0.60 0.76 0.72 0.73 0.82 0.86 0.78 0.71 0.73 0.78 0.65 1.26 1.29 1.32 1.71 1.64 1.44 1.22 1.52 1.61 1.63 1.65 1.60 1.51 1.37 1.32 1.45 1.38 1.36 1.41 1.44 1.56 1.69 1.75 1.72 1.74 1.85 1.85 1.87 1.88 1.97 2.02
1.08 1.18 1.18 0.95 0.69 0.51 0.51 0.58 0.56 0.62 0.74 0.82 0.82 0.78 0.60 0.51 0.79 0.85 1.06 1.09 1.42 1.42 1.44 1.24 1.23 1.44 1.57 1.64 1.64 1.60 1.59 1.53 1.48 1.43 1.41 1.41 1.41 1.41 1.41 1.47 1.53 1.64 1.73 1.71 1.82 1.87 1.88 1.90 2.02
0.98 1.06 0.88 0.76 0.63 0.56 0.55 0.60 0.47 0.59 0.61 0.67 0.58 0.64 0.57 0.46 0.66 0.69 0.73 0.81 0.93 1.02 1.03 1.23 1.28 1.42 1.57 1.62 1.62 1.65 1.59 1.55 1.50 1.44 1.39 1.35 1.33 1.28 1.27 1.30 1.38 1.45 1.59 1.67 1.68 1.73 1.83 1.90 1.90
0.73 0.90 0.79 0.58 0.48 0.58 0.59 0.52 0.47 0.45 0.50 0.50 0.55 0.45 0.52 0.59 0.57 0.58 0.61 0.61 0.70 0.98 1.06 1.19 1.18 1.35 1.47 1.65 1.66 1.65 1.57 1.40 1.31 1.25 1.22 1.17 1.20 1.26 1.24 1.20 1.20 1.26 1.33 1.40 1.53 1.61 1.67 1.79 1.87
0.70 0.71 0.50 0.37 0.45 0.50 0.52 0.48 0.44 0.40 0.41 0.37 0.41 0.34 0.35 0.49 0.54 0.51 0.52 0.55 0.66 0.91 1.11 1.13 1.21 1.24 1.53 1.56 1.56 1.42 1.27 1.09 0.98 0.96 1.00 1.00 0.89 0.79 0.86 0.98 0.98 1.08 1.17 1.23 1.28 1.38 1.52 1.60 1.74
0.50 0.57 0.35 0.33 0.38 0.38 0.40 0.39 0.37 0.34 0.36 0.37 0.32 0.32 0.34 0.49 0.46 0.44 0.50 0.56 0.77 0.84 1.24 1.17 1.11 1.13 1.18 1.16 1.11 1.00 0.92 0.83 0.69 0.72 0.81 0.90 0.86 0.71 0.76 0.68 0.63 0.80 0.90 1.02 1.18 1.26 1.29 1.38 1.49
0.42 0.40 0.32 0.40 0.40 0.36 0.31 0.34 0.26 0.28 0.32 0.31 0.35 0.28 0.35 0.40 0.41 0.44 0.51 0.59 0.67 0.73 0.85 1.23 1.08 1.03 0.81 0.72 0.71 0.67 0.58 0.54 0.55 0.50 0.57 0.64 0.76 0.65 0.60 0.68 0.56 0.59 0.64 0.71 0.84 1.06 1.23 1.29 1.34
0.47 0.41 0.34 0.41 0.38 0.32 0.33 0.28 0.24 0.29 0.32 0.39 0.37 0.27 0.28 0.38 0.39 0.44 0.49 0.48 0.52 0.52 0.64 0.72 0.85 0.86 0.73 0.60 0.53 0.48 0.54 0.48 0.43 0.46 0.43 0.49 0.48 0.57 0.53 0.63 0.54 0.59 0.61 0.57 0.68 0.69 0.79 1.09 1.27
0.40 0.26 0.25 0.31 0.32 0.38 0.38 0.29 0.25 0.33 0.32 0.37 0.37 0.39 0.42 0.39 0.39 0.42 0.42 0.44 0.41 0.46 0.48 0.53 0.56 0.56 0.52 0.49 0.47 0.43 0.41 0.44 0.44 0.46 0.45 0.47 0.49 0.51 0.51 0.51 0.57 0.58 0.65 0.57 0.68 0.72 0.81 0.90 1.09
0.27 0.19 0.29 0.44 0.43 0.38 0.34 0.29 0.23 0.23 0.28 0.32 0.34 0.38 0.40 0.35 0.39 0.39 0.37 0.36 0.35 0.34 0.38 0.42 0.43 0.45 0.43 0.41 0.40 0.41 0.42 0.45 0.47 0.48 0.46 0.48 0.49 0.47 0.47 0.45 0.51 0.51 0.56 0.55 0.57 0.69 0.80 0.83 0.88
0.28 0.24 0.41 0.40 0.40 0.37 0.28 0.24 0.25 0.21 0.22 0.30 0.30 0.34 0.33 0.32 0.33 0.33 0.35 0.35 0.33 0.34 0.33 0.35 0.36 0.37 0.38 0.38 0.41 0.43 0.44 0.45 0.46 0.46 0.44 0.46 0.43 0.41 0.39 0.40 0.40 0.46 0.48 0.48 0.54 0.57 0.68 0.67 0.74
0.19 0.25 0.29 0.33 0.31 0.27 0.24 0.27 0.22 0.23 0.30 0.37 0.38 0.35 0.33 0.29 0.29 0.29 0.31 0.33 0.32 0.32 0.31 0.32 0.34 0.35 0.38 0.42 0.43 0.45 0.43 0.43 0.43 0.43 0.43 0.43 0.38 0.37 0.37 0.36 0.37 0.39 0.41 0.42 0.43 0.45 0.50 0.58 0.76
0.17 0.25 0.26 0.27 0.23 0.25 0.28 0.24 0.23 0.25 0.37 0.41 0.38 0.34 0.31 0.30 0.30 0.31 0.32 0.33 0.33 0.31 0.31 0.31 0.32 0.34 0.37 0.41 0.43 0.45 0.44 0.43 0.44 0.44 0.43 0.42 0.36 0.36 0.37 0.36 0.36 0.38 0.39 0.39 0.37 0.37 0.39 0.44 0.54
0.27 0.25 0.24 0.24 0.22 0.24 0.23 0.24 0.25 0.26 0.36 0.35 0.33 0.29 0.30 0.29 0.29 0.30 0.29 0.29 0.30 0.30 0.29 0.31 0.32 0.34 0.37 0.40 0.43 0.45 0.45 0.44 0.45 0.45 0.44 0.42 0.38 0.38 0.36 0.36 0.37 0.38 0.38 0.37 0.36 0.36 0.38 0.41 0.49
0.23 0.17 0.20 0.20 0.21 0.20 0.23 0.20 0.19 0.29 0.33 0.27 0.27 0.29 0.30 0.30 0.31 0.29 0.30 0.29 0.30 0.30 0.30 0.31 0.32 0.34 0.36 0.39 0.43 0.44 0.43 0.43 0.43 0.43 0.43 0.41 0.39 0.39 0.39 0.39 0.38 0.39 0.37 0.35 0.36 0.35 0.35 0.38 0.43
0.16 0.18 0.14 0.20 0.22 0.23 0.22 0.11 0.24 0.32 0.29 0.26 0.27 0.30 0.30 0.30 0.31 0.33 0.33 0.32 0.32 0.31 0.30 0.32 0.34 0.35 0.38 0.40 0.41 0.42 0.44 0.44 0.44 0.42 0.41 0.38 0.39 0.39 0.38 0.38 0.38 0.39 0.37 0.37 0.36 0.35 0.35 0.35 0.35
0.16 0.11 0.15 0.22 0.27 0.26 0.23 0.14 0.24 0.31 0.31 0.29 0.28 0.29 0.31 0.31 0.32 0.33 0.34 0.34 0.34 0.34 0.33 0.35 0.38 0.38 0.40 0.42 0.43 0.44 0.46 0.46 0.45 0.42 0.40 0.35 0.38 0.38 0.38 0.39 0.39 0.39 0.36 0.36 0.36 0.35 0.37 0.35 0.36
0.15 0.17 0.18 0.18 0.27 0.28 0.23 0.18 0.28 0.33 0.31 0.29 0.29 0.30 0.31 0.32 0.32 0.34 0.33 0.35 0.36 0.38 0.39 0.40 0.42 0.43 0.44 0.47 0.47 0.47 0.47 0.45 0.44 0.41 0.39 0.36 0.37 0.37 0.38 0.39 0.39 0.39 0.38 0.37 0.36 0.37 0.41 0.41 0.38
0.21 0.20 0.19 0.22 0.28 0.26 0.22 0.21 0.23 0.28 0.30 0.28 0.28 0.27 0.29 0.30 0.36 0.36 0.35 0.34 0.35 0.39 0.41 0.42 0.43 0.45 0.46 0.47 0.46 0.46 0.43 0.42 0.41 0.40 0.40 0.38 0.38 0.38 0.38 0.39 0.39 0.39 0.38 0.37 0.37 0.35 0.31 0.33 0.41
0.20 0.18 0.17 0.19 0.27 0.26 0.23 0.21 0.22 0.24 0.26 0.26 0.26 0.27 0.29 0.31 0.34 0.37 0.37 0.36 0.36 0.38 0.40 0.40 0.42 0.46 0.47 0.48 0.49 0.48 0.44 0.41 0.41 0.41 0.40 0.39 0.39 0.38 0.38 0.37 0.37 0.37 0.35 0.34 0.32 0.32 0.30 0.30 0.36
0.20 0.17 0.17 0.19 0.26 0.26 0.21 0.18 0.19 0.22 0.24 0.28 0.29 0.30 0.31 0.31 0.34 0.38 0.39 0.38 0.37 0.36 0.38 0.41 0.43 0.44 0.47 0.51 0.51 0.47 0.45 0.43 0.40 0.38 0.37 0.39 0.38 0.37 0.36 0.36 0.35 0.33 0.31 0.28 0.30 0.30 0.31 0.28 0.32
0.16 0.24 0.21 0.20 0.20 0.15 0.25 0.14 0.18 0.21 0.22 0.24 0.27 0.31 0.33 0.35 0.39 0.41 0.39 0.37 0.36 0.37 0.40 0.42 0.44 0.45 0.47 0.49 0.47 0.45 0.42 0.39 0.39 0.38 0.38 0.37 0.37 0.35 0.36 0.34 0.32 0.31 0.30 0.29 0.29 0.31 0.31 0.32 0.29
0.20 0.27 0.25 0.25 0.21 0.21 0.21 0.19 0.17 0.23 0.21 0.22 0.26 0.29 0.33 0.36 0.38 0.39 0.41 0.39 0.38 0.37 0.40 0.42 0.45 0.45 0.47 0.47 0.47 0.45 0.43 0.42 0.42 0.39 0.37 0.35 0.35 0.36 0.33 0.31 0.29 0.29 0.31 0.31 0.32 0.31 0.32 0.32 0.31
0.31 0.27 0.26 0.25 0.23 0.15 0.18 0.18 0.15 0.19 0.22 0.26 0.27 0.28 0.32 0.34 0.36 0.40 0.42 0.42 0.39 0.38 0.40 0.43 0.46 0.47 0.47 0.47 0.46 0.44 0.43 0.42 0.40 0.38 0.35 0.34 0.35 0.32 0.29 0.28 0.28 0.30 0.31 0.31 0.33 0.33 0.35 0.36 0.38
0.28 0.23 0.16 0.17 0.19 0.13 0.20 0.19 0.17 0.23 0.25 0.25 0.26 0.28 0.32 0.34 0.35 0.37 0.38 0.39 0.40 0.38 0.41 0.44 0.47 0.49 0.48 0.47 0.45 0.44 0.43 0.42 0.39 0.36 0.35 0.34 0.31 0.27 0.26 0.28 0.30 0.31 0.33 0.32 0.33 0.35 0.35 0.36 0.39
0.22 0.21 0.15 0.11 0.13 0.16 0.27 0.19 0.20 0.27 0.28 0.28 0.28 0.30 0.33 0.33 0.34 0.36 0.37 0.40 0.42 0.41 0.45 0.47 0.50 0.50 0.49 0.47 0.45 0.44 0.43 0.41 0.38 0.36 0.35 0.32 0.27 0.26 0.28 0.29 0.33 0.32 0.31 0.33 0.34 0.35 0.35 0.40 0.46
0.25 0.21 0.25 0.20 0.20 0.17 0.16 0.20 0.24 0.25 0.24 0.28 0.28 0.30 0.31 0.29 0.33 0.36 0.38 0.41 0.45 0.46 0.47 0.50 0.52 0.51 0.48 0.48 0.46 0.45 0.42 0.39 0.36 0.35 0.34 0.29 0.27 0.28 0.30 0.32 0.31 0.33 0.35 0.34 0.34 0.35 0.36 0.43 0.55
0.29 0.35 0.23 0.24 0.14 0.12 0.13 0.14 0.15 0.20 0.26 0.29 0.29 0.27 0.27 0.33 0.34 0.35 0.37 0.41 0.46 0.49 0.51 0.53 0.53 0.50 0.50 0.49 0.47 0.45 0.41 0.38 0.35 0.34 0.29 0.27 0.27 0.29 0.31 0.30 0.31 0.32 0.34 0.34 0.33 0.35 0.39 0.47 0.54
0.28 0.26 0.29 0.26 0.20 0.13 0.11 0.13 0.21 0.21 0.24 0.26 0.28 0.25 0.28 0.33 0.35 0.37 0.38 0.42 0.47 0.50 0.51 0.52 0.50 0.49 0.48 0.49 0.47 0.44 0.40 0.36 0.35 0.29 0.26 0.26 0.29 0.29 0.29 0.29 0.30 0.32 0.33 0.33 0.33 0.35 0.40 0.47 0.56
0.38 0.31 0.31 0.22 0.18 0.20 0.17 0.14 0.25 0.27 0.28 0.28 0.28 0.31 0.32 0.34 0.37 0.39 0.40 0.42 0.46 0.49 0.51 0.50 0.48 0.48 0.49 0.49 0.47 0.43 0.38 0.36 0.31 0.26 0.26 0.27 0.27 0.29 0.28 0.29 0.30 0.31 0.33 0.34 0.33 0.35 0.39 0.50 0.56

GFSSGP_prec_pwat_003.txt.gz
Precipitable_Water
1.28 1.38 1.38 1.28 0.81 0.76 0.57 0.60 0.77 0.71 0.64 0.80 0.85 0.83 0.81 0.89 0.75 0.67 1.15 1.57 1.87 1.89 1.64 1.16 1.15 1.35 1.52 1.59 1.61 1.56 1.51 1.45 1.42 1.36 1.35 1.34 1.34 1.34 1.33 1.45 1.53 1.60 1.64 1.64 1.75 1.82 1.85 1.90 2.02
1.27 1.25 1.26 1.01 0.67 0.52 0.53 0.66 0.57 0.66 0.80 0.78 0.67 0.66 0.59 0.57 0.89 0.93 1.00 1.35 1.51 1.50 1.35 1.23 1.15 1.35 1.53 1.60 1.63 1.57 1.51 1.45 1.40 1.33 1.31 1.29 1.28 1.26 1.22 1.21 1.27 1.38 1.53 1.61 1.60 1.65 1.74 1.82 1.89
1.13 1.20 0.92 0.77 0.66 0.53 0.50 0.65 0.64 0.66 0.74 0.68 0.59 0.66 0.61 0.51 0.72 0.78 0.89 1.11 1.09 1.19 1.18 1.01 1.15 1.33 1.48 1.61 1.69 1.61 1.45 1.31 1.24 1.13 1.08 1.03 1.07 1.05 1.09 1.12 1.17 1.21 1.30 1.37 1.45 1.54 1.58 1.65 1.74
0.92 0.99 0.89 0.64 0.49 0.56 0.57 0.62 0.57 0.52 0.52 0.55 0.55 0.49 0.60 0.64 0.67 0.71 0.70 0.87 0.83 0.91 0.97 1.08 1.13 1.45 1.68 1.63 1.51 1.28 1.16 1.09 1.05 1.04 1.00 0.92 0.81 0.84 0.80 0.72 0.87 1.08 1.20 1.26 1.28 1.34 1.45 1.52 1.58
0.83 0.79 0.57 0.51 0.47 0.51 0.56 0.60 0.57 0.45 0.41 0.40 0.42 0.39 0.39 0.56 0.62 0.59 0.58 0.69 0.78 0.95 1.04 1.14 1.18 1.31 1.51 1.35 1.18 0.99 0.83 0.79 0.78 0.81 0.84 0.87 0.87 0.73 0.74 0.63 0.61 0.71 0.78 1.00 1.20 1.28 1.30 1.35 1.40
0.51 0.65 0.38 0.29 0.37 0.43 0.44 0.47 0.43 0.40 0.40 0.37 0.35 0.34 0.39 0.51 0.46 0.50 0.53 0.66 0.92 1.03 1.12 1.08 1.08 1.14 1.05 0.90 0.78 0.67 0.63 0.60 0.62 0.60 0.63 0.76 0.81 0.71 0.77 0.73 0.65 0.64 0.60 0.68 0.74 0.99 1.20 1.26 1.28
0.48 0.44 0.31 0.38 0.39 0.40 0.40 0.36 0.31 0.34 0.34 0.31 0.36 0.26 0.36 0.43 0.45 0.50 0.53 0.66 0.74 1.06 1.12 1.00 0.95 0.79 0.70 0.64 0.56 0.54 0.52 0.48 0.48 0.50 0.56 0.58 0.64 0.63 0.63 0.63 0.67 0.72 0.71 0.68 0.66 0.66 0.73 0.95 1.15
0.49 0.43 0.33 0.40 0.39 0.38 0.40 0.29 0.27 0.28 0.29 0.37 0.38 0.26 0.28 0.38 0.44 0.48 0.50 0.51 0.63 0.72 0.93 0.96 0.92 0.73 0.55 0.54 0.50 0.49 0.50 0.47 0.48 0.47 0.50 0.54 0.54 0.56 0.57 0.57 0.60 0.64 0.67 0.65 0.72 0.70 0.78 0.78 0.88
0.45 0.25 0.23 0.34 0.38 0.36 0.37 0.32 0.31 0.34 0.33 0.37 0.39 0.35 0.40 0.41 0.41 0.42 0.41 0.43 0.43 0.54 0.61 0.63 0.60 0.52 0.53 0.47 0.44 0.42 0.45 0.47 0.47 0.46 0.47 0.47 0.46 0.43 0.45 0.50 0.55 0.58 0.58 0.57 0.59 0.64 0.82 0.74 0.68
0.24 0.17 0.22 0.42 0.42 0.36 0.37 0.35 0.32 0.28 0.28 0.32 0.35 0.41 0.42 0.37 0.35 0.34 0.34 0.35 0.39 0.36 0.41 0.46 0.52 0.47 0.42 0.41 0.41 0.41 0.42 0.46 0.45 0.45 0.45 0.43 0.41 0.40 0.40 0.42 0.45 0.47 0.49 0.49 0.49 0.52 0.59 0.65 0.73
0.24 0.20 0.32 0.37 0.43 0.42 0.35 0.29 0.27 0.22 0.21 0.27 0.27 0.33 0.35 0.36 0.36 0.36 0.37 0.35 0.34 0.37 0.34 0.37 0.37 0.39 0.38 0.39 0.40 0.40 0.41 0.42 0.43 0.43 0.43 0.41 0.38 0.39 0.37 0.37 0.40 0.43 0.45 0.43 0.41 0.41 0.46 0.49 0.53
0.20 0.27 0.29 0.32 0.39 0.36 0.29 0.27 0.21 0.23 0.23 0.30 0.34 0.35 0.33 0.31 0.31 0.33 0.34 0.34 0.33 0.31 0.32 0.32 0.33 0.34 0.36 0.38 0.40 0.41 0.39 0.40 0.41 0.40 0.42 0.39 0.37 0.38 0.36 0.36 0.38 0.40 0.41 0.39 0.39 0.37 0.39 0.43 0.47
0.21 0.21 0.26 0.27 0.24 0.23 0.25 0.21 0.21 0.23 0.32 0.35 0.38 0.36 0.32 0.31 0.29 0.32 0.34 0.34 0.33 0.30 0.29 0.29 0.31 0.32 0.34 0.36 0.39 0.40 0.39 0.40 0.40 0.39 0.41 0.39 0.37 0.35 0.36 0.36 0.38 0.38 0.36 0.34 0.33 0.34 0.35 0.36 0.39
0.25 0.23 0.24 0.25 0.21 0.22 0.21 0.22 0.23 0.26 0.35 0.33 0.34 0.33 0.33 0.30 0.29 0.29 0.30 0.30 0.30 0.29 0.28 0.29 0.29 0.32 0.34 0.36 0.38 0.39 0.39 0.40 0.38 0.38 0.41 0.40 0.39 0.35 0.35 0.37 0.39 0.39 0.35 0.35 0.35 0.34 0.35 0.33 0.34
0.24 0.19 0.22 0.19 0.18 0.18 0.23 0.18 0.17 0.25 0.31 0.30 0.32 0.33 0.32 0.30 0.31 0.29 0.30 0.29 0.29 0.27 0.27 0.28 0.30 0.33 0.34 0.35 0.37 0.39 0.40 0.40 0.38 0.40 0.42 0.40 0.40 0.38 0.38 0.40 0.40 0.40 0.38 0.36 0.37 0.36 0.32 0.31 0.30
0.16 0.17 0.11 0.15 0.20 0.22 0.20 0.08 0.15 0.27 0.28 0.26 0.29 0.30 0.29 0.29 0.30 0.31 0.32 0.32 0.31 0.29 0.26 0.28 0.31 0.32 0.34 0.35 0.38 0.41 0.44 0.44 0.43 0.42 0.42 0.38 0.40 0.40 0.38 0.38 0.39 0.40 0.39 0.38 0.36 0.34 0.34 0.33 0.34
0.15 0.08 0.10 0.13 0.23 0.24 0.23 0.15 0.21 0.27 0.27 0.26 0.29 0.28 0.27 0.29 0.32 0.33 0.34 0.34 0.33 0.32 0.30 0.30 0.32 0.33 0.36 0.39 0.43 0.46 0.48 0.47 0.46 0.44 0.41 0.37 0.38 0.40 0.37 0.38 0.39 0.40 0.39 0.40 0.38 0.37 0.36 0.36 0.35
0.08 0.10 0.14 0.16 0.21 0.24 0.22 0.19 0.26 0.27 0.26 0.25 0.28 0.29 0.30 0.30 0.30 0.34 0.35 0.36 0.36 0.34 0.33 0.33 0.36 0.37 0.40 0.44 0.46 0.48 0.48 0.46 0.46 0.44 0.40 0.38 0.38 0.37 0.36 0.38 0.40 0.41 0.39 0.38 0.39 0.35 0.36 0.34 0.33
0.17 0.17 0.16 0.20 0.25 0.24 0.22 0.20 0.23 0.29 0.29 0.26 0.26 0.27 0.28 0.29 0.32 0.36 0.36 0.36 0.35 0.35 0.34 0.35 0.37 0.39 0.42 0.43 0.44 0.45 0.44 0.45 0.44 0.41 0.41 0.39 0.38 0.38 0.38 0.40 0.39 0.39 0.37 0.37 0.36 0.34 0.31 0.30 0.30
0.18 0.14 0.14 0.19 0.25 0.24 0.22 0.18 0.23 0.25 0.26 0.24 0.24 0.26 0.28 0.31 0.33 0.35 0.34 0.33 0.33 0.34 0.37 0.37 0.37 0.39 0.43 0.44 0.46 0.47 0.46 0.45 0.42 0.42 0.42 0.38 0.40 0.40 0.39 0.38 0.37 0.37 0.36 0.33 0.29 0.28 0.25 0.27 0.29
0.19 0.17 0.16 0.17 0.21 0.27 0.24 0.18 0.20 0.21 0.25 0.27 0.28 0.29 0.31 0.30 0.30 0.32 0.32 0.32 0.36 0.37 0.37 0.36 0.37 0.41 0.43 0.45 0.47 0.48 0.48 0.44 0.40 0.41 0.38 0.39 0.43 0.40 0.39 0.37 0.37 0.35 0.32 0.27 0.28 0.27 0.25 0.24 0.28
0.15 0.23 0.23 0.19 0.18 0.14 0.23 0.11 0.18 0.21 0.20 0.23 0.25 0.28 0.29 0.31 0.34 0.36 0.37 0.36 0.37 0.39 0.39 0.37 0.37 0.40 0.43 0.45 0.46 0.47 0.43 0.39 0.40 0.39 0.39 0.41 0.41 0.38 0.38 0.36 0.33 0.29 0.28 0.28 0.29 0.31 0.30 0.31 0.25
0.19 0.25 0.22 0.22 0.19 0.19 0.18 0.17 0.16 0.19 0.17 0.19 0.23 0.27 0.30 0.33 0.35 0.36 0.37 0.38 0.40 0.42 0.39 0.37 0.37 0.39 0.42 0.46 0.48 0.48 0.44 0.43 0.44 0.42 0.40 0.40 0.40 0.39 0.36 0.33 0.28 0.27 0.28 0.29 0.28 0.29 0.31 0.30 0.30
0.29 0.25 0.25 0.26 0.24 0.16 0.19 0.18 0.11 0.15 0.15 0.17 0.23 0.26 0.32 0.32 0.35 0.37 0.39 0.40 0.40 0.41 0.39 0.37 0.36 0.39 0.44 0.46 0.48 0.48 0.45 0.44 0.43 0.41 0.41 0.39 0.39 0.37 0.34 0.28 0.27 0.28 0.28 0.29 0.32 0.30 0.29 0.31 0.33
0.25 0.22 0.16 0.15 0.17 0.12 0.19 0.18 0.13 0.18 0.23 0.26 0.25 0.28 0.30 0.34 0.35 0.36 0.36 0.36 0.37 0.38 0.38 0.37 0.37 0.40 0.46 0.48 0.50 0.48 0.46 0.45 0.42 0.41 0.40 0.38 0.36 0.34 0.27 0.26 0.27 0.28 0.31 0.32 0.31 0.30 0.31 0.32 0.32
0.22 0.22 0.16 0.10 0.11 0.11 0.20 0.16 0.15 0.24 0.26 0.29 0.31 0.30 0.31 0.33 0.36 0.36 0.36 0.36 0.37 0.37 0.38 0.39 0.40 0.44 0.48 0.50 0.51 0.49 0.47 0.45 0.44 0.43 0.41 0.38 0.36 0.30 0.27 0.27 0.29 0.30 0.30 0.32 0.33 0.34 0.33 0.34 0.35
0.25 0.22 0.25 0.19 0.19 0.15 0.14 0.16 0.21 0.25 0.26 0.28 0.28 0.28 0.29 0.33 0.35 0.35 0.36 0.38 0.38 0.39 0.39 0.42 0.44 0.47 0.49 0.52 0.52 0.49 0.47 0.46 0.43 0.42 0.40 0.38 0.33 0.29 0.28 0.28 0.29 0.31 0.31 0.31 0.32 0.35 0.35 0.35 0.36
0.33 0.35 0.25 0.25 0.15 0.13 0.12 0.13 0.13 0.16 0.17 0.21 0.25 0.29 0.31 0.34 0.33 0.32 0.36 0.36 0.39 0.41 0.42 0.45 0.48 0.49 0.52 0.54 0.52 0.50 0.48 0.47 0.45 0.41 0.37 0.35 0.31 0.28 0.27 0.29 0.30 0.30 0.30 0.31 0.33 0.35 0.36 0.35 0.38
0.32 0.31 0.33 0.32 0.26 0.17 0.13 0.14 0.19 0.17 0.18 0.20 0.26 0.29 0.31 0.34 0.32 0.32 0.37 0.39 0.43 0.42 0.43 0.46 0.49 0.51 0.54 0.54 0.52 0.51 0.49 0.48 0.45 0.38 0.37 0.32 0.28 0.28 0.28 0.28 0.28 0.28 0.28 0.31 0.33 0.34 0.36 0.35 0.38
0.39 0.35 0.34 0.27 0.24 0.27 0.23 0.17 0.24 0.23 0.26 0.26 0.27 0.30 0.33 0.34 0.32 0.35 0.37 0.39 0.43 0.43 0.42 0.48 0.52 0.55 0.55 0.54 0.53 0.52 0.50 0.47 0.42 0.37 0.35 0.30 0.27 0.28 0.27 0.26 0.26 0.27 0.28 0.30 0.33 0.33 0.36 0.36 0.38

GFSSGP_prec_pwat_006.txt.gz
Precipitable_Water
1.34 1.42 1.42 1.32 0.81 0.79 0.61 0.65 0.81 0.72 0.66 0.84 0.85 0.81 0.78 0.84 0.67 0.51 1.31 1.69 1.76 1.69 1.47 1.31 1.25 1.35 1.51 1.58 1.56 1.52 1.46 1.41 1.36 1.31 1.28 1.27 1.25 1.24 1.22 1.24 1.33 1.43 1.53 1.56 1.57 1.65 1.73 1.82 1.89
1.30 1.29 1.32 1.03 0.69 0.52 0.49 0.63 0.57 0.66 0.72 0.71 0.71 0.71 0.68 0.65 0.81 0.81 1.06 1.64 1.57 1.43 1.34 1.27 1.23 1.40 1.55 1.60 1.57 1.52 1.43 1.31 1.21 1.14 1.15 1.14 1.12 1.12 1.14 1.18 1.21 1.26 1.33 1.40 1.45 1.52 1.59 1.68 1.74
1.19 1.25 0.94 0.78 0.64 0.49 0.50 0.66 0.71 0.68 0.70 0.59 0.53 0.63 0.62 0.57 0.68 0.68 1.09 1.19 1.21 1.15 1.14 1.18 1.16 1.32 1.59 1.66 1.49 1.31 1.20 1.10 1.06 1.00 0.95 0.94 0.86 0.79 0.72 0.84 1.02 1.17 1.23 1.26 1.29 1.35 1.45 1.54 1.62
1.00 1.04 0.95 0.66 0.53 0.56 0.59 0.66 0.66 0.64 0.61 0.58 0.54 0.43 0.56 0.68 0.69 0.71 1.07 1.04 0.97 0.94 1.01 1.07 1.21 1.59 1.64 1.32 1.16 1.08 1.05 1.00 0.96 0.97 0.96 0.86 0.83 0.77 0.67 0.63 0.68 0.72 0.90 1.11 1.23 1.28 1.34 1.39 1.46
0.94 0.87 0.62 0.55 0.51 0.54 0.59 0.65 0.68 0.56 0.51 0.46 0.47 0.37 0.44 0.57 0.72 0.79 0.92 0.94 0.82 0.86 0.98 1.14 1.28 1.56 1.33 1.10 0.89 0.85 0.81 0.71 0.65 0.71 0.80 0.86 0.73 0.78 0.76 0.68 0.68 0.64 0.68 0.72 0.83 1.12 1.24 1.31 1.32
0.58 0.73 0.47 0.43 0.46 0.50 0.47 0.52 0.50 0.50 0.44 0.40 0.36 0.35 0.40 0.54 0.57 0.67 0.83 0.87 0.88 0.85 1.03 1.05 1.25 1.20 0.96 0.75 0.64 0.61 0.55 0.56 0.58 0.63 0.69 0.74 0.70 0.71 0.69 0.69 0.72 0.71 0.71 0.67 0.64 0.71 0.84 1.07 1.24
0.43 0.46 0.36 0.36 0.36 0.36 0.44 0.51 0.39 0.35 0.36 0.34 0.39 0.29 0.38 0.44 0.50 0.61 0.65 0.84 0.92 1.03 1.01 0.94 1.00 0.88 0.69 0.58 0.64 0.52 0.49 0.50 0.52 0.60 0.62 0.62 0.65 0.63 0.64 0.63 0.67 0.65 0.63 0.69 0.69 0.73 0.72 0.71 0.93
0.49 0.44 0.32 0.34 0.33 0.35 0.47 0.43 0.35 0.31 0.31 0.42 0.41 0.24 0.25 0.39 0.48 0.55 0.59 0.74 0.89 0.99 0.96 0.83 0.73 0.64 0.58 0.50 0.51 0.50 0.50 0.49 0.49 0.52 0.53 0.52 0.51 0.51 0.54 0.56 0.60 0.62 0.59 0.63 0.62 0.72 0.86 0.74 0.72
0.47 0.26 0.24 0.30 0.35 0.37 0.45 0.35 0.32 0.35 0.31 0.34 0.36 0.32 0.37 0.44 0.49 0.45 0.46 0.55 0.61 0.81 0.85 0.74 0.62 0.56 0.44 0.41 0.42 0.44 0.45 0.45 0.44 0.43 0.46 0.43 0.40 0.42 0.43 0.49 0.54 0.56 0.54 0.54 0.54 0.57 0.65 0.56 0.57
0.23 0.16 0.18 0.38 0.42 0.38 0.39 0.34 0.33 0.32 0.31 0.30 0.32 0.37 0.42 0.42 0.42 0.35 0.34 0.35 0.46 0.49 0.53 0.53 0.48 0.42 0.39 0.40 0.40 0.40 0.41 0.41 0.40 0.39 0.38 0.37 0.36 0.38 0.40 0.42 0.44 0.46 0.47 0.47 0.47 0.50 0.50 0.48 0.49
0.21 0.14 0.22 0.34 0.38 0.39 0.37 0.34 0.36 0.30 0.23 0.27 0.25 0.32 0.37 0.38 0.35 0.33 0.34 0.33 0.33 0.42 0.47 0.49 0.51 0.47 0.42 0.39 0.39 0.39 0.40 0.41 0.40 0.40 0.38 0.35 0.37 0.38 0.38 0.39 0.40 0.41 0.42 0.38 0.37 0.38 0.43 0.46 0.48
0.18 0.23 0.26 0.27 0.37 0.36 0.33 0.37 0.28 0.26 0.21 0.28 0.31 0.35 0.36 0.33 0.33 0.32 0.32 0.34 0.35 0.34 0.36 0.42 0.46 0.49 0.42 0.38 0.37 0.39 0.39 0.40 0.39 0.40 0.38 0.35 0.35 0.36 0.36 0.37 0.38 0.36 0.36 0.34 0.34 0.33 0.34 0.35 0.41
0.21 0.22 0.26 0.27 0.30 0.30 0.31 0.25 0.22 0.21 0.26 0.30 0.32 0.33 0.32 0.32 0.34 0.35 0.36 0.36 0.36 0.32 0.32 0.34 0.36 0.35 0.35 0.34 0.36 0.37 0.38 0.38 0.39 0.40 0.39 0.39 0.38 0.35 0.37 0.38 0.39 0.37 0.35 0.35 0.34 0.32 0.30 0.28 0.28
0.24 0.23 0.22 0.23 0.23 0.23 0.20 0.20 0.23 0.22 0.29 0.28 0.30 0.29 0.31 0.32 0.32 0.34 0.36 0.32 0.32 0.32 0.30 0.30 0.30 0.32 0.34 0.33 0.35 0.35 0.37 0.36 0.38 0.40 0.41 0.43 0.40 0.35 0.36 0.37 0.39 0.38 0.36 0.36 0.34 0.31 0.32 0.31 0.31
0.26 0.19 0.22 0.22 0.23 0.20 0.21 0.17 0.16 0.24 0.28 0.26 0.28 0.30 0.31 0.32 0.34 0.31 0.33 0.32 0.32 0.30 0.30 0.28 0.29 0.31 0.32 0.33 0.36 0.36 0.36 0.37 0.39 0.42 0.44 0.44 0.41 0.37 0.36 0.38 0.40 0.40 0.38 0.37 0.35 0.35 0.33 0.33 0.33
0.19 0.19 0.12 0.15 0.18 0.19 0.19 0.08 0.13 0.24 0.25 0.23 0.26 0.29 0.30 0.32 0.32 0.32 0.33 0.33 0.32 0.31 0.29 0.29 0.31 0.31 0.32 0.33 0.35 0.36 0.38 0.41 0.44 0.46 0.45 0.42 0.42 0.38 0.37 0.39 0.39 0.40 0.40 0.40 0.36 0.35 0.32 0.31 0.31
0.16 0.09 0.10 0.11 0.18 0.19 0.19 0.11 0.17 0.26 0.28 0.25 0.25 0.27 0.30 0.31 0.33 0.34 0.34 0.35 0.34 0.33 0.31 0.30 0.31 0.31 0.32 0.33 0.35 0.38 0.41 0.45 0.47 0.47 0.45 0.42 0.40 0.40 0.38 0.40 0.40 0.43 0.41 0.39 0.39 0.36 0.34 0.31 0.30
0.08 0.09 0.10 0.09 0.15 0.22 0.20 0.17 0.21 0.28 0.30 0.26 0.25 0.26 0.29 0.31 0.31 0.34 0.35 0.37 0.37 0.35 0.34 0.34 0.33 0.33 0.33 0.36 0.38 0.41 0.45 0.47 0.48 0.47 0.45 0.41 0.38 0.39 0.38 0.38 0.40 0.42 0.40 0.38 0.39 0.34 0.35 0.30 0.29
0.11 0.11 0.11 0.15 0.21 0.21 0.19 0.18 0.19 0.25 0.29 0.26 0.26 0.26 0.28 0.28 0.32 0.36 0.36 0.38 0.37 0.36 0.35 0.35 0.34 0.34 0.36 0.37 0.38 0.40 0.42 0.44 0.46 0.47 0.45 0.40 0.39 0.39 0.38 0.38 0.39 0.42 0.39 0.37 0.37 0.32 0.28 0.24 0.27
0.13 0.11 0.11 0.14 0.18 0.21 0.20 0.17 0.20 0.25 0.25 0.25 0.24 0.25 0.26 0.29 0.32 0.34 0.38 0.38 0.37 0.35 0.35 0.35 0.36 0.37 0.39 0.40 0.41 0.43 0.44 0.45 0.46 0.46 0.43 0.41 0.40 0.40 0.39 0.40 0.39 0.41 0.38 0.36 0.32 0.29 0.26 0.26 0.28
0.15 0.14 0.14 0.14 0.18 0.22 0.20 0.14 0.17 0.20 0.24 0.25 0.26 0.27 0.30 0.30 0.31 0.33 0.36 0.38 0.38 0.35 0.35 0.37 0.38 0.40 0.41 0.41 0.42 0.44 0.46 0.47 0.47 0.44 0.41 0.41 0.42 0.42 0.41 0.41 0.41 0.39 0.38 0.32 0.29 0.29 0.28 0.24 0.29
0.12 0.19 0.21 0.20 0.18 0.12 0.20 0.07 0.13 0.17 0.16 0.19 0.23 0.26 0.27 0.30 0.33 0.35 0.36 0.36 0.35 0.39 0.42 0.41 0.41 0.41 0.42 0.41 0.41 0.42 0.43 0.44 0.45 0.42 0.42 0.42 0.42 0.42 0.41 0.41 0.39 0.38 0.33 0.28 0.28 0.29 0.29 0.30 0.24
0.17 0.24 0.23 0.23 0.20 0.18 0.17 0.15 0.14 0.18 0.15 0.15 0.18 0.21 0.24 0.30 0.33 0.34 0.35 0.38 0.41 0.43 0.43 0.43 0.43 0.42 0.40 0.40 0.40 0.42 0.45 0.47 0.47 0.44 0.43 0.42 0.42 0.43 0.42 0.40 0.37 0.34 0.30 0.29 0.29 0.29 0.28 0.28 0.25
0.28 0.26 0.25 0.25 0.22 0.14 0.16 0.17 0.10 0.14 0.15 0.17 0.18 0.20 0.22 0.25 0.33 0.35 0.38 0.41 0.40 0.42 0.43 0.43 0.42 0.40 0.39 0.38 0.41 0.45 0.47 0.49 0.47 0.43 0.43 0.43 0.42 0.42 0.41 0.39 0.36 0.30 0.30 0.29 0.30 0.29 0.28 0.28 0.29
0.26 0.22 0.16 0.14 0.15 0.10 0.17 0.18 0.13 0.16 0.17 0.18 0.18 0.21 0.25 0.29 0.33 0.33 0.35 0.36 0.37 0.39 0.40 0.41 0.40 0.38 0.38 0.38 0.42 0.47 0.51 0.51 0.46 0.44 0.44 0.43 0.41 0.40 0.38 0.38 0.32 0.29 0.30 0.30 0.30 0.29 0.29 0.30 0.30
0.24 0.23 0.16 0.11 0.11 0.11 0.20 0.14 0.12 0.19 0.20 0.21 0.23 0.27 0.29 0.31 0.32 0.33 0.34 0.36 0.37 0.38 0.40 0.40 0.39 0.38 0.39 0.39 0.44 0.50 0.53 0.51 0.48 0.46 0.45 0.44 0.42 0.41 0.40 0.36 0.31 0.30 0.30 0.30 0.31 0.29 0.30 0.32 0.33
0.27 0.25 0.28 0.22 0.21 0.17 0.17 0.19 0.21 0.23 0.23 0.23 0.22 0.26 0.28 0.30 0.32 0.32 0.36 0.37 0.37 0.38 0.39 0.40 0.40 0.40 0.39 0.42 0.47 0.50 0.52 0.52 0.48 0.47 0.47 0.45 0.44 0.42 0.40 0.34 0.30 0.29 0.29 0.30 0.29 0.28 0.29 0.31 0.33
0.35 0.36 0.27 0.29 0.19 0.17 0.17 0.18 0.15 0.18 0.19 0.20 0.21 0.23 0.26 0.30 0.33 0.35 0.35 0.36 0.37 0.39 0.41 0.43 0.44 0.41 0.42 0.45 0.49 0.51 0.54 0.52 0.50 0.50 0.47 0.44 0.43 0.41 0.38 0.31 0.30 0.30 0.28 0.28 0.28 0.28 0.30 0.31 0.34
0.36 0.33 0.35 0.33 0.30 0.22 0.18 0.19 0.25 0.24 0.24 0.24 0.24 0.25 0.27 0.29 0.35 0.37 0.38 0.38 0.38 0.39 0.43 0.44 0.44 0.41 0.43 0.47 0.50 0.54 0.54 0.53 0.51 0.50 0.47 0.43 0.42 0.40 0.34 0.30 0.29 0.27 0.26 0.26 0.27 0.27 0.28 0.31 0.34
0.41 0.37 0.38 0.32 0.26 0.31 0.28 0.21 0.30 0.30 0.30 0.31 0.30 0.31 0.31 0.36 0.37 0.40 0.42 0.39 0.38 0.38 0.43 0.46 0.46 0.43 0.44 0.49 0.54 0.56 0.54 0.54 0.52 0.50 0.47 0.44 0.41 0.39 0.33 0.30 0.28 0.26 0.26 0.26 0.27 0.26 0.30 0.33 0.35

GFSSGP_prec_pwat_012.txt.gz
Precipitable_Water
1.55 1.47 1.50 1.37 0.91 0.82 0.72 0.73 0.84 0.72 0.72 0.87 0.95 0.81 0.71 0.77 0.62 0.43 1.19 1.36 1.48 1.41 1.36 1.33 1.30 1.49 1.55 1.50 1.43 1.42 1.37 1.35 1.33 1.28 1.25 1.21 1.21 1.20 1.21 1.25 1.34 1.37 1.35 1.36 1.41 1.49 1.53 1.59 1.53
1.40 1.39 1.33 1.06 0.72 0.56 0.59 0.76 0.68 0.72 0.77 0.88 0.84 0.74 0.65 0.54 0.80 0.95 1.06 1.43 1.53 1.42 1.36 1.28 1.30 1.51 1.56 1.53 1.45 1.35 1.28 1.20 1.16 1.06 1.00 0.84 0.86 0.91 0.98 1.02 1.11 1.21 1.28 1.31 1.33 1.38 1.45 1.51 1.54
1.28 1.29 0.95 0.78 0.68 0.53 0.54 0.66 0.72 0.77 0.79 0.68 0.62 0.64 0.57 0.55 0.74 0.93 1.14 1.50 1.50 1.26 1.23 1.12 1.25 1.52 1.56 1.50 1.36 1.25 1.18 1.06 0.97 0.93 0.85 0.80 0.75 0.74 0.76 0.83 0.93 1.02 1.05 1.19 1.26 1.30 1.35 1.39 1.44
1.07 1.08 0.92 0.65 0.60 0.66 0.65 0.67 0.71 0.67 0.69 0.62 0.55 0.42 0.56 0.66 0.67 0.89 1.16 1.28 1.04 1.02 1.01 1.04 1.22 1.52 1.56 1.41 1.29 1.15 0.94 0.85 0.91 0.92 0.81 0.90 0.86 0.80 0.82 0.81 0.80 0.86 0.91 1.01 1.10 1.21 1.29 1.33 1.34
1.02 0.89 0.64 0.58 0.62 0.67 0.70 0.71 0.71 0.57 0.55 0.55 0.57 0.43 0.44 0.59 0.68 1.02 1.07 0.97 0.85 0.91 0.95 1.03 1.32 1.52 1.39 1.23 1.06 0.88 0.73 0.81 0.88 0.81 0.78 0.78 0.82 0.78 0.79 0.76 0.79 0.78 0.82 0.86 0.95 1.00 1.10 1.22 1.29
0.65 0.76 0.52 0.47 0.56 0.64 0.66 0.71 0.69 0.60 0.51 0.50 0.49 0.47 0.45 0.59 0.75 0.95 0.97 0.92 0.93 0.84 0.92 1.07 1.42 1.41 1.19 1.03 0.89 0.70 0.67 0.68 0.73 0.74 0.72 0.72 0.74 0.76 0.78 0.76 0.72 0.75 0.72 0.81 0.86 0.79 0.82 1.01 1.10
0.42 0.52 0.47 0.50 0.51 0.55 0.59 0.69 0.61 0.57 0.47 0.46 0.52 0.36 0.42 0.48 0.77 0.91 0.93 0.94 0.95 0.94 0.94 1.04 1.40 1.24 1.04 0.83 0.68 0.60 0.60 0.62 0.61 0.61 0.61 0.60 0.63 0.67 0.72 0.73 0.70 0.69 0.68 0.70 0.74 0.70 0.62 0.75 0.88
0.49 0.40 0.37 0.41 0.39 0.41 0.55 0.56 0.54 0.50 0.43 0.49 0.48 0.29 0.27 0.42 0.70 0.86 0.92 0.91 0.92 0.95 0.95 0.94 1.00 1.08 0.88 0.67 0.58 0.54 0.53 0.53 0.52 0.52 0.50 0.48 0.49 0.54 0.61 0.65 0.64 0.64 0.62 0.64 0.65 0.66 0.62 0.60 0.70
0.52 0.29 0.23 0.27 0.33 0.37 0.46 0.41 0.47 0.51 0.41 0.40 0.39 0.36 0.38 0.46 0.67 0.73 0.75 0.80 0.83 0.87 0.90 0.94 0.83 0.79 0.68 0.54 0.53 0.52 0.50 0.48 0.46 0.44 0.42 0.40 0.37 0.40 0.49 0.57 0.56 0.54 0.55 0.57 0.59 0.58 0.58 0.53 0.55
0.28 0.21 0.20 0.29 0.33 0.32 0.36 0.39 0.41 0.39 0.37 0.33 0.34 0.39 0.42 0.48 0.53 0.54 0.56 0.58 0.65 0.65 0.73 0.79 0.66 0.62 0.53 0.46 0.41 0.40 0.39 0.39 0.38 0.37 0.37 0.36 0.36 0.38 0.42 0.47 0.46 0.44 0.44 0.45 0.48 0.48 0.47 0.47 0.47
0.22 0.13 0.17 0.22 0.31 0.34 0.33 0.36 0.40 0.35 0.28 0.30 0.28 0.32 0.38 0.42 0.45 0.50 0.53 0.57 0.54 0.58 0.61 0.60 0.52 0.50 0.42 0.36 0.35 0.37 0.38 0.38 0.38 0.37 0.36 0.34 0.34 0.36 0.39 0.39 0.36 0.35 0.36 0.36 0.37 0.36 0.36 0.36 0.40
0.15 0.20 0.19 0.21 0.26 0.28 0.27 0.33 0.32 0.33 0.28 0.36 0.34 0.36 0.36 0.36 0.39 0.43 0.47 0.54 0.57 0.54 0.54 0.54 0.51 0.45 0.40 0.38 0.36 0.37 0.36 0.37 0.36 0.36 0.34 0.31 0.33 0.37 0.40 0.39 0.35 0.33 0.35 0.34 0.35 0.33 0.33 0.31 0.33
0.18 0.18 0.21 0.23 0.25 0.26 0.27 0.24 0.27 0.26 0.32 0.36 0.35 0.35 0.33 0.32 0.36 0.42 0.47 0.54 0.60 0.55 0.54 0.52 0.50 0.45 0.42 0.36 0.36 0.37 0.35 0.35 0.35 0.35 0.34 0.32 0.35 0.39 0.43 0.41 0.36 0.36 0.37 0.36 0.34 0.33 0.32 0.31 0.31
0.22 0.22 0.21 0.21 0.22 0.26 0.22 0.22 0.24 0.23 0.29 0.30 0.30 0.29 0.31 0.30 0.32 0.38 0.42 0.45 0.50 0.56 0.54 0.53 0.49 0.47 0.44 0.40 0.39 0.40 0.36 0.34 0.35 0.36 0.36 0.35 0.38 0.42 0.43 0.41 0.38 0.37 0.39 0.40 0.37 0.35 0.33 0.32 0.33
0.23 0.17 0.20 0.20 0.22 0.20 0.23 0.14 0.13 0.19 0.23 0.21 0.23 0.25 0.27 0.28 0.33 0.33 0.38 0.39 0.42 0.49 0.54 0.49 0.46 0.45 0.42 0.40 0.41 0.42 0.38 0.34 0.34 0.36 0.38 0.37 0.40 0.44 0.44 0.41 0.38 0.39 0.41 0.40 0.38 0.37 0.36 0.32 0.33
0.18 0.18 0.11 0.17 0.19 0.22 0.21 0.08 0.10 0.16 0.17 0.16 0.18 0.21 0.24 0.27 0.29 0.32 0.39 0.41 0.43 0.45 0.45 0.48 0.48 0.46 0.43 0.41 0.39 0.38 0.34 0.33 0.34 0.36 0.39 0.39 0.42 0.44 0.43 0.41 0.38 0.41 0.41 0.40 0.39 0.37 0.34 0.32 0.31
0.16 0.09 0.10 0.11 0.17 0.17 0.17 0.11 0.12 0.15 0.15 0.14 0.17 0.20 0.24 0.27 0.31 0.34 0.37 0.39 0.42 0.44 0.44 0.44 0.46 0.45 0.44 0.42 0.38 0.36 0.33 0.33 0.35 0.36 0.39 0.41 0.43 0.44 0.42 0.40 0.38 0.41 0.41 0.40 0.40 0.38 0.37 0.33 0.31
0.07 0.09 0.10 0.09 0.11 0.15 0.13 0.11 0.11 0.14 0.16 0.15 0.20 0.23 0.26 0.27 0.28 0.34 0.36 0.38 0.42 0.45 0.45 0.46 0.46 0.45 0.44 0.42 0.38 0.35 0.34 0.33 0.36 0.37 0.39 0.42 0.44 0.44 0.42 0.39 0.38 0.41 0.41 0.41 0.42 0.39 0.39 0.36 0.34
0.12 0.11 0.10 0.11 0.13 0.13 0.12 0.13 0.14 0.15 0.20 0.19 0.20 0.22 0.23 0.24 0.27 0.34 0.36 0.40 0.40 0.41 0.43 0.45 0.44 0.43 0.41 0.38 0.34 0.32 0.31 0.33 0.35 0.39 0.41 0.43 0.44 0.44 0.41 0.38 0.39 0.41 0.42 0.42 0.43 0.40 0.38 0.35 0.35
0.14 0.12 0.10 0.12 0.13 0.14 0.12 0.10 0.13 0.15 0.15 0.17 0.17 0.18 0.20 0.22 0.26 0.30 0.34 0.37 0.39 0.40 0.41 0.43 0.44 0.43 0.41 0.38 0.36 0.36 0.35 0.36 0.38 0.42 0.43 0.45 0.45 0.44 0.42 0.39 0.39 0.42 0.43 0.42 0.42 0.40 0.37 0.36 0.34
0.15 0.14 0.12 0.11 0.13 0.14 0.14 0.09 0.11 0.14 0.15 0.19 0.21 0.21 0.21 0.21 0.22 0.26 0.30 0.34 0.39 0.41 0.41 0.41 0.43 0.43 0.41 0.40 0.39 0.38 0.38 0.38 0.39 0.42 0.43 0.45 0.45 0.45 0.44 0.40 0.41 0.42 0.43 0.41 0.41 0.41 0.38 0.32 0.31
0.11 0.15 0.15 0.15 0.15 0.12 0.21 0.09 0.14 0.16 0.15 0.17 0.18 0.20 0.21 0.22 0.24 0.26 0.29 0.33 0.36 0.39 0.44 0.45 0.45 0.44 0.44 0.43 0.39 0.37 0.35 0.36 0.41 0.43 0.44 0.44 0.46 0.45 0.44 0.42 0.42 0.43 0.44 0.41 0.41 0.42 0.39 0.35 0.27
0.21 0.26 0.23 0.23 0.20 0.19 0.17 0.16 0.10 0.17 0.14 0.16 0.17 0.18 0.21 0.22 0.24 0.25 0.28 0.31 0.36 0.42 0.43 0.45 0.46 0.46 0.45 0.44 0.43 0.40 0.41 0.42 0.44 0.44 0.43 0.43 0.46 0.46 0.45 0.43 0.43 0.43 0.44 0.43 0.42 0.40 0.39 0.36 0.31
0.32 0.29 0.29 0.29 0.26 0.16 0.17 0.20 0.09 0.12 0.15 0.17 0.18 0.19 0.19 0.20 0.24 0.26 0.30 0.34 0.36 0.41 0.42 0.42 0.45 0.47 0.46 0.44 0.44 0.45 0.44 0.43 0.42 0.42 0.41 0.42 0.45 0.47 0.46 0.44 0.44 0.45 0.44 0.42 0.43 0.42 0.40 0.36 0.34
0.27 0.23 0.16 0.16 0.17 0.14 0.22 0.21 0.13 0.17 0.21 0.21 0.22 0.22 0.22 0.22 0.23 0.24 0.26 0.29 0.33 0.37 0.40 0.41 0.44 0.42 0.43 0.46 0.47 0.46 0.45 0.44 0.42 0.41 0.41 0.42 0.45 0.47 0.44 0.44 0.45 0.45 0.45 0.44 0.44 0.43 0.40 0.37 0.33
0.24 0.24 0.18 0.14 0.13 0.15 0.24 0.17 0.16 0.25 0.27 0.28 0.28 0.29 0.29 0.27 0.28 0.28 0.32 0.35 0.38 0.38 0.39 0.40 0.41 0.42 0.44 0.46 0.47 0.48 0.47 0.45 0.43 0.42 0.42 0.44 0.47 0.47 0.45 0.46 0.46 0.47 0.47 0.45 0.45 0.43 0.40 0.37 0.33
0.28 0.24 0.31 0.26 0.24 0.22 0.20 0.22 0.25 0.28 0.28 0.29 0.29 0.30 0.30 0.32 0.34 0.33 0.33 0.38 0.42 0.42 0.40 0.41 0.42 0.43 0.45 0.47 0.48 0.46 0.46 0.45 0.44 0.42 0.44 0.47 0.49 0.48 0.46 0.47 0.48 0.48 0.47 0.45 0.44 0.42 0.38 0.35 0.33
0.35 0.39 0.28 0.31 0.22 0.18 0.20 0.22 0.20 0.26 0.29 0.32 0.34 0.37 0.39 0.40 0.40 0.39 0.39 0.40 0.44 0.45 0.46 0.47 0.45 0.44 0.45 0.46 0.46 0.47 0.47 0.47 0.45 0.43 0.45 0.48 0.49 0.48 0.48 0.48 0.49 0.49 0.47 0.45 0.44 0.41 0.37 0.34 0.32
0.33 0.32 0.34 0.34 0.31 0.26 0.23 0.24 0.34 0.35 0.37 0.36 0.38 0.40 0.44 0.44 0.47 0.45 0.43 0.44 0.46 0.46 0.47 0.48 0.46 0.45 0.43 0.46 0.48 0.49 0.49 0.49 0.47 0.44 0.45 0.48 0.49 0.49 0.49 0.49 0.50 0.48 0.45 0.45 0.42 0.39 0.35 0.33 0.31
0.25 0.24 0.33 0.29 0.27 0.33 0.30 0.26 0.38 0.43 0.43 0.42 0.41 0.42 0.44 0.49 0.51 0.54 0.52 0.49 0.47 0.48 0.47 0.46 0.48 0.47 0.46 0.47 0.48 0.50 0.51 0.50 0.45 0.43 0.45 0.49 0.49 0.50 0.49 0.50 0.49 0.47 0.45 0.43 0.41 0.37 0.34 0.32 0.29

GFSSGP_prec_pwat_015.txt.gz
Precipitable_Water
1.54 1.54 1.48 1.41 0.94 0.85 0.72 0.75 0.85 0.72 0.72 0.87 0.93 0.76 0.67 0.73 0.59 0.43 1.14 1.21 1.33 1.19 1.29 1.29 1.29 1.52 1.46 1.38 1.39 1.40 1.37 1.30 1.28 1.25 1.16 1.17 1.14 1.14 1.17 1.21 1.29 1.34 1.33 1.34 1.41 1.47 1.52 1.55 1.52
1.45 1.49 1.29 1.12 0.78 0.61 0.61 0.79 0.69 0.72 0.79 0.84 0.85 0.79 0.67 0.53 0.80 0.92 0.98 1.27 1.42 1.33 1.28 1.24 1.27 1.49 1.53 1.49 1.44 1.35 1.30 1.23 1.13 1.04 0.95 0.91 0.92 0.93 0.98 1.04 1.12 1.15 1.25 1.30 1.32 1.38 1.44 1.47 1.46
1.35 1.32 1.00 0.84 0.71 0.57 0.57 0.72 0.75 0.80 0.84 0.73 0.67 0.71 0.58 0.48 0.69 0.89 1.14 1.32 1.48 1.31 1.25 1.15 1.26 1.48 1.52 1.46 1.33 1.22 1.12 1.04 1.00 0.92 0.85 0.80 0.81 0.83 0.88 0.94 0.99 1.01 1.08 1.16 1.25 1.32 1.34 1.37 1.41
1.10 1.08 0.96 0.68 0.59 0.67 0.70 0.73 0.79 0.73 0.71 0.68 0.60 0.49 0.60 0.68 0.68 0.93 1.18 1.31 1.41 1.18 1.07 1.06 1.23 1.48 1.52 1.40 1.30 1.13 1.05 0.97 0.90 0.77 0.89 0.85 0.79 0.83 0.81 0.83 0.87 0.91 0.95 1.04 1.10 1.20 1.30 1.32 1.34
0.98 0.88 0.66 0.59 0.59 0.69 0.78 0.80 0.81 0.67 0.60 0.53 0.56 0.45 0.52 0.65 0.70 0.94 1.09 1.15 0.98 0.92 0.95 0.99 1.18 1.45 1.48 1.35 1.13 1.01 0.92 0.88 0.79 0.75 0.76 0.78 0.78 0.79 0.79 0.75 0.74 0.75 0.85 0.91 0.91 1.03 1.17 1.23 1.24
0.55 0.72 0.52 0.46 0.53 0.66 0.71 0.78 0.76 0.69 0.62 0.56 0.47 0.44 0.47 0.66 0.67 0.92 1.08 0.95 0.90 0.85 0.91 0.98 1.22 1.36 1.38 1.15 1.00 0.84 0.75 0.73 0.71 0.72 0.74 0.74 0.75 0.75 0.77 0.77 0.71 0.71 0.72 0.75 0.70 0.75 0.90 1.01 1.10
0.39 0.42 0.44 0.48 0.49 0.54 0.64 0.76 0.68 0.64 0.58 0.52 0.53 0.38 0.45 0.51 0.73 0.96 1.01 0.95 0.92 0.92 0.91 1.00 1.16 1.35 1.25 1.06 0.89 0.71 0.66 0.64 0.64 0.64 0.63 0.65 0.65 0.68 0.71 0.73 0.71 0.68 0.68 0.69 0.68 0.64 0.64 0.78 0.88
0.50 0.39 0.30 0.36 0.39 0.42 0.58 0.65 0.67 0.62 0.53 0.59 0.55 0.31 0.27 0.41 0.72 0.93 0.93 0.91 0.90 0.94 0.95 0.92 1.00 1.23 1.09 0.96 0.76 0.61 0.58 0.56 0.56 0.55 0.53 0.54 0.57 0.58 0.60 0.65 0.66 0.63 0.63 0.64 0.64 0.63 0.59 0.60 0.69
0.50 0.29 0.23 0.24 0.27 0.33 0.47 0.44 0.50 0.55 0.49 0.49 0.49 0.40 0.40 0.48 0.75 0.80 0.77 0.81 0.82 0.89 0.91 0.89 0.86 1.02 0.99 0.85 0.65 0.54 0.54 0.54 0.52 0.49 0.45 0.41 0.43 0.46 0.52 0.58 0.59 0.58 0.55 0.55 0.57 0.57 0.55 0.53 0.57
0.26 0.21 0.21 0.29 0.31 0.29 0.34 0.34 0.37 0.37 0.39 0.39 0.41 0.43 0.44 0.50 0.63 0.61 0.59 0.58 0.67 0.73 0.84 0.83 0.79 0.76 0.80 0.74 0.53 0.45 0.43 0.39 0.39 0.37 0.38 0.39 0.39 0.41 0.44 0.51 0.52 0.48 0.45 0.45 0.47 0.47 0.46 0.47 0.49
0.21 0.13 0.18 0.20 0.27 0.32 0.29 0.27 0.34 0.31 0.29 0.32 0.32 0.37 0.41 0.45 0.56 0.57 0.58 0.58 0.59 0.73 0.80 0.77 0.72 0.68 0.70 0.59 0.41 0.34 0.35 0.35 0.37 0.37 0.37 0.36 0.35 0.34 0.36 0.40 0.41 0.38 0.36 0.34 0.35 0.36 0.37 0.38 0.40
0.15 0.20 0.20 0.20 0.23 0.25 0.23 0.28 0.26 0.29 0.29 0.39 0.41 0.40 0.40 0.39 0.44 0.50 0.53 0.58 0.61 0.67 0.71 0.73 0.67 0.58 0.58 0.52 0.37 0.32 0.33 0.34 0.35 0.36 0.36 0.34 0.32 0.33 0.37 0.39 0.40 0.36 0.35 0.34 0.35 0.35 0.34 0.33 0.34
0.18 0.19 0.22 0.22 0.24 0.25 0.26 0.22 0.23 0.24 0.33 0.40 0.40 0.37 0.36 0.37 0.40 0.50 0.55 0.62 0.69 0.66 0.72 0.66 0.59 0.50 0.46 0.43 0.38 0.32 0.33 0.33 0.34 0.36 0.35 0.34 0.33 0.34 0.40 0.41 0.41 0.38 0.37 0.36 0.36 0.35 0.34 0.33 0.32
0.22 0.21 0.21 0.22 0.22 0.22 0.19 0.19 0.21 0.22 0.26 0.27 0.31 0.32 0.34 0.33 0.35 0.40 0.50 0.54 0.60 0.66 0.66 0.65 0.56 0.48 0.43 0.40 0.36 0.33 0.35 0.33 0.34 0.36 0.35 0.35 0.35 0.36 0.41 0.42 0.42 0.39 0.38 0.38 0.38 0.36 0.35 0.35 0.33
0.22 0.16 0.18 0.17 0.19 0.20 0.24 0.14 0.11 0.16 0.20 0.18 0.21 0.25 0.28 0.29 0.33 0.33 0.37 0.43 0.51 0.61 0.69 0.62 0.58 0.53 0.46 0.41 0.40 0.36 0.34 0.36 0.34 0.34 0.36 0.36 0.37 0.38 0.41 0.43 0.42 0.40 0.39 0.39 0.39 0.39 0.38 0.36 0.35
0.16 0.16 0.10 0.15 0.18 0.21 0.22 0.08 0.12 0.19 0.18 0.15 0.17 0.19 0.21 0.24 0.27 0.30 0.38 0.42 0.48 0.59 0.63 0.64 0.62 0.58 0.51 0.47 0.43 0.40 0.40 0.41 0.39 0.34 0.35 0.36 0.37 0.39 0.41 0.43 0.43 0.41 0.38 0.39 0.39 0.40 0.38 0.37 0.36
0.15 0.08 0.09 0.10 0.16 0.17 0.18 0.11 0.13 0.17 0.16 0.14 0.15 0.17 0.19 0.22 0.26 0.29 0.36 0.39 0.44 0.47 0.55 0.59 0.62 0.58 0.54 0.52 0.47 0.43 0.41 0.40 0.37 0.33 0.35 0.36 0.37 0.39 0.42 0.44 0.44 0.42 0.37 0.39 0.39 0.40 0.40 0.39 0.38
0.07 0.09 0.10 0.09 0.11 0.14 0.13 0.12 0.14 0.15 0.16 0.15 0.15 0.16 0.17 0.19 0.22 0.29 0.33 0.39 0.45 0.47 0.50 0.56 0.60 0.59 0.54 0.53 0.50 0.47 0.43 0.39 0.36 0.33 0.34 0.37 0.38 0.40 0.43 0.44 0.44 0.43 0.38 0.38 0.40 0.40 0.43 0.41 0.39
0.12 0.11 0.10 0.10 0.12 0.13 0.11 0.11 0.12 0.12 0.16 0.14 0.14 0.13 0.15 0.19 0.20 0.27 0.32 0.38 0.42 0.46 0.47 0.48 0.53 0.55 0.53 0.50 0.45 0.43 0.38 0.37 0.35 0.35 0.35 0.37 0.39 0.41 0.43 0.44 0.43 0.43 0.38 0.38 0.41 0.42 0.41 0.41 0.42
0.13 0.11 0.10 0.12 0.13 0.14 0.12 0.10 0.12 0.13 0.11 0.13 0.14 0.14 0.13 0.14 0.17 0.22 0.25 0.32 0.37 0.40 0.43 0.45 0.48 0.51 0.51 0.50 0.47 0.45 0.42 0.40 0.37 0.37 0.37 0.38 0.41 0.43 0.43 0.43 0.43 0.43 0.39 0.39 0.41 0.42 0.41 0.41 0.42
0.14 0.13 0.12 0.12 0.16 0.17 0.14 0.09 0.11 0.14 0.17 0.17 0.18 0.18 0.19 0.19 0.20 0.22 0.26 0.30 0.34 0.37 0.41 0.44 0.45 0.48 0.50 0.51 0.50 0.48 0.45 0.42 0.37 0.36 0.37 0.40 0.43 0.45 0.44 0.43 0.43 0.43 0.40 0.39 0.41 0.43 0.42 0.39 0.41
0.19 0.25 0.24 0.22 0.21 0.14 0.23 0.10 0.14 0.16 0.17 0.19 0.20 0.21 0.20 0.22 0.25 0.26 0.28 0.29 0.32 0.33 0.39 0.42 0.45 0.48 0.51 0.52 0.49 0.46 0.41 0.36 0.36 0.38 0.41 0.42 0.45 0.46 0.46 0.44 0.45 0.43 0.42 0.40 0.41 0.45 0.44 0.43 0.38
0.21 0.28 0.26 0.25 0.23 0.22 0.20 0.18 0.10 0.17 0.16 0.18 0.21 0.23 0.25 0.26 0.25 0.26 0.28 0.31 0.34 0.36 0.38 0.41 0.44 0.47 0.51 0.52 0.53 0.49 0.45 0.44 0.42 0.43 0.42 0.43 0.46 0.47 0.46 0.45 0.45 0.44 0.42 0.41 0.43 0.46 0.44 0.45 0.41
0.28 0.26 0.25 0.25 0.23 0.13 0.17 0.18 0.08 0.13 0.17 0.20 0.23 0.23 0.25 0.28 0.30 0.32 0.33 0.35 0.36 0.40 0.40 0.41 0.42 0.44 0.48 0.51 0.52 0.50 0.46 0.45 0.43 0.42 0.43 0.45 0.47 0.46 0.46 0.46 0.46 0.46 0.43 0.42 0.45 0.47 0.46 0.46 0.43
0.27 0.23 0.14 0.12 0.14 0.11 0.21 0.19 0.13 0.18 0.21 0.24 0.26 0.29 0.33 0.36 0.37 0.39 0.38 0.37 0.37 0.39 0.42 0.42 0.41 0.40 0.44 0.47 0.49 0.50 0.47 0.46 0.44 0.45 0.46 0.46 0.45 0.45 0.44 0.46 0.47 0.46 0.44 0.44 0.47 0.48 0.47 0.46 0.43
0.26 0.25 0.18 0.12 0.11 0.13 0.21 0.15 0.15 0.23 0.27 0.31 0.34 0.37 0.39 0.40 0.40 0.40 0.44 0.45 0.43 0.41 0.42 0.45 0.44 0.43 0.45 0.46 0.47 0.49 0.49 0.49 0.49 0.48 0.47 0.47 0.46 0.45 0.45 0.46 0.48 0.47 0.45 0.46 0.49 0.49 0.49 0.47 0.44
0.26 0.24 0.33 0.25 0.24 0.20 0.18 0.22 0.25 0.28 0.29 0.32 0.32 0.33 0.35 0.38 0.41 0.44 0.44 0.49 0.51 0.44 0.45 0.48 0.47 0.46 0.44 0.44 0.47 0.49 0.51 0.51 0.49 0.49 0.49 0.48 0.47 0.45 0.44 0.47 0.48 0.46 0.46 0.48 0.49 0.48 0.47 0.46 0.43
0.32 0.32 0.19 0.24 0.14 0.12 0.16 0.18 0.19 0.26 0.31 0.35 0.35 0.34 0.34 0.37 0.43 0.47 0.47 0.51 0.55 0.53 0.48 0.50 0.50 0.49 0.49 0.48 0.48 0.49 0.51 0.53 0.52 0.50 0.48 0.48 0.46 0.45 0.46 0.48 0.48 0.46 0.47 0.49 0.50 0.49 0.48 0.44 0.42
0.15 0.13 0.15 0.20 0.18 0.15 0.15 0.20 0.35 0.35 0.37 0.34 0.32 0.35 0.34 0.38 0.42 0.46 0.51 0.53 0.58 0.60 0.53 0.52 0.51 0.51 0.51 0.51 0.50 0.50 0.51 0.52 0.52 0.51 0.50 0.50 0.48 0.46 0.46 0.46 0.46 0.46 0.48 0.50 0.49 0.48 0.46 0.43 0.40
0.23 0.29 0.28 0.19 0.16 0.20 0.20 0.18 0.25 0.31 0.27 0.26 0.30 0.32 0.37 0.42 0.46 0.52 0.55 0.57 0.58 0.62 0.62 0.55 0.54 0.53 0.54 0.53 0.51 0.50 0.51 0.52 0.52 0.51 0.52 0.50 0.45 0.46 0.46 0.46 0.46 0.47 0.49 0.50 0.49 0.47 0.44 0.42 0.39

GFSSGP_prec_pwat_021.txt.gz
Precipitable_Water
1.67 1.63 1.62 1.53 1.03 0.98 0.84 0.86 0.83 0.80 0.78 0.85 0.84 0.74 0.68 0.64 0.62 0.72 1.11 1.17 1.01 1.02 1.18 1.13 1.35 1.30 1.39 1.29 1.34 1.26 1.20 1.12 1.12 1.13 1.13 1.11 1.12 1.10 1.09 1.14 1.28 1.32 1.37 1.38 1.44 1.51 1.54 1.49 1.51
1.55 1.54 1.50 1.27 0.83 0.73 0.82 0.93 0.80 0.82 0.83 0.84 0.80 0.72 0.68 0.61 0.67 0.90 0.95 1.16 1.05 1.15 1.25 1.28 1.29 1.32 1.27 1.30 1.30 1.29 1.20 1.13 1.08 1.02 0.94 0.88 0.87 0.91 0.95 1.00 1.09 1.17 1.22 1.31 1.39 1.40 1.45 1.47 1.44
1.53 1.51 1.21 1.01 0.80 0.68 0.79 0.87 0.87 0.88 0.86 0.80 0.71 0.72 0.64 0.59 0.64 0.87 1.04 1.13 1.16 1.21 1.29 1.33 1.26 1.36 1.40 1.35 1.31 1.23 1.18 1.03 0.98 0.84 0.77 0.76 0.75 0.80 0.86 0.89 0.97 1.04 1.04 1.13 1.25 1.33 1.36 1.41 1.40
1.24 1.19 1.03 0.75 0.69 0.87 0.79 0.87 0.92 0.92 0.90 0.81 0.72 0.58 0.70 0.75 0.69 0.92 1.04 1.08 1.18 1.29 1.35 1.31 1.17 1.37 1.39 1.34 1.25 1.15 1.06 0.98 0.94 0.83 0.73 0.76 0.74 0.74 0.73 0.73 0.82 0.84 0.85 0.99 1.09 1.16 1.23 1.30 1.35
1.09 1.00 0.69 0.68 0.66 0.75 0.82 0.85 0.90 0.88 0.88 0.78 0.71 0.58 0.61 0.74 0.87 1.00 1.03 1.09 1.16 1.24 1.36 1.35 1.11 1.26 1.34 1.33 1.22 1.11 1.04 0.89 0.81 0.75 0.72 0.74 0.75 0.73 0.73 0.71 0.71 0.72 0.67 0.69 0.85 0.98 1.06 1.13 1.23
0.71 0.72 0.52 0.51 0.56 0.67 0.77 0.76 0.80 0.84 0.88 0.80 0.67 0.61 0.63 0.80 0.71 0.97 1.04 1.07 1.21 1.16 1.18 1.24 1.07 1.17 1.34 1.33 1.20 1.14 1.01 0.80 0.70 0.69 0.71 0.70 0.74 0.73 0.70 0.69 0.68 0.68 0.66 0.64 0.65 0.71 0.79 0.94 1.10
0.54 0.48 0.39 0.38 0.40 0.46 0.58 0.75 0.65 0.75 0.80 0.81 0.76 0.55 0.66 0.66 0.68 0.91 0.99 1.08 1.09 1.02 0.93 1.00 1.10 1.13 1.29 1.35 1.21 1.14 0.95 0.73 0.66 0.65 0.65 0.66 0.69 0.68 0.66 0.66 0.70 0.67 0.63 0.61 0.62 0.64 0.64 0.74 0.89
0.55 0.46 0.34 0.35 0.34 0.35 0.44 0.58 0.60 0.58 0.62 0.82 0.80 0.48 0.51 0.66 0.72 0.87 0.97 0.97 0.94 0.88 0.88 0.86 1.13 1.11 1.14 1.30 1.19 1.04 0.89 0.67 0.61 0.60 0.59 0.61 0.63 0.59 0.59 0.67 0.64 0.65 0.62 0.58 0.57 0.58 0.61 0.62 0.70
0.51 0.27 0.23 0.28 0.31 0.36 0.43 0.43 0.45 0.55 0.43 0.58 0.62 0.53 0.61 0.64 0.73 0.81 0.84 0.88 0.86 0.85 0.87 0.85 1.03 1.10 1.12 1.18 1.20 1.02 0.84 0.63 0.53 0.55 0.54 0.54 0.62 0.62 0.59 0.56 0.55 0.59 0.57 0.54 0.52 0.51 0.51 0.55 0.58
0.26 0.19 0.19 0.28 0.31 0.27 0.31 0.33 0.35 0.34 0.35 0.34 0.47 0.53 0.57 0.62 0.72 0.74 0.73 0.72 0.75 0.77 0.80 0.85 0.93 1.03 1.08 1.11 1.12 0.98 0.80 0.59 0.49 0.47 0.42 0.47 0.50 0.52 0.52 0.49 0.49 0.49 0.47 0.42 0.40 0.41 0.44 0.50 0.53
0.24 0.17 0.20 0.23 0.22 0.24 0.22 0.22 0.27 0.28 0.25 0.26 0.29 0.39 0.54 0.57 0.65 0.72 0.73 0.71 0.71 0.76 0.80 0.82 0.90 0.90 0.96 0.95 0.96 0.89 0.80 0.59 0.44 0.41 0.40 0.42 0.48 0.43 0.45 0.43 0.44 0.44 0.42 0.42 0.41 0.41 0.42 0.42 0.46
0.18 0.20 0.22 0.21 0.23 0.23 0.19 0.22 0.20 0.25 0.25 0.30 0.31 0.39 0.39 0.50 0.49 0.64 0.67 0.70 0.70 0.73 0.78 0.80 0.84 0.85 0.83 0.87 0.80 0.82 0.73 0.50 0.35 0.34 0.36 0.40 0.39 0.38 0.35 0.34 0.37 0.41 0.43 0.41 0.38 0.39 0.39 0.40 0.39
0.21 0.22 0.23 0.24 0.23 0.22 0.23 0.20 0.20 0.22 0.24 0.26 0.29 0.31 0.33 0.36 0.43 0.50 0.65 0.70 0.72 0.72 0.75 0.79 0.81 0.80 0.78 0.77 0.75 0.71 0.58 0.47 0.36 0.33 0.34 0.37 0.38 0.37 0.35 0.34 0.35 0.38 0.42 0.42 0.39 0.37 0.38 0.38 0.37
0.24 0.22 0.19 0.19 0.19 0.20 0.19 0.19 0.22 0.20 0.25 0.24 0.24 0.25 0.25 0.28 0.33 0.40 0.47 0.57 0.62 0.67 0.71 0.82 0.84 0.78 0.78 0.72 0.68 0.58 0.48 0.44 0.38 0.34 0.34 0.36 0.38 0.38 0.36 0.35 0.35 0.36 0.41 0.42 0.41 0.37 0.38 0.38 0.38
0.22 0.17 0.18 0.18 0.20 0.21 0.24 0.15 0.16 0.24 0.27 0.22 0.20 0.20 0.23 0.24 0.29 0.32 0.35 0.41 0.53 0.62 0.72 0.79 0.89 0.88 0.78 0.72 0.70 0.59 0.49 0.45 0.40 0.35 0.34 0.35 0.37 0.37 0.37 0.35 0.35 0.36 0.39 0.40 0.40 0.37 0.36 0.38 0.38
0.18 0.18 0.12 0.20 0.22 0.24 0.22 0.09 0.14 0.20 0.23 0.18 0.17 0.16 0.16 0.21 0.23 0.27 0.32 0.36 0.44 0.53 0.63 0.76 0.87 0.86 0.82 0.71 0.70 0.64 0.52 0.44 0.41 0.37 0.34 0.33 0.36 0.37 0.36 0.35 0.35 0.37 0.38 0.41 0.42 0.41 0.37 0.36 0.38
0.15 0.13 0.13 0.13 0.19 0.18 0.19 0.12 0.17 0.20 0.18 0.18 0.17 0.18 0.18 0.17 0.18 0.22 0.24 0.31 0.36 0.42 0.50 0.62 0.81 0.85 0.84 0.75 0.68 0.61 0.55 0.48 0.43 0.40 0.37 0.34 0.35 0.36 0.36 0.35 0.36 0.37 0.38 0.41 0.42 0.42 0.38 0.36 0.39
0.11 0.10 0.10 0.09 0.12 0.17 0.14 0.13 0.15 0.17 0.19 0.18 0.18 0.19 0.20 0.20 0.20 0.20 0.22 0.26 0.31 0.36 0.43 0.52 0.70 0.84 0.86 0.79 0.69 0.61 0.56 0.52 0.48 0.43 0.40 0.37 0.36 0.38 0.38 0.37 0.37 0.38 0.38 0.39 0.43 0.42 0.41 0.37 0.38
0.14 0.12 0.11 0.14 0.19 0.19 0.18 0.20 0.21 0.23 0.24 0.25 0.26 0.26 0.26 0.26 0.28 0.29 0.30 0.27 0.28 0.37 0.41 0.49 0.57 0.76 0.90 0.78 0.65 0.57 0.51 0.51 0.49 0.47 0.44 0.42 0.39 0.39 0.39 0.38 0.38 0.38 0.38 0.40 0.44 0.43 0.41 0.37 0.39
0.21 0.20 0.20 0.22 0.24 0.22 0.20 0.18 0.20 0.23 0.24 0.26 0.26 0.25 0.27 0.30 0.33 0.39 0.40 0.42 0.44 0.43 0.46 0.47 0.53 0.63 0.86 0.87 0.74 0.66 0.60 0.57 0.54 0.53 0.50 0.49 0.46 0.44 0.41 0.39 0.38 0.39 0.40 0.41 0.45 0.44 0.40 0.37 0.39
0.21 0.20 0.20 0.19 0.20 0.21 0.22 0.17 0.20 0.22 0.27 0.28 0.31 0.34 0.35 0.36 0.37 0.38 0.41 0.43 0.47 0.48 0.49 0.51 0.52 0.58 0.68 0.93 0.86 0.78 0.71 0.66 0.58 0.54 0.51 0.50 0.50 0.48 0.45 0.43 0.41 0.41 0.42 0.42 0.46 0.46 0.43 0.36 0.40
0.18 0.26 0.23 0.20 0.19 0.14 0.21 0.11 0.19 0.23 0.26 0.31 0.34 0.34 0.32 0.31 0.34 0.36 0.39 0.41 0.43 0.46 0.52 0.55 0.53 0.54 0.59 0.72 0.85 0.79 0.67 0.59 0.58 0.55 0.55 0.53 0.55 0.52 0.49 0.45 0.44 0.42 0.44 0.43 0.47 0.49 0.46 0.39 0.36
0.19 0.25 0.22 0.22 0.20 0.20 0.19 0.18 0.20 0.26 0.26 0.30 0.33 0.31 0.30 0.29 0.30 0.33 0.35 0.40 0.44 0.47 0.49 0.54 0.56 0.54 0.56 0.60 0.71 0.79 0.71 0.70 0.68 0.63 0.58 0.57 0.57 0.56 0.53 0.47 0.44 0.42 0.44 0.44 0.47 0.48 0.45 0.43 0.38
0.28 0.27 0.25 0.24 0.26 0.18 0.21 0.20 0.18 0.25 0.27 0.32 0.36 0.37 0.36 0.31 0.31 0.34 0.37 0.38 0.39 0.46 0.50 0.51 0.52 0.55 0.57 0.60 0.63 0.72 0.71 0.69 0.66 0.60 0.59 0.59 0.58 0.57 0.56 0.50 0.45 0.44 0.44 0.45 0.48 0.49 0.45 0.43 0.41
0.31 0.20 0.13 0.13 0.19 0.17 0.22 0.17 0.19 0.27 0.32 0.33 0.30 0.31 0.31 0.30 0.32 0.34 0.37 0.38 0.40 0.45 0.47 0.49 0.51 0.52 0.56 0.57 0.61 0.63 0.71 0.71 0.68 0.65 0.61 0.60 0.58 0.58 0.56 0.53 0.46 0.45 0.46 0.48 0.50 0.49 0.46 0.44 0.43
0.23 0.24 0.16 0.11 0.11 0.12 0.20 0.13 0.17 0.32 0.36 0.33 0.27 0.23 0.22 0.28 0.37 0.40 0.41 0.42 0.42 0.44 0.45 0.50 0.51 0.51 0.55 0.57 0.61 0.63 0.67 0.71 0.69 0.69 0.66 0.60 0.60 0.61 0.61 0.58 0.51 0.48 0.48 0.51 0.53 0.50 0.48 0.46 0.45
0.24 0.19 0.31 0.23 0.21 0.15 0.15 0.17 0.20 0.25 0.26 0.26 0.23 0.23 0.22 0.27 0.36 0.39 0.43 0.45 0.46 0.49 0.49 0.53 0.52 0.55 0.56 0.54 0.58 0.63 0.65 0.68 0.69 0.69 0.72 0.64 0.62 0.64 0.64 0.61 0.54 0.50 0.51 0.55 0.53 0.49 0.48 0.46 0.47
0.26 0.22 0.14 0.16 0.10 0.08 0.08 0.10 0.11 0.18 0.18 0.18 0.18 0.18 0.19 0.25 0.28 0.29 0.34 0.39 0.43 0.49 0.56 0.60 0.63 0.63 0.66 0.61 0.58 0.62 0.64 0.66 0.68 0.69 0.69 0.65 0.64 0.65 0.65 0.62 0.56 0.51 0.54 0.55 0.52 0.49 0.48 0.48 0.47
0.15 0.14 0.17 0.18 0.18 0.12 0.11 0.11 0.18 0.17 0.18 0.19 0.19 0.18 0.22 0.34 0.31 0.32 0.35 0.37 0.41 0.45 0.51 0.55 0.60 0.66 0.71 0.70 0.65 0.63 0.65 0.66 0.66 0.67 0.70 0.68 0.65 0.65 0.64 0.62 0.57 0.55 0.54 0.54 0.51 0.48 0.48 0.46 0.47
0.16 0.16 0.21 0.16 0.13 0.16 0.15 0.10 0.19 0.19 0.21 0.20 0.19 0.22 0.30 0.33 0.34 0.35 0.36 0.38 0.41 0.49 0.46 0.44 0.48 0.62 0.70 0.73 0.72 0.67 0.69 0.66 0.65 0.66 0.68 0.70 0.66 0.65 0.65 0.61 0.59 0.56 0.54 0.53 0.49 0.48 0.48 0.46 0.46

GFSSGP_prec_pwat_024.txt.gz
Precipitable_Water
1.68 1.65 1.62 1.53 1.03 1.04 0.89 1.04 0.91 0.80 0.83 0.80 0.84 0.66 0.54 0.74 0.57 0.66 1.20 1.09 1.01 1.04 1.09 1.04 1.23 1.20 1.28 1.15 1.12 1.11 1.09 1.08 1.10 1.12 1.13 1.11 1.10 1.03 1.03 1.14 1.27 1.30 1.36 1.35 1.38 1.48 1.48 1.47 1.56
1.55 1.55 1.49 1.26 0.85 0.78 0.80 1.01 0.91 0.83 0.83 0.82 0.77 0.63 0.70 0.64 0.77 0.81 0.89 1.03 1.01 1.14 1.14 1.15 1.23 1.25 1.26 1.22 1.21 1.17 1.09 1.05 1.01 0.97 0.87 0.81 0.82 0.86 0.91 1.00 1.09 1.13 1.23 1.31 1.30 1.35 1.40 1.41 1.45
1.52 1.52 1.21 1.01 0.82 0.75 0.83 0.96 0.92 0.94 0.91 0.84 0.71 0.73 0.57 0.59 0.65 0.90 1.06 0.97 1.01 1.12 1.29 1.27 1.14 1.25 1.27 1.25 1.21 1.18 1.10 0.95 0.86 0.82 0.77 0.72 0.75 0.77 0.78 0.84 0.92 0.93 1.07 1.15 1.21 1.25 1.31 1.35 1.36
1.33 1.26 1.08 0.74 0.66 0.84 1.00 0.86 0.88 0.89 0.99 0.92 0.79 0.61 0.75 0.79 0.73 0.93 1.08 1.00 0.96 1.11 1.28 1.33 1.12 1.25 1.34 1.31 1.22 1.14 1.02 0.95 0.87 0.78 0.73 0.71 0.71 0.73 0.73 0.78 0.73 0.68 0.78 0.93 1.02 1.10 1.16 1.23 1.27
1.12 1.02 0.70 0.68 0.70 0.77 0.87 0.88 0.81 0.78 0.93 0.94 0.81 0.64 0.71 0.81 0.95 0.98 1.00 1.06 1.07 1.18 1.26 1.35 1.22 1.15 1.26 1.30 1.23 1.11 0.97 0.94 0.83 0.69 0.68 0.70 0.70 0.68 0.68 0.71 0.73 0.69 0.65 0.70 0.78 0.87 0.96 1.08 1.17
0.76 0.71 0.44 0.43 0.53 0.58 0.65 0.74 0.75 0.73 0.86 0.94 0.85 0.72 0.69 0.88 0.83 0.83 0.95 1.01 1.12 1.21 1.26 1.23 1.28 1.08 1.15 1.27 1.20 1.12 1.01 0.87 0.73 0.67 0.66 0.67 0.66 0.65 0.63 0.66 0.70 0.67 0.64 0.65 0.67 0.69 0.76 0.92 1.09
0.60 0.50 0.36 0.38 0.37 0.40 0.46 0.59 0.66 0.60 0.67 0.75 0.91 0.69 0.69 0.78 0.88 0.90 0.92 1.02 1.12 1.18 1.15 1.19 1.16 1.05 1.10 1.28 1.23 1.14 1.03 0.85 0.70 0.64 0.62 0.64 0.63 0.62 0.58 0.61 0.62 0.64 0.62 0.61 0.65 0.64 0.65 0.77 0.90
0.60 0.51 0.35 0.33 0.32 0.33 0.45 0.45 0.54 0.45 0.44 0.68 0.80 0.66 0.58 0.74 0.89 1.00 0.95 0.95 1.04 1.01 1.01 1.04 1.13 1.09 1.00 1.17 1.27 1.16 1.01 0.85 0.69 0.60 0.58 0.61 0.59 0.57 0.61 0.59 0.56 0.57 0.58 0.56 0.57 0.60 0.62 0.64 0.74
0.56 0.30 0.24 0.20 0.25 0.31 0.39 0.34 0.37 0.47 0.45 0.43 0.46 0.60 0.63 0.73 0.78 0.84 0.85 0.83 0.88 0.86 0.87 0.84 1.08 1.12 1.07 0.96 1.26 1.20 1.02 0.86 0.68 0.57 0.55 0.57 0.59 0.60 0.58 0.55 0.51 0.50 0.50 0.50 0.49 0.49 0.51 0.59 0.60
0.35 0.24 0.19 0.26 0.28 0.26 0.25 0.22 0.24 0.25 0.29 0.32 0.32 0.44 0.63 0.64 0.65 0.68 0.76 0.76 0.80 0.78 0.80 0.87 1.00 1.13 1.11 1.02 1.04 1.14 1.02 0.85 0.64 0.51 0.46 0.55 0.58 0.58 0.54 0.45 0.45 0.43 0.39 0.37 0.36 0.38 0.44 0.52 0.58
0.31 0.21 0.22 0.20 0.24 0.24 0.21 0.20 0.23 0.22 0.19 0.26 0.27 0.29 0.46 0.59 0.65 0.71 0.74 0.79 0.83 0.83 0.85 0.82 0.84 1.05 1.06 1.04 0.97 1.03 0.98 0.81 0.62 0.51 0.38 0.48 0.48 0.51 0.45 0.38 0.38 0.35 0.40 0.43 0.40 0.38 0.37 0.39 0.44
0.23 0.23 0.21 0.21 0.24 0.22 0.20 0.23 0.19 0.20 0.19 0.23 0.25 0.26 0.33 0.46 0.49 0.53 0.60 0.73 0.80 0.81 0.81 0.79 0.76 0.86 0.95 1.01 0.94 0.85 0.82 0.82 0.66 0.54 0.38 0.41 0.41 0.39 0.43 0.37 0.37 0.33 0.35 0.36 0.39 0.37 0.34 0.34 0.37
0.20 0.22 0.24 0.26 0.24 0.23 0.23 0.20 0.21 0.20 0.23 0.25 0.25 0.25 0.26 0.30 0.34 0.49 0.56 0.66 0.74 0.74 0.78 0.81 0.80 0.82 0.85 0.90 0.89 0.82 0.69 0.65 0.61 0.49 0.39 0.38 0.37 0.35 0.35 0.35 0.33 0.32 0.32 0.34 0.37 0.37 0.35 0.33 0.34
0.23 0.22 0.20 0.19 0.18 0.21 0.20 0.21 0.22 0.18 0.25 0.25 0.25 0.24 0.26 0.26 0.31 0.32 0.45 0.49 0.64 0.73 0.79 0.86 0.86 0.83 0.88 0.83 0.85 0.79 0.72 0.58 0.49 0.47 0.42 0.37 0.36 0.35 0.34 0.34 0.33 0.32 0.31 0.32 0.35 0.37 0.35 0.33 0.36
0.25 0.15 0.18 0.19 0.21 0.23 0.26 0.15 0.15 0.21 0.26 0.25 0.25 0.23 0.23 0.26 0.29 0.31 0.34 0.39 0.47 0.60 0.73 0.83 0.89 0.93 0.85 0.84 0.85 0.82 0.79 0.61 0.44 0.39 0.40 0.38 0.37 0.35 0.34 0.34 0.33 0.33 0.32 0.30 0.31 0.33 0.35 0.34 0.34
0.15 0.17 0.14 0.22 0.24 0.25 0.22 0.10 0.17 0.21 0.20 0.20 0.20 0.19 0.19 0.20 0.22 0.24 0.28 0.35 0.41 0.46 0.58 0.76 0.90 0.94 0.95 0.91 0.87 0.85 0.79 0.65 0.49 0.43 0.39 0.39 0.37 0.36 0.34 0.34 0.33 0.35 0.33 0.30 0.30 0.33 0.34 0.35 0.34
0.16 0.13 0.15 0.15 0.19 0.19 0.19 0.12 0.17 0.22 0.21 0.20 0.21 0.22 0.23 0.23 0.25 0.26 0.31 0.29 0.31 0.38 0.42 0.56 0.74 0.93 0.96 0.96 0.95 0.87 0.81 0.70 0.59 0.50 0.44 0.41 0.38 0.36 0.34 0.33 0.34 0.34 0.32 0.31 0.31 0.32 0.36 0.36 0.35
0.13 0.12 0.11 0.11 0.14 0.18 0.19 0.19 0.21 0.23 0.24 0.25 0.27 0.28 0.31 0.32 0.37 0.39 0.39 0.40 0.39 0.39 0.37 0.42 0.52 0.79 0.98 1.01 0.99 0.93 0.81 0.73 0.65 0.55 0.49 0.46 0.41 0.38 0.35 0.34 0.34 0.34 0.33 0.32 0.32 0.31 0.35 0.37 0.37
0.17 0.16 0.16 0.20 0.26 0.25 0.23 0.20 0.17 0.23 0.26 0.28 0.32 0.34 0.35 0.36 0.40 0.41 0.43 0.43 0.43 0.47 0.50 0.53 0.55 0.61 0.83 1.04 0.97 0.92 0.79 0.72 0.67 0.64 0.58 0.51 0.47 0.42 0.39 0.36 0.35 0.35 0.33 0.32 0.33 0.32 0.34 0.36 0.37
0.22 0.20 0.18 0.21 0.25 0.23 0.18 0.18 0.24 0.25 0.31 0.33 0.33 0.33 0.34 0.34 0.35 0.37 0.40 0.42 0.42 0.44 0.49 0.53 0.57 0.60 0.63 0.87 1.04 1.00 0.89 0.80 0.74 0.69 0.65 0.57 0.51 0.48 0.43 0.41 0.39 0.37 0.35 0.34 0.34 0.33 0.33 0.37 0.41
0.21 0.20 0.21 0.20 0.22 0.20 0.23 0.17 0.24 0.31 0.34 0.35 0.34 0.32 0.32 0.31 0.31 0.33 0.35 0.38 0.41 0.43 0.48 0.51 0.55 0.59 0.61 0.64 0.89 0.98 0.94 0.87 0.76 0.69 0.64 0.62 0.58 0.54 0.51 0.48 0.45 0.42 0.40 0.35 0.35 0.36 0.36 0.34 0.39
0.17 0.25 0.23 0.20 0.18 0.13 0.21 0.13 0.20 0.30 0.32 0.33 0.34 0.35 0.34 0.32 0.32 0.34 0.35 0.36 0.38 0.40 0.46 0.48 0.48 0.50 0.56 0.63 0.66 0.87 0.88 0.76 0.78 0.74 0.71 0.68 0.66 0.60 0.58 0.55 0.52 0.48 0.44 0.40 0.39 0.40 0.39 0.40 0.37
0.19 0.25 0.23 0.22 0.20 0.22 0.22 0.23 0.25 0.32 0.31 0.34 0.38 0.37 0.33 0.32 0.35 0.36 0.38 0.39 0.41 0.42 0.45 0.46 0.47 0.50 0.52 0.51 0.60 0.66 0.71 0.93 0.84 0.79 0.73 0.72 0.70 0.67 0.63 0.60 0.58 0.54 0.50 0.46 0.42 0.41 0.41 0.42 0.40
0.31 0.28 0.21 0.18 0.20 0.18 0.26 0.26 0.25 0.30 0.33 0.32 0.30 0.28 0.25 0.26 0.31 0.35 0.38 0.41 0.41 0.44 0.47 0.47 0.48 0.50 0.54 0.54 0.53 0.52 0.63 0.72 0.91 0.84 0.77 0.72 0.70 0.69 0.67 0.65 0.62 0.59 0.56 0.50 0.45 0.44 0.44 0.44 0.43
0.33 0.21 0.12 0.13 0.18 0.16 0.25 0.23 0.27 0.33 0.32 0.27 0.25 0.24 0.25 0.25 0.29 0.32 0.34 0.37 0.39 0.41 0.44 0.47 0.50 0.51 0.55 0.57 0.59 0.54 0.53 0.65 0.76 0.86 0.81 0.74 0.68 0.66 0.66 0.67 0.64 0.62 0.59 0.56 0.50 0.45 0.45 0.45 0.44
0.19 0.22 0.17 0.11 0.12 0.15 0.21 0.16 0.24 0.30 0.27 0.27 0.27 0.27 0.26 0.26 0.29 0.33 0.35 0.34 0.35 0.38 0.41 0.47 0.50 0.50 0.54 0.59 0.64 0.63 0.54 0.55 0.68 0.82 0.86 0.79 0.73 0.68 0.69 0.67 0.68 0.66 0.64 0.60 0.54 0.48 0.46 0.47 0.47
0.22 0.18 0.23 0.20 0.21 0.16 0.15 0.17 0.29 0.25 0.24 0.26 0.26 0.26 0.25 0.25 0.30 0.33 0.34 0.32 0.33 0.35 0.37 0.39 0.43 0.45 0.47 0.51 0.62 0.66 0.64 0.56 0.59 0.72 0.85 0.84 0.80 0.74 0.68 0.67 0.67 0.67 0.66 0.63 0.58 0.49 0.48 0.49 0.49
0.22 0.26 0.15 0.16 0.10 0.09 0.10 0.10 0.12 0.17 0.19 0.22 0.22 0.22 0.21 0.21 0.24 0.26 0.24 0.23 0.27 0.32 0.37 0.47 0.48 0.41 0.37 0.40 0.58 0.63 0.69 0.66 0.61 0.65 0.77 0.82 0.82 0.79 0.72 0.67 0.67 0.67 0.66 0.64 0.60 0.53 0.51 0.51 0.50
0.15 0.15 0.15 0.15 0.14 0.11 0.10 0.11 0.20 0.19 0.21 0.20 0.20 0.19 0.19 0.24 0.29 0.29 0.28 0.29 0.29 0.32 0.38 0.42 0.41 0.40 0.40 0.42 0.50 0.59 0.64 0.72 0.66 0.64 0.71 0.80 0.81 0.77 0.73 0.68 0.67 0.68 0.66 0.65 0.61 0.56 0.53 0.52 0.49
0.19 0.15 0.15 0.14 0.14 0.18 0.18 0.12 0.20 0.21 0.22 0.22 0.22 0.21 0.23 0.28 0.31 0.30 0.30 0.29 0.29 0.35 0.37 0.38 0.39 0.41 0.43 0.49 0.52 0.51 0.62 0.73 0.73 0.67 0.68 0.74 0.77 0.77 0.76 0.71 0.67 0.68 0.67 0.66 0.62 0.55 0.54 0.53 0.47

GFSSGP_prec_pwat_027.txt.gz
Precipitable_Water
1.56 1.61 1.64 1.52 0.98 1.00 0.83 0.92 1.04 0.81 0.78 0.78 0.76 0.60 0.63 0.68 0.56 0.42 1.00 1.03 1.06 1.01 0.98 1.06 1.16 1.19 1.13 1.08 1.07 1.05 1.04 1.03 1.05 1.08 1.07 1.01 0.98 0.94 1.00 1.15 1.21 1.24 1.24 1.27 1.35 1.39 1.40 1.48 1.52
1.55 1.53 1.49 1.21 0.86 0.74 0.77 0.99 0.92 0.88 0.85 0.85 0.77 0.67 0.60 0.58 0.80 0.73 0.81 0.92 1.00 1.02 1.01 0.98 1.13 1.22 1.20 1.16 1.14 1.09 1.03 1.00 0.99 0.92 0.83 0.79 0.82 0.84 0.91 0.98 1.01 1.14 1.19 1.18 1.24 1.30 1.32 1.36 1.48
1.48 1.50 1.12 0.89 0.83 0.70 0.70 0.91 0.96 0.92 0.91 0.84 0.76 0.77 0.63 0.59 0.80 0.75 0.94 0.92 0.99 1.02 1.18 0.99 1.12 1.22 1.20 1.18 1.16 1.11 1.02 0.88 0.83 0.77 0.72 0.71 0.72 0.75 0.78 0.76 0.85 1.02 1.07 1.06 1.09 1.19 1.24 1.27 1.32
1.29 1.26 1.03 0.73 0.69 0.81 0.86 0.95 0.96 0.90 0.91 0.93 0.85 0.62 0.75 0.84 0.80 0.91 0.99 0.95 0.98 1.04 1.18 1.27 1.15 1.13 1.22 1.20 1.17 1.11 1.02 0.85 0.82 0.77 0.70 0.69 0.70 0.70 0.75 0.71 0.66 0.74 0.86 0.95 1.01 1.02 1.11 1.19 1.25
1.12 0.99 0.63 0.61 0.61 0.63 0.78 0.83 0.83 0.73 0.75 0.92 0.91 0.76 0.75 0.87 0.97 1.01 1.00 0.87 0.96 1.11 1.23 1.26 1.27 1.14 1.22 1.27 1.21 1.12 0.99 0.92 0.79 0.74 0.67 0.68 0.67 0.66 0.68 0.69 0.66 0.65 0.71 0.75 0.81 0.88 0.99 1.11 1.17
0.75 0.75 0.41 0.36 0.49 0.56 0.57 0.65 0.70 0.64 0.68 0.81 0.86 0.82 0.81 1.06 1.00 1.00 0.98 0.86 1.03 1.14 1.26 1.27 1.31 1.32 1.11 1.24 1.23 1.14 1.00 0.95 0.77 0.71 0.67 0.66 0.64 0.61 0.60 0.61 0.63 0.64 0.63 0.66 0.68 0.76 0.90 1.05 1.08
0.60 0.53 0.37 0.34 0.33 0.34 0.44 0.53 0.46 0.45 0.49 0.60 0.79 0.70 0.82 0.90 1.01 0.98 0.98 0.99 1.05 1.20 1.24 1.24 1.20 1.21 1.14 1.05 1.21 1.14 1.03 0.93 0.80 0.69 0.65 0.62 0.61 0.59 0.57 0.57 0.57 0.58 0.59 0.62 0.61 0.63 0.77 0.92 0.91
0.66 0.53 0.35 0.32 0.22 0.25 0.40 0.42 0.45 0.40 0.37 0.52 0.56 0.57 0.58 0.76 0.91 0.98 0.99 1.00 1.03 1.16 1.19 1.18 1.15 1.08 1.00 0.94 1.16 1.21 1.06 0.94 0.82 0.68 0.63 0.60 0.58 0.56 0.57 0.53 0.52 0.52 0.52 0.54 0.56 0.56 0.60 0.72 0.85
0.61 0.31 0.27 0.20 0.23 0.25 0.31 0.30 0.34 0.35 0.34 0.37 0.37 0.44 0.50 0.66 0.85 0.87 0.86 0.91 1.01 1.05 1.08 1.10 1.05 1.02 1.02 1.03 0.97 1.23 1.14 0.97 0.85 0.70 0.61 0.56 0.53 0.57 0.57 0.49 0.47 0.47 0.47 0.47 0.47 0.47 0.51 0.56 0.66
0.41 0.30 0.22 0.24 0.24 0.22 0.22 0.21 0.21 0.19 0.18 0.19 0.24 0.35 0.52 0.64 0.70 0.72 0.73 0.74 0.83 0.83 0.88 0.95 0.98 1.00 1.01 1.03 0.99 1.01 1.18 1.04 0.87 0.71 0.60 0.54 0.54 0.54 0.52 0.46 0.43 0.39 0.37 0.37 0.39 0.41 0.43 0.48 0.52
0.36 0.23 0.25 0.21 0.21 0.22 0.20 0.20 0.23 0.20 0.14 0.17 0.21 0.28 0.40 0.53 0.64 0.67 0.69 0.76 0.76 0.82 0.85 0.91 0.95 1.00 1.03 1.01 1.01 0.94 0.99 1.00 0.88 0.69 0.58 0.59 0.56 0.54 0.51 0.40 0.38 0.34 0.36 0.34 0.36 0.36 0.35 0.39 0.42
0.27 0.26 0.24 0.22 0.25 0.24 0.20 0.23 0.18 0.20 0.17 0.21 0.23 0.28 0.31 0.44 0.50 0.58 0.65 0.72 0.77 0.88 0.91 0.93 1.01 1.01 1.04 1.06 1.00 0.93 0.88 0.94 0.84 0.70 0.60 0.57 0.50 0.48 0.44 0.37 0.35 0.31 0.34 0.31 0.33 0.31 0.30 0.31 0.32
0.21 0.20 0.23 0.24 0.23 0.23 0.22 0.18 0.20 0.19 0.22 0.25 0.26 0.27 0.27 0.30 0.43 0.51 0.54 0.65 0.77 0.82 0.95 0.97 0.98 1.01 1.03 1.01 1.02 0.98 0.90 0.84 0.78 0.72 0.66 0.55 0.49 0.41 0.39 0.36 0.36 0.33 0.32 0.29 0.29 0.29 0.30 0.29 0.28
0.21 0.22 0.20 0.18 0.15 0.21 0.19 0.19 0.23 0.20 0.24 0.24 0.26 0.28 0.29 0.30 0.31 0.34 0.38 0.47 0.63 0.68 0.74 0.95 0.96 0.96 1.02 1.02 0.99 0.96 0.93 0.86 0.77 0.64 0.64 0.57 0.50 0.42 0.37 0.35 0.34 0.32 0.32 0.31 0.29 0.28 0.29 0.29 0.29
0.23 0.15 0.15 0.19 0.23 0.23 0.24 0.18 0.17 0.19 0.23 0.22 0.27 0.27 0.26 0.25 0.30 0.36 0.38 0.41 0.44 0.48 0.60 0.79 0.88 0.96 0.96 1.00 1.01 1.00 0.93 0.86 0.75 0.64 0.57 0.52 0.49 0.43 0.38 0.34 0.33 0.32 0.32 0.31 0.29 0.28 0.29 0.29 0.30
0.15 0.17 0.13 0.20 0.24 0.23 0.21 0.11 0.17 0.20 0.22 0.20 0.22 0.23 0.24 0.32 0.35 0.38 0.39 0.39 0.42 0.48 0.55 0.75 0.80 0.83 0.93 0.98 1.00 0.96 0.95 0.87 0.80 0.69 0.63 0.54 0.48 0.44 0.40 0.36 0.33 0.33 0.32 0.31 0.28 0.26 0.26 0.27 0.29
0.18 0.12 0.13 0.14 0.19 0.19 0.21 0.15 0.21 0.27 0.26 0.25 0.27 0.30 0.34 0.34 0.35 0.37 0.39 0.40 0.41 0.46 0.53 0.59 0.69 0.97 0.99 0.90 1.00 1.00 0.97 0.92 0.85 0.79 0.68 0.61 0.53 0.49 0.45 0.41 0.37 0.36 0.33 0.30 0.29 0.28 0.27 0.26 0.29
0.12 0.13 0.15 0.14 0.19 0.25 0.22 0.20 0.22 0.23 0.26 0.29 0.32 0.34 0.33 0.33 0.35 0.40 0.41 0.42 0.43 0.45 0.50 0.55 0.59 0.67 0.94 1.18 1.15 1.03 1.04 0.99 0.93 0.83 0.76 0.67 0.62 0.56 0.50 0.46 0.42 0.39 0.34 0.31 0.30 0.28 0.30 0.29 0.30
0.21 0.19 0.18 0.20 0.24 0.23 0.21 0.19 0.19 0.28 0.30 0.30 0.30 0.29 0.31 0.33 0.38 0.40 0.41 0.41 0.42 0.45 0.46 0.48 0.51 0.57 0.66 0.82 1.00 1.07 1.04 0.98 0.94 0.86 0.80 0.76 0.71 0.63 0.55 0.51 0.46 0.42 0.36 0.32 0.32 0.31 0.28 0.28 0.32
0.22 0.19 0.17 0.20 0.25 0.23 0.19 0.18 0.27 0.28 0.29 0.30 0.30 0.31 0.33 0.34 0.36 0.39 0.40 0.41 0.41 0.42 0.45 0.46 0.48 0.52 0.58 0.62 0.73 0.86 1.03 1.05 1.08 0.97 0.88 0.80 0.76 0.76 0.66 0.58 0.51 0.46 0.41 0.38 0.36 0.33 0.29 0.29 0.32
0.19 0.18 0.18 0.19 0.22 0.21 0.20 0.18 0.25 0.29 0.32 0.34 0.33 0.33 0.33 0.32 0.32 0.33 0.36 0.39 0.41 0.41 0.45 0.47 0.48 0.51 0.56 0.58 0.60 0.61 0.80 0.92 0.93 1.00 0.93 0.85 0.81 0.77 0.77 0.71 0.61 0.53 0.48 0.42 0.41 0.38 0.33 0.28 0.33
0.15 0.23 0.22 0.20 0.19 0.13 0.24 0.15 0.24 0.30 0.31 0.31 0.29 0.30 0.32 0.33 0.33 0.34 0.35 0.37 0.39 0.40 0.43 0.47 0.48 0.50 0.52 0.55 0.56 0.56 0.55 0.65 0.81 0.90 0.89 0.91 0.86 0.80 0.77 0.73 0.72 0.63 0.56 0.49 0.47 0.46 0.40 0.35 0.30
0.20 0.27 0.26 0.24 0.20 0.21 0.24 0.23 0.26 0.32 0.25 0.25 0.26 0.28 0.28 0.32 0.34 0.35 0.37 0.38 0.39 0.40 0.39 0.41 0.47 0.49 0.52 0.51 0.51 0.52 0.56 0.58 0.60 0.73 0.89 0.91 0.86 0.83 0.80 0.76 0.74 0.73 0.66 0.59 0.54 0.52 0.47 0.42 0.36
0.32 0.26 0.20 0.19 0.20 0.15 0.21 0.23 0.25 0.28 0.24 0.26 0.28 0.29 0.29 0.30 0.35 0.37 0.40 0.40 0.40 0.41 0.39 0.41 0.41 0.45 0.51 0.50 0.51 0.53 0.53 0.57 0.56 0.56 0.65 0.78 0.85 0.82 0.81 0.80 0.75 0.74 0.75 0.69 0.63 0.59 0.54 0.49 0.43
0.25 0.17 0.11 0.13 0.14 0.14 0.24 0.22 0.24 0.26 0.28 0.28 0.28 0.29 0.29 0.29 0.34 0.34 0.35 0.35 0.37 0.39 0.37 0.39 0.39 0.43 0.46 0.46 0.44 0.42 0.52 0.58 0.58 0.58 0.56 0.67 0.75 0.82 0.78 0.80 0.77 0.74 0.75 0.76 0.72 0.64 0.59 0.55 0.47
0.21 0.21 0.13 0.09 0.10 0.13 0.18 0.14 0.20 0.26 0.29 0.29 0.29 0.29 0.27 0.27 0.31 0.31 0.32 0.32 0.33 0.33 0.32 0.31 0.35 0.39 0.36 0.34 0.34 0.35 0.42 0.49 0.58 0.61 0.62 0.58 0.68 0.79 0.86 0.82 0.80 0.78 0.76 0.75 0.75 0.70 0.64 0.59 0.53
0.18 0.14 0.20 0.15 0.17 0.13 0.14 0.18 0.21 0.23 0.25 0.26 0.26 0.27 0.27 0.26 0.29 0.30 0.33 0.33 0.32 0.29 0.28 0.32 0.36 0.34 0.33 0.30 0.34 0.35 0.41 0.45 0.45 0.52 0.61 0.64 0.62 0.73 0.82 0.85 0.82 0.79 0.76 0.75 0.72 0.71 0.66 0.61 0.57
0.18 0.22 0.15 0.15 0.09 0.09 0.11 0.14 0.16 0.20 0.23 0.26 0.26 0.26 0.26 0.26 0.28 0.29 0.29 0.28 0.26 0.24 0.25 0.28 0.32 0.33 0.34 0.35 0.34 0.39 0.45 0.45 0.45 0.47 0.50 0.62 0.62 0.68 0.79 0.81 0.82 0.79 0.77 0.75 0.71 0.69 0.69 0.63 0.59
0.15 0.17 0.18 0.16 0.15 0.10 0.09 0.11 0.18 0.20 0.22 0.22 0.21 0.19 0.21 0.24 0.26 0.26 0.28 0.30 0.29 0.30 0.32 0.34 0.34 0.32 0.32 0.34 0.41 0.43 0.45 0.47 0.48 0.52 0.54 0.61 0.66 0.68 0.77 0.83 0.83 0.80 0.76 0.76 0.72 0.70 0.69 0.63 0.59
0.22 0.18 0.17 0.13 0.12 0.16 0.15 0.12 0.23 0.23 0.22 0.21 0.21 0.22 0.24 0.28 0.31 0.32 0.32 0.31 0.31 0.32 0.33 0.34 0.34 0.34 0.33 0.38 0.41 0.39 0.43 0.46 0.50 0.54 0.54 0.55 0.71 0.71 0.72 0.80 0.85 0.82 0.76 0.73 0.73 0.71 0.69 0.63 0.60

GFSSGP_prec_pwat_030.txt.gz
Precipitable_Water
1.55 1.61 1.61 1.48 0.96 0.90 0.75 0.86 1.00 0.79 0.74 0.80 0.74 0.59 0.52 0.59 0.51 0.35 0.85 0.97 1.06 0.99 1.06 1.16 1.20 1.17 1.10 1.08 1.09 1.06 1.04 1.05 1.08 1.09 1.02 0.95 0.92 0.94 1.05 1.13 1.13 1.13 1.19 1.27 1.30 1.32 1.37 1.39 1.36
1.53 1.51 1.45 1.18 0.81 0.67 0.68 0.93 0.88 0.86 0.85 0.88 0.80 0.69 0.56 0.48 0.73 0.73 0.73 0.91 1.01 1.03 1.03 1.05 1.15 1.16 1.09 1.05 1.02 1.04 1.03 1.02 1.01 0.96 0.86 0.82 0.80 0.88 0.95 1.00 1.05 1.07 1.08 1.14 1.22 1.25 1.30 1.33 1.33
1.43 1.44 1.00 0.90 0.79 0.64 0.69 0.89 0.91 0.95 0.91 0.82 0.80 0.81 0.67 0.61 0.77 0.77 0.89 0.91 0.99 1.02 1.06 1.05 1.10 1.21 1.15 1.11 1.10 1.05 0.99 0.95 0.89 0.79 0.70 0.70 0.72 0.78 0.79 0.85 0.95 1.01 1.00 1.03 1.13 1.18 1.20 1.26 1.29
1.22 1.22 1.00 0.75 0.57 0.65 0.74 0.84 0.94 0.87 0.86 0.85 0.87 0.71 0.83 0.91 0.80 0.87 0.94 0.94 0.89 0.98 1.11 1.06 1.11 1.17 1.25 1.18 1.13 1.07 0.96 0.85 0.80 0.76 0.70 0.68 0.71 0.73 0.70 0.71 0.81 0.81 0.89 0.91 0.98 1.06 1.14 1.21 1.21
1.12 0.93 0.55 0.55 0.54 0.55 0.63 0.79 0.78 0.71 0.67 0.72 0.82 0.73 0.76 0.93 1.00 0.95 0.92 0.97 0.90 0.93 1.09 1.20 1.31 1.20 1.12 1.23 1.20 1.12 0.97 0.85 0.82 0.76 0.69 0.67 0.67 0.68 0.68 0.64 0.68 0.74 0.76 0.80 0.82 0.92 1.03 1.15 1.15
0.74 0.72 0.36 0.31 0.42 0.51 0.52 0.56 0.60 0.54 0.56 0.63 0.69 0.71 0.75 1.04 1.02 1.00 1.00 0.97 1.02 0.98 1.14 1.25 1.28 1.31 1.24 1.16 1.24 1.16 1.04 0.90 0.82 0.75 0.69 0.67 0.65 0.65 0.63 0.62 0.60 0.63 0.67 0.71 0.72 0.85 1.05 1.09 1.11
0.62 0.52 0.35 0.32 0.27 0.30 0.43 0.53 0.47 0.43 0.37 0.35 0.57 0.52 0.69 0.86 0.97 0.94 0.95 1.01 1.06 1.11 1.14 1.20 1.26 1.22 1.22 1.24 1.11 1.22 1.09 0.99 0.87 0.78 0.69 0.67 0.64 0.64 0.62 0.60 0.59 0.59 0.60 0.62 0.67 0.77 0.89 0.96 1.03
0.68 0.54 0.36 0.32 0.21 0.17 0.31 0.33 0.38 0.36 0.37 0.41 0.47 0.39 0.48 0.68 0.91 0.96 1.00 1.02 1.07 1.14 1.18 1.18 1.24 1.22 1.08 1.04 1.02 1.12 1.16 1.03 0.91 0.83 0.72 0.64 0.62 0.60 0.62 0.60 0.58 0.56 0.56 0.57 0.58 0.64 0.77 0.82 0.91
0.63 0.36 0.29 0.23 0.21 0.21 0.25 0.22 0.26 0.27 0.20 0.22 0.32 0.35 0.41 0.60 0.88 0.93 0.94 1.01 1.11 1.19 1.22 1.25 1.20 1.14 1.07 1.04 1.02 0.99 1.14 1.09 0.95 0.86 0.78 0.66 0.58 0.60 0.61 0.54 0.55 0.53 0.51 0.51 0.52 0.54 0.58 0.67 0.81
0.43 0.32 0.24 0.25 0.26 0.20 0.21 0.21 0.21 0.19 0.16 0.15 0.18 0.27 0.44 0.55 0.70 0.70 0.79 0.84 0.95 1.02 1.10 1.18 1.14 1.05 1.02 1.02 1.08 1.10 1.00 1.12 1.05 0.91 0.79 0.68 0.55 0.58 0.58 0.52 0.52 0.49 0.47 0.45 0.44 0.45 0.46 0.50 0.63
0.40 0.27 0.26 0.24 0.23 0.24 0.21 0.20 0.24 0.19 0.13 0.17 0.17 0.21 0.28 0.48 0.60 0.66 0.75 0.80 0.81 0.92 1.03 1.07 1.10 1.12 1.08 1.04 1.04 1.09 1.07 0.95 1.01 0.95 0.83 0.72 0.62 0.57 0.57 0.47 0.46 0.40 0.39 0.36 0.37 0.36 0.37 0.41 0.46
0.29 0.28 0.26 0.23 0.24 0.23 0.21 0.23 0.19 0.19 0.19 0.24 0.25 0.28 0.27 0.35 0.50 0.62 0.67 0.69 0.75 0.82 0.89 1.05 1.14 1.14 1.14 1.13 1.08 1.04 1.02 1.00 0.93 0.94 0.86 0.74 0.69 0.61 0.53 0.43 0.38 0.35 0.37 0.32 0.32 0.29 0.30 0.33 0.34
0.21 0.22 0.23 0.24 0.23 0.21 0.20 0.17 0.20 0.21 0.24 0.27 0.29 0.30 0.33 0.33 0.39 0.55 0.63 0.76 0.88 0.82 0.83 0.92 1.10 1.13 1.16 1.15 1.16 1.13 1.07 1.00 0.92 0.85 0.78 0.73 0.71 0.67 0.60 0.47 0.38 0.33 0.35 0.34 0.32 0.29 0.27 0.26 0.27
0.23 0.22 0.20 0.19 0.21 0.23 0.21 0.21 0.24 0.22 0.24 0.23 0.27 0.30 0.33 0.33 0.35 0.37 0.43 0.51 0.61 0.72 0.87 1.01 1.12 1.07 1.14 1.06 1.08 1.06 1.08 1.05 1.00 0.91 0.79 0.69 0.62 0.66 0.62 0.51 0.41 0.37 0.35 0.33 0.32 0.29 0.27 0.26 0.26
0.21 0.15 0.15 0.21 0.23 0.21 0.23 0.17 0.17 0.22 0.23 0.24 0.26 0.30 0.32 0.34 0.35 0.33 0.37 0.40 0.45 0.50 0.67 0.75 0.91 1.18 1.29 1.06 1.02 1.08 1.10 1.10 1.03 0.96 0.89 0.82 0.72 0.62 0.57 0.52 0.45 0.40 0.37 0.34 0.33 0.31 0.30 0.27 0.27
0.17 0.17 0.12 0.18 0.19 0.22 0.20 0.12 0.20 0.28 0.28 0.28 0.31 0.32 0.32 0.33 0.35 0.37 0.40 0.41 0.43 0.44 0.49 0.61 0.74 0.89 1.07 1.22 1.29 1.30 1.20 1.07 1.03 0.99 0.94 0.89 0.82 0.74 0.63 0.52 0.45 0.42 0.39 0.35 0.32 0.30 0.28 0.27 0.26
0.17 0.11 0.13 0.14 0.20 0.23 0.23 0.18 0.28 0.31 0.30 0.29 0.30 0.31 0.32 0.34 0.36 0.39 0.41 0.43 0.45 0.45 0.45 0.49 0.58 0.64 0.84 1.01 1.12 1.24 1.23 1.21 1.19 1.09 0.99 0.92 0.88 0.80 0.74 0.63 0.53 0.46 0.42 0.37 0.34 0.31 0.29 0.27 0.26
0.12 0.14 0.17 0.17 0.22 0.23 0.19 0.21 0.25 0.27 0.27 0.25 0.27 0.30 0.32 0.34 0.35 0.40 0.42 0.43 0.46 0.48 0.47 0.48 0.54 0.61 0.67 0.80 0.88 0.98 1.12 1.19 1.16 1.10 1.08 0.95 0.87 0.84 0.80 0.75 0.67 0.57 0.47 0.42 0.38 0.33 0.32 0.29 0.28
0.23 0.20 0.18 0.20 0.24 0.21 0.21 0.21 0.22 0.26 0.28 0.28 0.29 0.30 0.31 0.32 0.36 0.39 0.41 0.42 0.43 0.45 0.48 0.48 0.50 0.54 0.60 0.63 0.67 0.70 0.83 1.05 1.10 1.08 1.04 0.97 1.07 0.93 0.84 0.82 0.77 0.73 0.60 0.49 0.44 0.38 0.34 0.32 0.33
0.22 0.18 0.16 0.19 0.23 0.21 0.19 0.19 0.24 0.26 0.26 0.27 0.28 0.29 0.30 0.31 0.34 0.38 0.40 0.41 0.41 0.41 0.44 0.47 0.49 0.51 0.54 0.59 0.64 0.69 0.75 0.86 0.91 1.01 1.06 0.98 0.90 0.97 1.03 0.86 0.81 0.79 0.74 0.65 0.51 0.43 0.37 0.36 0.37
0.19 0.16 0.18 0.17 0.21 0.22 0.21 0.20 0.23 0.26 0.25 0.26 0.29 0.31 0.32 0.33 0.34 0.36 0.37 0.39 0.41 0.40 0.42 0.42 0.45 0.48 0.52 0.53 0.55 0.57 0.62 0.69 0.76 0.80 0.87 0.96 0.99 0.85 0.88 0.97 0.88 0.83 0.81 0.73 0.64 0.52 0.43 0.37 0.39
0.17 0.25 0.23 0.21 0.20 0.13 0.24 0.12 0.24 0.23 0.23 0.25 0.26 0.27 0.30 0.32 0.35 0.35 0.35 0.36 0.39 0.39 0.39 0.42 0.42 0.45 0.52 0.51 0.50 0.49 0.49 0.52 0.59 0.63 0.73 0.78 0.88 0.94 0.84 0.80 0.82 0.82 0.82 0.80 0.76 0.67 0.54 0.45 0.39
0.23 0.29 0.24 0.21 0.19 0.19 0.19 0.18 0.23 0.23 0.22 0.24 0.26 0.27 0.28 0.33 0.35 0.36 0.37 0.38 0.41 0.41 0.40 0.41 0.41 0.45 0.51 0.52 0.48 0.46 0.44 0.46 0.53 0.56 0.56 0.60 0.70 0.79 0.92 0.84 0.83 0.80 0.79 0.80 0.81 0.77 0.67 0.56 0.47
0.28 0.23 0.17 0.20 0.19 0.12 0.16 0.18 0.19 0.22 0.22 0.23 0.26 0.28 0.29 0.30 0.35 0.37 0.38 0.40 0.41 0.41 0.40 0.39 0.40 0.43 0.46 0.46 0.45 0.44 0.43 0.42 0.43 0.44 0.45 0.50 0.54 0.60 0.68 0.83 0.83 0.78 0.76 0.76 0.79 0.81 0.77 0.68 0.58
0.22 0.17 0.09 0.10 0.11 0.10 0.20 0.19 0.20 0.24 0.26 0.26 0.27 0.28 0.28 0.29 0.33 0.34 0.35 0.37 0.38 0.36 0.36 0.36 0.36 0.35 0.39 0.40 0.41 0.42 0.43 0.44 0.45 0.43 0.44 0.44 0.45 0.48 0.57 0.62 0.73 0.78 0.75 0.77 0.80 0.81 0.78 0.74 0.67
0.18 0.18 0.11 0.07 0.08 0.11 0.18 0.13 0.16 0.22 0.25 0.27 0.28 0.27 0.28 0.27 0.31 0.32 0.33 0.33 0.32 0.32 0.32 0.33 0.30 0.29 0.30 0.31 0.29 0.28 0.33 0.36 0.42 0.44 0.42 0.43 0.44 0.48 0.52 0.59 0.64 0.74 0.77 0.75 0.80 0.80 0.81 0.76 0.73
0.16 0.14 0.20 0.15 0.17 0.13 0.14 0.16 0.19 0.22 0.23 0.25 0.26 0.27 0.27 0.28 0.31 0.33 0.33 0.33 0.32 0.31 0.31 0.31 0.30 0.29 0.29 0.29 0.29 0.27 0.31 0.37 0.39 0.41 0.41 0.41 0.44 0.49 0.48 0.56 0.59 0.66 0.75 0.78 0.79 0.82 0.82 0.79 0.75
0.19 0.22 0.15 0.16 0.10 0.09 0.11 0.13 0.14 0.18 0.21 0.25 0.26 0.27 0.28 0.28 0.30 0.30 0.31 0.30 0.29 0.28 0.30 0.30 0.31 0.31 0.32 0.32 0.31 0.28 0.28 0.31 0.31 0.33 0.37 0.44 0.47 0.48 0.47 0.52 0.58 0.63 0.72 0.77 0.80 0.81 0.84 0.79 0.74
0.16 0.16 0.20 0.19 0.16 0.11 0.09 0.10 0.18 0.20 0.23 0.23 0.23 0.25 0.24 0.22 0.26 0.27 0.27 0.29 0.31 0.33 0.35 0.36 0.34 0.32 0.29 0.32 0.33 0.32 0.29 0.29 0.34 0.34 0.36 0.48 0.50 0.47 0.50 0.51 0.59 0.61 0.69 0.78 0.79 0.81 0.81 0.80 0.74
0.21 0.18 0.18 0.13 0.12 0.16 0.15 0.12 0.20 0.21 0.22 0.23 0.22 0.22 0.22 0.25 0.29 0.32 0.33 0.34 0.34 0.34 0.36 0.36 0.36 0.35 0.35 0.38 0.36 0.32 0.30 0.32 0.34 0.33 0.37 0.45 0.49 0.50 0.53 0.55 0.55 0.66 0.70 0.77 0.79 0.79 0.83 0.79 0.73

GFSSGP_prec_pwat_033.txt.gz
Precipitable_Water
1.57 1.61 1.59 1.46 0.90 0.87 0.73 0.81 0.95 0.78 0.72 0.80 0.76 0.61 0.51 0.52 0.42 0.31 0.89 0.93 0.94 0.95 1.11 1.13 1.18 1.15 1.13 1.12 1.11 1.06 1.06 1.07 1.10 1.09 1.01 0.94 0.92 0.98 1.09 1.08 1.07 1.16 1.23 1.22 1.28 1.31 1.33 1.32 1.32
1.48 1.43 1.39 1.17 0.75 0.63 0.66 0.87 0.86 0.89 0.84 0.83 0.80 0.76 0.64 0.53 0.71 0.71 0.74 0.96 0.95 0.98 1.04 1.08 1.17 1.20 1.14 1.09 1.06 1.03 1.01 1.03 1.07 1.03 0.91 0.85 0.85 0.91 0.98 1.02 1.06 1.07 1.11 1.16 1.18 1.26 1.26 1.28 1.37
1.39 1.38 0.98 0.86 0.68 0.57 0.65 0.87 0.89 0.88 0.90 0.80 0.74 0.84 0.74 0.65 0.83 0.76 0.83 0.97 0.98 0.96 0.99 1.04 1.10 1.20 1.18 1.13 1.09 1.07 1.05 1.01 0.98 0.88 0.76 0.73 0.80 0.84 0.87 0.95 0.93 1.00 1.08 1.12 1.14 1.18 1.22 1.22 1.31
1.19 1.15 1.02 0.67 0.51 0.60 0.61 0.79 0.87 0.78 0.81 0.83 0.76 0.62 0.80 0.96 0.88 0.93 1.00 1.09 0.99 0.97 1.02 1.12 1.07 1.16 1.21 1.15 1.17 1.12 1.05 0.97 0.87 0.75 0.69 0.68 0.75 0.76 0.74 0.85 0.91 0.89 0.90 0.97 1.08 1.12 1.18 1.19 1.23
1.10 0.86 0.52 0.49 0.50 0.52 0.58 0.66 0.72 0.63 0.65 0.65 0.68 0.57 0.68 0.90 1.05 1.06 1.01 1.02 0.95 0.99 1.03 1.07 1.15 1.22 1.17 1.25 1.21 1.16 1.07 0.92 0.85 0.78 0.70 0.69 0.74 0.74 0.69 0.72 0.78 0.80 0.82 0.87 0.94 1.05 1.14 1.15 1.20
0.78 0.69 0.34 0.30 0.39 0.43 0.49 0.53 0.57 0.47 0.51 0.48 0.47 0.55 0.64 0.92 0.96 1.01 1.00 0.99 1.02 0.98 1.06 1.10 1.19 1.28 1.28 1.17 1.18 1.21 1.12 0.97 0.91 0.83 0.74 0.68 0.70 0.73 0.68 0.66 0.69 0.73 0.74 0.77 0.82 0.94 1.08 1.13 1.16
0.65 0.52 0.35 0.31 0.26 0.21 0.33 0.43 0.42 0.40 0.36 0.37 0.45 0.34 0.52 0.72 0.92 1.00 1.00 1.09 1.08 1.11 1.16 1.14 1.20 1.25 1.23 1.24 1.30 1.14 1.18 1.02 0.95 0.88 0.78 0.70 0.67 0.69 0.67 0.65 0.63 0.65 0.67 0.70 0.73 0.85 1.10 1.14 1.11
0.70 0.54 0.38 0.33 0.24 0.18 0.27 0.28 0.33 0.28 0.22 0.28 0.41 0.31 0.31 0.48 0.85 1.00 1.02 1.05 1.12 1.17 1.21 1.21 1.26 1.28 1.26 1.19 1.11 1.14 1.09 1.12 0.97 0.91 0.85 0.74 0.67 0.67 0.68 0.66 0.64 0.63 0.63 0.63 0.66 0.77 0.94 0.98 1.05
0.65 0.39 0.33 0.28 0.23 0.22 0.25 0.19 0.23 0.26 0.20 0.19 0.21 0.26 0.37 0.47 0.83 0.89 0.86 0.96 1.07 1.15 1.20 1.24 1.25 1.30 1.27 1.17 1.08 1.06 0.99 1.03 1.06 0.99 0.90 0.81 0.68 0.62 0.66 0.63 0.62 0.62 0.61 0.60 0.59 0.63 0.72 0.79 0.85
0.46 0.32 0.27 0.28 0.27 0.22 0.22 0.22 0.22 0.21 0.17 0.17 0.19 0.24 0.31 0.44 0.66 0.72 0.72 0.74 0.87 0.96 1.06 1.15 1.22 1.26 1.29 1.22 1.15 1.05 1.04 1.04 0.99 1.05 0.97 0.87 0.73 0.60 0.61 0.57 0.58 0.59 0.58 0.56 0.54 0.52 0.53 0.61 0.71
0.43 0.31 0.29 0.26 0.26 0.26 0.22 0.21 0.26 0.20 0.16 0.20 0.21 0.24 0.28 0.35 0.61 0.75 0.81 0.91 1.00 1.16 1.13 1.09 1.16 1.25 1.26 1.23 1.21 1.19 1.14 1.05 0.98 0.89 0.96 0.93 0.82 0.69 0.64 0.56 0.52 0.51 0.51 0.47 0.47 0.43 0.41 0.43 0.55
0.33 0.31 0.28 0.25 0.25 0.23 0.20 0.22 0.19 0.22 0.20 0.28 0.30 0.32 0.33 0.32 0.41 0.59 0.70 0.78 0.83 0.94 1.15 1.36 1.47 1.37 1.31 1.26 1.22 1.22 1.17 1.13 1.06 0.93 0.84 0.80 0.80 0.76 0.69 0.61 0.47 0.41 0.39 0.36 0.38 0.35 0.35 0.36 0.40
0.22 0.22 0.24 0.25 0.22 0.21 0.23 0.21 0.21 0.22 0.28 0.32 0.32 0.33 0.32 0.33 0.35 0.43 0.53 0.61 0.70 0.80 0.86 0.98 1.31 1.41 1.41 1.38 1.30 1.23 1.19 1.17 1.18 1.11 1.01 0.88 0.73 0.66 0.72 0.70 0.57 0.42 0.37 0.36 0.33 0.33 0.30 0.31 0.29
0.23 0.22 0.20 0.18 0.23 0.25 0.21 0.22 0.24 0.27 0.30 0.29 0.30 0.31 0.33 0.34 0.35 0.35 0.37 0.40 0.47 0.56 0.67 0.77 0.90 1.18 1.34 1.37 1.36 1.38 1.37 1.32 1.31 1.25 1.12 1.01 0.89 0.80 0.73 0.64 0.60 0.52 0.41 0.36 0.34 0.33 0.30 0.28 0.27
0.22 0.14 0.16 0.20 0.20 0.21 0.23 0.17 0.20 0.29 0.31 0.29 0.29 0.31 0.32 0.34 0.35 0.36 0.39 0.38 0.40 0.45 0.53 0.64 0.71 0.94 1.21 1.28 1.31 1.37 1.40 1.40 1.36 1.31 1.28 1.20 1.04 0.92 0.86 0.79 0.65 0.54 0.47 0.41 0.37 0.34 0.32 0.29 0.28
0.18 0.18 0.11 0.18 0.18 0.22 0.22 0.15 0.25 0.33 0.32 0.31 0.32 0.34 0.34 0.35 0.36 0.39 0.41 0.43 0.44 0.45 0.47 0.52 0.58 0.70 0.82 1.03 1.22 1.29 1.35 1.40 1.43 1.42 1.39 1.29 1.18 1.07 0.97 0.92 0.83 0.71 0.57 0.45 0.38 0.34 0.32 0.30 0.29
0.15 0.10 0.12 0.15 0.22 0.25 0.25 0.20 0.27 0.32 0.29 0.27 0.27 0.28 0.29 0.31 0.33 0.36 0.38 0.40 0.43 0.46 0.47 0.49 0.52 0.55 0.67 0.78 0.84 0.99 1.11 1.21 1.29 1.36 1.38 1.37 1.23 1.12 1.04 0.99 0.95 0.85 0.73 0.61 0.47 0.39 0.35 0.31 0.30
0.11 0.13 0.18 0.18 0.22 0.23 0.21 0.21 0.25 0.27 0.26 0.26 0.27 0.27 0.28 0.30 0.32 0.36 0.37 0.38 0.40 0.43 0.46 0.47 0.51 0.54 0.57 0.62 0.71 0.80 0.90 0.95 1.05 1.09 1.19 1.27 1.24 1.11 1.08 1.07 0.95 0.91 0.82 0.74 0.68 0.55 0.43 0.37 0.33
0.23 0.20 0.17 0.19 0.24 0.22 0.20 0.19 0.21 0.24 0.25 0.25 0.26 0.27 0.29 0.31 0.34 0.36 0.37 0.38 0.38 0.40 0.42 0.43 0.45 0.50 0.52 0.55 0.58 0.63 0.65 0.80 0.88 0.96 1.05 1.09 1.07 1.06 1.06 0.95 0.93 1.08 0.82 0.80 0.78 0.70 0.58 0.46 0.40
0.21 0.17 0.15 0.19 0.25 0.22 0.20 0.18 0.22 0.24 0.25 0.26 0.27 0.28 0.30 0.31 0.32 0.34 0.37 0.37 0.37 0.37 0.39 0.39 0.42 0.47 0.49 0.50 0.53 0.55 0.57 0.64 0.73 0.87 0.95 1.00 1.04 1.03 0.96 0.85 0.82 0.81 0.91 0.93 0.78 0.76 0.70 0.61 0.50
0.19 0.16 0.18 0.19 0.24 0.25 0.22 0.19 0.20 0.22 0.23 0.26 0.28 0.29 0.30 0.30 0.30 0.32 0.33 0.36 0.37 0.36 0.37 0.38 0.38 0.43 0.46 0.48 0.49 0.47 0.48 0.49 0.51 0.58 0.67 0.84 0.96 1.00 0.98 0.96 0.92 0.79 0.79 0.82 0.91 0.79 0.75 0.70 0.62
0.17 0.25 0.24 0.21 0.19 0.12 0.24 0.12 0.18 0.19 0.20 0.22 0.24 0.25 0.28 0.30 0.32 0.33 0.34 0.35 0.37 0.38 0.38 0.38 0.40 0.42 0.43 0.44 0.44 0.45 0.44 0.41 0.46 0.48 0.50 0.54 0.60 0.67 0.79 0.87 0.92 0.88 0.83 0.74 0.69 0.81 0.78 0.76 0.69
0.23 0.28 0.24 0.22 0.17 0.16 0.17 0.15 0.19 0.20 0.19 0.21 0.23 0.25 0.26 0.30 0.33 0.34 0.35 0.37 0.39 0.40 0.39 0.41 0.41 0.41 0.43 0.42 0.42 0.42 0.41 0.43 0.47 0.47 0.47 0.47 0.47 0.49 0.56 0.63 0.77 0.82 0.83 0.85 0.72 0.69 0.77 0.76 0.74
0.27 0.21 0.17 0.20 0.18 0.11 0.15 0.16 0.16 0.18 0.20 0.22 0.25 0.26 0.27 0.28 0.30 0.34 0.35 0.36 0.37 0.39 0.39 0.40 0.41 0.41 0.41 0.42 0.42 0.39 0.36 0.38 0.40 0.44 0.49 0.47 0.48 0.48 0.49 0.51 0.56 0.64 0.73 0.77 0.83 0.75 0.74 0.75 0.73
0.21 0.15 0.08 0.09 0.11 0.09 0.20 0.18 0.18 0.23 0.24 0.25 0.25 0.25 0.27 0.28 0.27 0.30 0.31 0.32 0.32 0.32 0.32 0.32 0.34 0.32 0.34 0.33 0.32 0.33 0.32 0.35 0.40 0.47 0.46 0.44 0.44 0.45 0.48 0.50 0.47 0.50 0.58 0.66 0.76 0.82 0.75 0.72 0.72
0.17 0.17 0.11 0.07 0.08 0.11 0.17 0.12 0.16 0.22 0.24 0.25 0.25 0.25 0.26 0.26 0.27 0.29 0.31 0.31 0.31 0.31 0.31 0.32 0.31 0.30 0.31 0.31 0.30 0.30 0.30 0.30 0.33 0.34 0.36 0.37 0.38 0.41 0.49 0.50 0.48 0.49 0.52 0.56 0.64 0.72 0.78 0.75 0.69
0.16 0.14 0.20 0.14 0.16 0.13 0.14 0.17 0.19 0.21 0.21 0.23 0.23 0.24 0.25 0.26 0.26 0.29 0.31 0.31 0.31 0.31 0.31 0.31 0.31 0.32 0.32 0.32 0.31 0.31 0.31 0.29 0.28 0.27 0.28 0.33 0.33 0.37 0.46 0.48 0.46 0.48 0.49 0.54 0.56 0.62 0.70 0.76 0.71
0.19 0.22 0.15 0.15 0.10 0.09 0.11 0.12 0.12 0.16 0.18 0.21 0.22 0.23 0.25 0.26 0.26 0.27 0.28 0.29 0.31 0.32 0.33 0.32 0.33 0.32 0.32 0.31 0.31 0.33 0.33 0.32 0.29 0.28 0.28 0.32 0.32 0.38 0.45 0.43 0.44 0.43 0.47 0.50 0.57 0.58 0.65 0.74 0.75
0.15 0.16 0.19 0.18 0.15 0.11 0.10 0.11 0.17 0.17 0.20 0.21 0.23 0.24 0.24 0.25 0.25 0.26 0.29 0.30 0.31 0.32 0.31 0.32 0.34 0.34 0.35 0.34 0.33 0.33 0.31 0.30 0.30 0.28 0.25 0.26 0.29 0.34 0.37 0.41 0.44 0.42 0.45 0.48 0.55 0.58 0.61 0.67 0.76
0.20 0.17 0.17 0.13 0.12 0.15 0.15 0.12 0.19 0.20 0.21 0.22 0.23 0.23 0.23 0.26 0.26 0.27 0.28 0.28 0.28 0.29 0.30 0.32 0.35 0.35 0.35 0.35 0.35 0.33 0.30 0.29 0.30 0.30 0.29 0.29 0.30 0.36 0.38 0.38 0.38 0.41 0.45 0.51 0.47 0.57 0.63 0.64 0.70

GFSSGP_prec_pwat_036.txt.gz
Precipitable_Water
1.52 1.54 1.60 1.43 0.85 0.82 0.70 0.78 0.95 0.76 0.70 0.75 0.77 0.69 0.60 0.58 0.43 0.30 0.87 0.93 0.92 0.94 1.07 1.12 1.14 1.11 1.14 1.17 1.16 1.14 1.09 1.09 1.11 1.09 1.02 0.98 0.97 1.10 1.10 1.05 1.17 1.25 1.24 1.27 1.30 1.33 1.31 1.32 1.31
1.42 1.37 1.34 1.06 0.69 0.58 0.65 0.83 0.78 0.83 0.83 0.80 0.74 0.71 0.68 0.59 0.78 0.76 0.76 1.00 0.98 0.95 1.07 1.09 1.16 1.18 1.15 1.16 1.14 1.09 1.07 1.08 1.11 1.06 0.96 0.89 0.91 0.97 1.06 1.10 1.09 1.13 1.19 1.20 1.24 1.29 1.27 1.34 1.36
1.34 1.31 0.96 0.75 0.63 0.51 0.58 0.78 0.81 0.84 0.86 0.80 0.72 0.74 0.70 0.67 0.88 0.86 0.96 1.05 1.07 1.02 1.01 1.04 1.12 1.21 1.19 1.12 1.08 1.05 1.05 1.07 1.07 0.99 0.85 0.79 0.85 0.92 0.97 1.04 1.02 1.02 1.15 1.18 1.18 1.25 1.24 1.33 1.35
1.13 1.04 0.95 0.56 0.48 0.55 0.57 0.67 0.77 0.73 0.76 0.77 0.71 0.59 0.77 0.93 0.94 1.01 1.03 1.02 1.00 1.04 1.05 1.07 1.12 1.18 1.21 1.16 1.12 1.11 1.10 1.05 0.99 0.86 0.73 0.72 0.81 0.82 0.84 0.94 0.94 1.01 1.03 1.11 1.14 1.18 1.25 1.28 1.32
1.06 0.79 0.44 0.48 0.42 0.48 0.54 0.60 0.62 0.55 0.57 0.53 0.60 0.50 0.61 0.92 1.12 1.13 1.06 1.03 0.96 0.99 1.06 1.12 1.08 1.16 1.15 1.15 1.19 1.16 1.10 0.98 0.89 0.82 0.75 0.70 0.76 0.76 0.69 0.81 0.85 0.86 0.89 0.95 1.02 1.12 1.25 1.23 1.32
0.77 0.67 0.33 0.30 0.34 0.35 0.44 0.46 0.51 0.43 0.44 0.44 0.45 0.46 0.49 0.84 0.96 1.04 1.08 1.02 1.10 1.06 1.14 1.12 1.15 1.23 1.31 1.29 1.22 1.18 1.16 1.03 0.91 0.87 0.79 0.71 0.72 0.73 0.68 0.66 0.72 0.76 0.81 0.84 0.92 1.01 1.14 1.19 1.23
0.70 0.53 0.37 0.31 0.27 0.22 0.28 0.36 0.33 0.30 0.25 0.29 0.35 0.34 0.47 0.54 0.78 0.96 1.05 1.06 1.11 1.18 1.20 1.21 1.29 1.30 1.29 1.22 1.17 1.26 1.15 1.11 1.02 0.94 0.85 0.75 0.69 0.70 0.69 0.65 0.64 0.66 0.69 0.74 0.77 0.92 1.04 1.22 1.17
0.75 0.54 0.41 0.36 0.27 0.20 0.29 0.25 0.27 0.22 0.19 0.25 0.25 0.23 0.25 0.34 0.63 0.93 1.05 1.03 1.06 1.13 1.17 1.17 1.30 1.38 1.36 1.26 1.15 1.09 1.06 1.12 1.07 1.01 0.93 0.85 0.72 0.66 0.67 0.66 0.64 0.64 0.65 0.65 0.68 0.79 1.06 1.11 1.07
0.69 0.41 0.35 0.31 0.26 0.23 0.27 0.22 0.26 0.28 0.24 0.23 0.26 0.26 0.32 0.49 0.72 0.85 0.94 0.97 1.03 1.11 1.18 1.21 1.26 1.34 1.38 1.34 1.29 1.23 1.13 0.99 0.90 1.01 1.02 0.92 0.79 0.68 0.63 0.62 0.61 0.62 0.62 0.63 0.62 0.66 0.81 0.89 0.87
0.50 0.36 0.29 0.31 0.29 0.25 0.25 0.24 0.24 0.21 0.22 0.21 0.24 0.31 0.36 0.45 0.69 0.75 0.80 0.84 0.95 1.04 1.18 1.29 1.38 1.46 1.48 1.46 1.38 1.32 1.26 1.19 1.07 0.92 0.92 0.98 0.87 0.74 0.65 0.60 0.54 0.58 0.58 0.59 0.59 0.58 0.58 0.64 0.71
0.48 0.33 0.34 0.32 0.31 0.29 0.24 0.22 0.25 0.22 0.19 0.25 0.24 0.28 0.34 0.38 0.49 0.63 0.67 0.71 0.78 0.95 1.20 1.33 1.38 1.48 1.47 1.49 1.49 1.43 1.37 1.28 1.24 1.12 0.94 0.85 0.84 0.87 0.81 0.70 0.57 0.49 0.49 0.48 0.48 0.47 0.45 0.44 0.54
0.36 0.38 0.33 0.28 0.27 0.23 0.19 0.23 0.24 0.25 0.28 0.34 0.33 0.34 0.34 0.34 0.39 0.48 0.59 0.65 0.70 0.75 0.82 0.98 1.29 1.35 1.42 1.51 1.50 1.49 1.43 1.41 1.34 1.30 1.19 1.04 0.93 0.81 0.72 0.76 0.74 0.59 0.47 0.38 0.38 0.38 0.36 0.37 0.41
0.26 0.24 0.25 0.24 0.21 0.24 0.26 0.25 0.25 0.27 0.33 0.34 0.34 0.32 0.32 0.33 0.35 0.39 0.45 0.51 0.57 0.62 0.70 0.77 0.89 1.18 1.31 1.39 1.47 1.49 1.46 1.44 1.43 1.39 1.34 1.21 1.05 0.92 0.85 0.77 0.69 0.62 0.58 0.47 0.36 0.32 0.31 0.31 0.32
0.23 0.21 0.19 0.19 0.21 0.25 0.22 0.25 0.26 0.29 0.33 0.31 0.31 0.30 0.33 0.34 0.36 0.38 0.39 0.40 0.43 0.47 0.53 0.63 0.73 0.95 1.22 1.30 1.38 1.40 1.44 1.46 1.47 1.48 1.46 1.40 1.27 1.12 0.98 0.88 0.80 0.70 0.56 0.49 0.44 0.37 0.32 0.29 0.29
0.22 0.16 0.18 0.20 0.20 0.22 0.23 0.19 0.22 0.31 0.32 0.31 0.32 0.33 0.35 0.37 0.39 0.38 0.40 0.40 0.42 0.45 0.48 0.52 0.60 0.73 0.90 1.14 1.27 1.34 1.42 1.44 1.42 1.43 1.49 1.48 1.41 1.30 1.15 1.02 0.93 0.85 0.74 0.56 0.47 0.42 0.38 0.32 0.30
0.18 0.18 0.12 0.18 0.20 0.23 0.21 0.15 0.27 0.34 0.31 0.29 0.30 0.29 0.29 0.30 0.32 0.34 0.36 0.37 0.40 0.41 0.43 0.48 0.54 0.61 0.68 0.75 0.91 1.18 1.32 1.36 1.37 1.38 1.42 1.46 1.47 1.45 1.33 1.12 1.02 1.01 0.91 0.77 0.63 0.51 0.39 0.34 0.31
0.17 0.10 0.11 0.14 0.24 0.25 0.24 0.20 0.26 0.30 0.28 0.25 0.26 0.26 0.27 0.29 0.31 0.32 0.34 0.36 0.37 0.38 0.39 0.42 0.46 0.50 0.56 0.64 0.72 0.80 0.89 1.01 1.16 1.26 1.29 1.34 1.39 1.44 1.40 1.26 1.10 1.02 0.95 0.88 0.78 0.67 0.58 0.45 0.37
0.10 0.13 0.17 0.18 0.24 0.24 0.20 0.19 0.24 0.26 0.25 0.24 0.25 0.27 0.28 0.29 0.31 0.34 0.34 0.35 0.36 0.37 0.37 0.40 0.43 0.44 0.45 0.47 0.54 0.62 0.71 0.77 0.85 0.94 1.02 1.10 1.16 1.24 1.28 1.29 1.18 1.08 1.04 0.93 0.86 0.78 0.71 0.63 0.56
0.24 0.21 0.18 0.19 0.24 0.22 0.19 0.19 0.22 0.24 0.24 0.24 0.26 0.27 0.28 0.29 0.32 0.34 0.35 0.35 0.35 0.35 0.35 0.38 0.40 0.42 0.42 0.41 0.40 0.40 0.44 0.54 0.63 0.75 0.85 0.92 0.99 1.05 1.10 1.20 1.18 1.06 1.00 0.95 0.94 0.90 0.78 0.72 0.69
0.22 0.17 0.16 0.20 0.27 0.24 0.21 0.19 0.22 0.23 0.24 0.25 0.25 0.26 0.27 0.29 0.30 0.31 0.33 0.34 0.34 0.34 0.35 0.36 0.40 0.42 0.41 0.41 0.42 0.42 0.42 0.43 0.47 0.53 0.59 0.70 0.81 0.88 0.94 1.03 1.10 1.10 1.03 0.95 0.87 0.84 0.80 0.87 0.78
0.19 0.18 0.19 0.20 0.26 0.26 0.21 0.18 0.19 0.21 0.23 0.24 0.25 0.26 0.28 0.29 0.29 0.30 0.32 0.34 0.35 0.34 0.35 0.36 0.38 0.39 0.41 0.42 0.42 0.42 0.42 0.40 0.37 0.38 0.42 0.49 0.58 0.65 0.75 0.85 1.02 1.06 1.02 1.02 0.87 0.83 0.75 0.72 0.79
0.18 0.26 0.25 0.23 0.20 0.13 0.22 0.10 0.17 0.18 0.18 0.20 0.22 0.23 0.26 0.29 0.31 0.32 0.32 0.33 0.35 0.36 0.37 0.38 0.39 0.40 0.41 0.42 0.40 0.40 0.39 0.38 0.41 0.42 0.46 0.49 0.48 0.46 0.51 0.60 0.69 0.81 0.94 0.91 0.93 0.84 0.78 0.74 0.65
0.23 0.27 0.23 0.20 0.17 0.16 0.17 0.15 0.16 0.19 0.17 0.19 0.22 0.24 0.25 0.27 0.28 0.31 0.32 0.33 0.34 0.34 0.33 0.33 0.34 0.35 0.36 0.36 0.34 0.33 0.33 0.35 0.39 0.42 0.44 0.52 0.50 0.49 0.49 0.49 0.50 0.54 0.62 0.78 0.82 0.87 0.83 0.75 0.77
0.27 0.20 0.17 0.20 0.18 0.10 0.16 0.16 0.15 0.17 0.19 0.21 0.23 0.25 0.26 0.27 0.27 0.27 0.31 0.31 0.31 0.32 0.31 0.31 0.32 0.32 0.32 0.32 0.31 0.29 0.28 0.28 0.28 0.31 0.35 0.40 0.42 0.43 0.43 0.47 0.49 0.47 0.47 0.52 0.61 0.76 0.83 0.83 0.78
0.20 0.13 0.09 0.08 0.11 0.10 0.20 0.17 0.16 0.22 0.22 0.23 0.23 0.24 0.26 0.26 0.26 0.26 0.27 0.30 0.31 0.30 0.31 0.31 0.30 0.30 0.31 0.31 0.30 0.30 0.29 0.29 0.27 0.28 0.29 0.28 0.28 0.31 0.31 0.33 0.41 0.44 0.43 0.44 0.47 0.52 0.61 0.74 0.81
0.17 0.15 0.11 0.08 0.08 0.10 0.17 0.12 0.15 0.21 0.23 0.24 0.24 0.25 0.25 0.25 0.26 0.26 0.28 0.30 0.30 0.31 0.31 0.31 0.31 0.31 0.32 0.33 0.33 0.34 0.32 0.31 0.30 0.32 0.32 0.30 0.27 0.30 0.32 0.32 0.38 0.42 0.41 0.41 0.43 0.44 0.49 0.54 0.64
0.17 0.14 0.21 0.13 0.16 0.12 0.13 0.16 0.19 0.20 0.20 0.22 0.22 0.23 0.24 0.25 0.26 0.27 0.29 0.30 0.30 0.29 0.29 0.28 0.27 0.28 0.30 0.32 0.33 0.33 0.34 0.33 0.32 0.32 0.32 0.31 0.31 0.31 0.32 0.35 0.45 0.44 0.41 0.38 0.38 0.40 0.45 0.50 0.52
0.20 0.21 0.14 0.15 0.10 0.09 0.11 0.12 0.12 0.16 0.17 0.20 0.20 0.22 0.24 0.26 0.27 0.27 0.27 0.27 0.27 0.27 0.26 0.27 0.27 0.27 0.29 0.31 0.33 0.33 0.34 0.34 0.34 0.33 0.30 0.31 0.33 0.33 0.32 0.34 0.40 0.40 0.43 0.40 0.38 0.40 0.42 0.48 0.52
0.17 0.16 0.18 0.18 0.16 0.11 0.10 0.11 0.17 0.16 0.18 0.19 0.21 0.24 0.25 0.24 0.26 0.27 0.27 0.26 0.24 0.24 0.25 0.25 0.27 0.29 0.29 0.31 0.31 0.33 0.33 0.36 0.37 0.34 0.31 0.33 0.32 0.33 0.31 0.35 0.40 0.40 0.39 0.38 0.39 0.38 0.42 0.42 0.49
0.19 0.17 0.17 0.14 0.13 0.15 0.15 0.12 0.21 0.20 0.21 0.22 0.23 0.24 0.25 0.26 0.27 0.26 0.25 0.24 0.24 0.25 0.26 0.27 0.29 0.31 0.34 0.33 0.37 0.37 0.36 0.37 0.38 0.35 0.35 0.35 0.34 0.34 0.34 0.36 0.37 0.37 0.38 0.40 0.42 0.39 0.41 0.41 0.42

GFSSGP_prec_pwat_042.txt.gz
Precipitable_Water
1.46 1.51 1.58 1.37 0.90 0.85 0.70 0.68 0.82 0.71 0.67 0.76 0.72 0.69 0.61 0.62 0.50 0.43 0.93 0.98 0.95 0.96 1.07 1.14 1.12 1.09 1.11 1.18 1.33 1.17 1.16 1.13 1.07 1.02 0.95 0.95 1.19 1.14 1.07 1.17 1.34 1.29 1.35 1.36 1.34 1.29 1.32 1.30 1.29
1.29 1.39 1.33 1.02 0.77 0.65 0.66 0.78 0.68 0.74 0.80 0.80 0.75 0.77 0.67 0.64 0.83 0.78 0.85 1.00 0.98 1.00 1.09 1.19 1.13 1.16 1.11 1.14 1.16 1.14 1.08 1.11 1.13 1.04 0.91 0.87 0.91 1.01 1.08 1.14 1.14 1.29 1.23 1.31 1.40 1.28 1.37 1.35 1.33
1.21 1.26 0.93 0.71 0.63 0.56 0.59 0.74 0.74 0.78 0.77 0.71 0.65 0.73 0.73 0.81 1.00 0.94 1.03 1.04 1.07 1.04 1.09 1.17 1.15 1.18 1.21 1.14 1.10 1.08 1.10 1.13 1.15 1.03 0.89 0.77 0.84 0.88 0.98 1.05 1.02 1.15 1.19 1.19 1.34 1.29 1.45 1.39 1.36
1.06 0.98 0.81 0.56 0.48 0.57 0.59 0.63 0.63 0.67 0.62 0.65 0.61 0.56 0.77 1.01 1.06 1.11 1.16 1.16 1.13 1.16 1.13 1.10 1.10 1.20 1.20 1.18 1.11 1.08 1.11 1.10 1.08 0.99 0.77 0.72 0.79 0.77 0.90 0.95 0.94 1.00 1.04 1.13 1.16 1.26 1.31 1.37 1.31
0.99 0.69 0.47 0.47 0.46 0.48 0.48 0.52 0.46 0.42 0.40 0.40 0.49 0.49 0.56 0.71 1.06 1.21 1.15 1.18 1.15 1.19 1.23 1.20 1.09 1.22 1.23 1.17 1.14 1.14 1.16 1.12 1.02 0.89 0.76 0.70 0.73 0.68 0.71 0.76 0.77 0.78 0.87 0.93 1.01 1.17 1.24 1.28 1.42
0.76 0.69 0.36 0.31 0.32 0.39 0.37 0.40 0.37 0.33 0.32 0.29 0.31 0.40 0.45 0.60 0.84 1.19 1.18 1.18 1.21 1.15 1.18 1.20 1.16 1.19 1.23 1.22 1.29 1.26 1.27 1.26 1.14 0.99 0.88 0.79 0.72 0.67 0.61 0.60 0.66 0.70 0.68 0.75 0.82 1.04 1.18 1.18 1.27
0.70 0.62 0.42 0.35 0.31 0.31 0.31 0.33 0.29 0.27 0.23 0.22 0.26 0.30 0.47 0.44 0.80 1.16 1.21 1.23 1.25 1.26 1.23 1.25 1.32 1.34 1.34 1.30 1.20 1.17 1.24 1.29 1.22 1.14 1.02 0.92 0.83 0.72 0.65 0.61 0.57 0.59 0.60 0.59 0.73 0.92 1.04 1.15 1.14
0.74 0.66 0.45 0.40 0.31 0.28 0.31 0.30 0.31 0.28 0.24 0.30 0.30 0.23 0.30 0.42 0.76 1.11 1.19 1.22 1.24 1.29 1.29 1.30 1.37 1.41 1.48 1.53 1.42 1.27 1.23 1.15 1.10 1.14 1.09 1.04 0.93 0.82 0.73 0.65 0.63 0.61 0.59 0.56 0.59 0.79 0.86 0.98 1.02
0.70 0.55 0.41 0.35 0.31 0.32 0.34 0.29 0.32 0.32 0.27 0.29 0.32 0.33 0.38 0.52 0.72 0.95 1.08 1.15 1.16 1.24 1.30 1.33 1.34 1.37 1.49 1.53 1.57 1.51 1.39 1.34 1.25 1.14 1.04 1.06 1.09 1.00 0.89 0.83 0.67 0.64 0.64 0.62 0.56 0.68 0.73 0.74 0.88
0.61 0.50 0.41 0.39 0.38 0.36 0.35 0.30 0.28 0.27 0.26 0.27 0.30 0.38 0.47 0.56 0.61 0.67 0.75 0.79 0.86 0.89 1.01 1.19 1.38 1.37 1.41 1.50 1.51 1.56 1.61 1.48 1.41 1.31 1.21 1.07 1.06 1.05 0.95 0.86 0.79 0.72 0.64 0.61 0.60 0.56 0.57 0.68 0.81
0.58 0.48 0.46 0.43 0.42 0.36 0.29 0.27 0.30 0.26 0.23 0.28 0.27 0.32 0.41 0.49 0.54 0.57 0.63 0.70 0.75 0.80 0.86 0.91 0.99 1.18 1.35 1.43 1.49 1.54 1.60 1.62 1.53 1.45 1.36 1.25 1.11 0.99 0.94 0.92 0.92 0.84 0.79 0.69 0.61 0.57 0.52 0.49 0.56
0.50 0.51 0.45 0.41 0.35 0.30 0.28 0.29 0.25 0.27 0.28 0.32 0.33 0.35 0.37 0.38 0.42 0.46 0.50 0.55 0.61 0.67 0.72 0.79 0.89 0.99 1.08 1.42 1.49 1.48 1.53 1.63 1.60 1.58 1.51 1.44 1.29 1.16 1.05 0.94 0.81 0.77 0.79 0.72 0.64 0.54 0.48 0.44 0.44
0.45 0.40 0.36 0.30 0.28 0.27 0.28 0.26 0.26 0.27 0.31 0.34 0.34 0.35 0.35 0.37 0.39 0.42 0.43 0.45 0.48 0.50 0.56 0.61 0.68 0.79 1.03 1.21 1.43 1.51 1.47 1.53 1.60 1.64 1.64 1.58 1.49 1.38 1.24 1.12 1.01 0.89 0.79 0.66 0.61 0.59 0.52 0.42 0.38
0.35 0.25 0.22 0.25 0.26 0.27 0.25 0.26 0.28 0.27 0.31 0.31 0.33 0.34 0.36 0.36 0.36 0.36 0.36 0.38 0.40 0.43 0.44 0.49 0.55 0.64 0.75 0.88 1.12 1.29 1.45 1.51 1.55 1.56 1.57 1.58 1.60 1.52 1.46 1.41 1.28 1.08 0.96 0.86 0.68 0.55 0.52 0.50 0.43
0.22 0.18 0.20 0.24 0.26 0.26 0.29 0.22 0.22 0.28 0.31 0.31 0.32 0.32 0.32 0.32 0.31 0.30 0.31 0.32 0.35 0.36 0.38 0.41 0.43 0.48 0.56 0.64 0.73 0.84 0.98 1.21 1.34 1.46 1.53 1.54 1.55 1.54 1.54 1.50 1.47 1.46 1.33 1.12 0.92 0.76 0.62 0.51 0.46
0.18 0.19 0.17 0.22 0.26 0.27 0.25 0.17 0.25 0.31 0.31 0.28 0.28 0.29 0.29 0.29 0.30 0.31 0.33 0.33 0.35 0.36 0.35 0.37 0.38 0.39 0.41 0.44 0.49 0.57 0.63 0.71 0.79 0.87 0.97 1.12 1.32 1.47 1.47 1.46 1.43 1.53 1.46 1.31 1.17 1.05 0.87 0.70 0.57
0.18 0.13 0.16 0.18 0.24 0.24 0.23 0.22 0.29 0.32 0.28 0.26 0.27 0.28 0.29 0.29 0.31 0.32 0.33 0.34 0.34 0.36 0.37 0.37 0.37 0.36 0.36 0.38 0.39 0.42 0.45 0.47 0.51 0.58 0.65 0.72 0.83 0.92 1.07 1.28 1.41 1.47 1.45 1.39 1.31 1.12 1.01 0.93 0.85
0.14 0.14 0.16 0.17 0.24 0.26 0.24 0.22 0.25 0.27 0.27 0.27 0.27 0.28 0.29 0.29 0.30 0.33 0.33 0.34 0.34 0.34 0.36 0.37 0.38 0.39 0.39 0.39 0.38 0.37 0.36 0.37 0.40 0.44 0.46 0.51 0.56 0.63 0.73 0.84 0.99 1.21 1.31 1.37 1.39 1.29 1.17 1.07 0.94
0.20 0.18 0.19 0.23 0.25 0.21 0.20 0.21 0.24 0.27 0.27 0.26 0.27 0.26 0.27 0.27 0.31 0.33 0.34 0.34 0.33 0.34 0.34 0.36 0.37 0.39 0.39 0.38 0.37 0.36 0.36 0.37 0.36 0.37 0.38 0.39 0.45 0.49 0.53 0.59 0.70 0.83 0.94 1.07 1.27 1.35 1.25 1.15 1.08
0.22 0.20 0.18 0.21 0.25 0.24 0.24 0.21 0.25 0.26 0.25 0.26 0.26 0.26 0.26 0.28 0.29 0.31 0.32 0.34 0.35 0.35 0.35 0.34 0.33 0.33 0.34 0.34 0.33 0.31 0.29 0.28 0.30 0.32 0.32 0.33 0.38 0.42 0.44 0.46 0.49 0.56 0.66 0.81 0.93 1.04 1.17 1.20 1.18
0.22 0.18 0.18 0.20 0.26 0.26 0.21 0.17 0.19 0.23 0.25 0.26 0.26 0.27 0.28 0.29 0.29 0.30 0.32 0.34 0.34 0.34 0.33 0.32 0.32 0.32 0.32 0.34 0.33 0.32 0.31 0.30 0.29 0.30 0.29 0.29 0.31 0.32 0.35 0.37 0.38 0.41 0.47 0.53 0.66 0.83 0.96 1.01 1.17
0.18 0.24 0.25 0.24 0.20 0.15 0.20 0.09 0.18 0.21 0.22 0.23 0.25 0.26 0.26 0.28 0.28 0.29 0.30 0.31 0.33 0.34 0.35 0.34 0.33 0.32 0.33 0.33 0.32 0.30 0.28 0.27 0.31 0.33 0.33 0.35 0.35 0.35 0.38 0.36 0.35 0.35 0.37 0.39 0.44 0.56 0.71 0.85 0.91
0.24 0.29 0.26 0.22 0.17 0.16 0.18 0.14 0.18 0.21 0.18 0.21 0.23 0.24 0.25 0.27 0.27 0.27 0.28 0.29 0.30 0.34 0.34 0.34 0.34 0.32 0.31 0.31 0.31 0.30 0.30 0.31 0.32 0.34 0.34 0.34 0.36 0.36 0.36 0.33 0.32 0.32 0.33 0.34 0.39 0.42 0.44 0.59 0.68
0.30 0.24 0.19 0.19 0.18 0.13 0.17 0.17 0.15 0.16 0.18 0.20 0.22 0.23 0.25 0.27 0.28 0.29 0.29 0.30 0.30 0.33 0.35 0.35 0.32 0.30 0.31 0.30 0.29 0.29 0.28 0.28 0.29 0.31 0.32 0.32 0.33 0.35 0.38 0.37 0.34 0.32 0.34 0.35 0.35 0.41 0.42 0.42 0.49
0.24 0.16 0.11 0.12 0.14 0.13 0.19 0.17 0.16 0.22 0.22 0.22 0.22 0.23 0.25 0.27 0.28 0.28 0.28 0.28 0.30 0.31 0.31 0.30 0.29 0.28 0.27 0.27 0.28 0.29 0.29 0.30 0.29 0.29 0.31 0.32 0.33 0.35 0.37 0.40 0.38 0.35 0.32 0.37 0.38 0.40 0.43 0.41 0.40
0.17 0.15 0.12 0.10 0.11 0.12 0.19 0.13 0.16 0.20 0.23 0.23 0.23 0.24 0.26 0.27 0.28 0.28 0.28 0.30 0.31 0.31 0.31 0.30 0.29 0.28 0.28 0.28 0.28 0.28 0.28 0.28 0.29 0.31 0.32 0.33 0.34 0.36 0.40 0.42 0.41 0.37 0.35 0.34 0.38 0.41 0.45 0.45 0.41
0.18 0.15 0.21 0.15 0.15 0.12 0.13 0.15 0.18 0.20 0.20 0.21 0.22 0.24 0.25 0.27 0.28 0.29 0.30 0.32 0.33 0.32 0.32 0.31 0.29 0.28 0.28 0.28 0.28 0.27 0.27 0.28 0.29 0.32 0.34 0.34 0.35 0.37 0.38 0.39 0.39 0.39 0.40 0.37 0.35 0.38 0.46 0.50 0.44
0.20 0.22 0.16 0.16 0.11 0.10 0.12 0.13 0.13 0.17 0.18 0.21 0.22 0.23 0.26 0.28 0.29 0.30 0.32 0.35 0.35 0.34 0.33 0.32 0.29 0.27 0.28 0.28 0.28 0.28 0.29 0.31 0.33 0.34 0.33 0.36 0.37 0.37 0.39 0.39 0.39 0.39 0.41 0.40 0.37 0.37 0.46 0.49 0.45
0.19 0.18 0.18 0.17 0.15 0.12 0.11 0.13 0.18 0.18 0.20 0.21 0.22 0.25 0.27 0.28 0.30 0.32 0.34 0.35 0.35 0.34 0.33 0.29 0.27 0.27 0.27 0.28 0.30 0.31 0.33 0.35 0.36 0.36 0.37 0.39 0.38 0.36 0.37 0.40 0.41 0.41 0.41 0.42 0.41 0.39 0.42 0.44 0.45
0.20 0.18 0.19 0.16 0.16 0.16 0.16 0.14 0.22 0.22 0.22 0.23 0.24 0.26 0.28 0.31 0.33 0.34 0.35 0.35 0.34 0.33 0.28 0.26 0.26 0.27 0.30 0.32 0.32 0.33 0.35 0.37 0.37 0.39 0.41 0.42 0.42 0.42 0.44 0.43 0.43 0.44 0.43 0.45 0.43 0.43 0.42 0.42 0.42

GFSSGP_prec_pwat_045.txt.gz
Precipitable_Water
1.51 1.54 1.56 1.46 1.06 0.92 0.72 0.67 0.81 0.70 0.65 0.72 0.73 0.68 0.67 0.68 0.54 0.54 0.99 1.01 0.99 0.96 1.13 1.10 1.08 1.08 1.10 1.14 1.43 1.11 1.08 1.09 1.03 0.97 0.89 0.89 1.10 1.06 1.09 1.19 1.29 1.25 1.43 1.33 1.27 1.31 1.32 1.25 1.32
1.25 1.39 1.38 1.19 0.92 0.76 0.67 0.79 0.70 0.74 0.74 0.79 0.72 0.78 0.77 0.75 0.89 0.90 1.02 1.02 1.10 1.05 1.14 1.25 1.09 1.07 1.07 1.19 1.14 1.05 1.01 1.06 1.09 0.95 0.84 0.77 0.84 0.93 1.05 1.04 1.15 1.27 1.20 1.26 1.29 1.32 1.39 1.31 1.36
1.19 1.26 1.02 0.78 0.72 0.68 0.68 0.74 0.67 0.74 0.67 0.63 0.70 0.70 0.76 0.82 1.03 1.05 1.09 1.12 1.15 1.12 1.19 1.20 1.06 1.09 1.08 1.04 1.02 1.02 1.04 1.09 1.10 0.95 0.83 0.68 0.74 0.75 0.93 0.94 0.97 1.08 1.11 1.16 1.31 1.25 1.42 1.31 1.33
1.03 1.08 0.88 0.67 0.59 0.62 0.62 0.58 0.59 0.73 0.55 0.56 0.66 0.64 0.74 0.93 1.10 1.14 1.16 1.16 1.15 1.18 1.23 1.12 1.11 1.19 1.21 1.19 1.14 1.10 1.13 1.11 1.08 1.00 0.81 0.71 0.75 0.68 0.80 0.84 0.85 0.85 0.93 1.05 1.12 1.23 1.32 1.36 1.29
1.02 0.77 0.57 0.56 0.52 0.47 0.48 0.50 0.44 0.39 0.41 0.36 0.49 0.58 0.49 0.79 1.20 1.22 1.15 1.16 1.11 1.18 1.22 1.10 1.10 1.26 1.27 1.25 1.23 1.20 1.20 1.17 1.09 0.95 0.82 0.78 0.75 0.68 0.75 0.75 0.73 0.73 0.81 0.88 0.95 1.10 1.19 1.26 1.37
0.85 0.71 0.41 0.41 0.42 0.40 0.36 0.39 0.37 0.34 0.30 0.27 0.29 0.47 0.48 0.67 1.13 1.26 1.21 1.20 1.19 1.14 1.18 1.21 1.11 1.17 1.22 1.24 1.31 1.27 1.29 1.26 1.20 1.04 0.92 0.86 0.82 0.72 0.65 0.62 0.65 0.67 0.68 0.71 0.77 0.97 1.11 1.15 1.22
0.77 0.68 0.49 0.39 0.37 0.36 0.32 0.34 0.30 0.28 0.27 0.25 0.27 0.35 0.52 0.48 0.87 1.24 1.23 1.28 1.29 1.26 1.24 1.28 1.35 1.28 1.27 1.24 1.16 1.11 1.18 1.27 1.23 1.16 1.07 0.95 0.87 0.79 0.68 0.63 0.59 0.59 0.61 0.61 0.67 0.86 0.98 1.05 1.09
0.78 0.71 0.52 0.45 0.37 0.35 0.33 0.33 0.32 0.28 0.30 0.33 0.30 0.30 0.41 0.48 0.77 1.15 1.21 1.25 1.32 1.34 1.31 1.33 1.34 1.44 1.43 1.44 1.37 1.35 1.21 1.16 1.06 1.08 1.13 1.08 0.97 0.90 0.78 0.68 0.68 0.60 0.60 0.59 0.59 0.79 0.87 0.94 1.02
0.73 0.61 0.50 0.42 0.36 0.37 0.36 0.32 0.38 0.34 0.33 0.31 0.33 0.34 0.42 0.55 0.73 1.04 1.14 1.21 1.26 1.30 1.38 1.38 1.33 1.37 1.47 1.58 1.68 1.51 1.43 1.33 1.28 1.19 1.09 1.01 1.05 1.12 1.04 0.96 0.79 0.60 0.57 0.58 0.57 0.66 0.76 0.79 0.88
0.66 0.57 0.45 0.49 0.44 0.40 0.39 0.33 0.32 0.31 0.33 0.31 0.31 0.38 0.48 0.57 0.63 0.67 0.77 0.81 0.84 0.87 0.94 1.04 1.12 1.30 1.46 1.52 1.62 1.77 1.67 1.67 1.69 1.51 1.35 1.26 1.11 1.05 1.01 0.97 0.86 0.74 0.67 0.56 0.53 0.52 0.59 0.66 0.70
0.63 0.52 0.54 0.53 0.49 0.41 0.35 0.33 0.33 0.31 0.28 0.28 0.28 0.33 0.41 0.47 0.51 0.54 0.59 0.67 0.73 0.81 0.87 0.88 0.96 1.07 1.17 1.42 1.48 1.55 1.64 1.71 1.75 1.78 1.76 1.59 1.32 1.19 1.07 0.95 0.93 0.98 0.98 0.82 0.77 0.62 0.52 0.51 0.57
0.58 0.59 0.54 0.52 0.43 0.35 0.32 0.33 0.27 0.30 0.31 0.32 0.34 0.35 0.36 0.37 0.39 0.43 0.46 0.51 0.57 0.62 0.67 0.72 0.79 0.89 1.12 1.16 1.45 1.50 1.53 1.58 1.60 1.68 1.75 1.72 1.69 1.50 1.30 1.17 1.05 0.92 0.84 0.75 0.74 0.73 0.66 0.52 0.44
0.50 0.52 0.46 0.41 0.35 0.32 0.30 0.27 0.26 0.26 0.31 0.34 0.34 0.35 0.34 0.36 0.38 0.39 0.41 0.43 0.45 0.46 0.49 0.52 0.58 0.66 0.81 1.02 1.22 1.34 1.45 1.48 1.50 1.55 1.61 1.70 1.64 1.61 1.62 1.54 1.35 1.15 1.04 0.90 0.77 0.65 0.60 0.62 0.56
0.50 0.40 0.33 0.31 0.27 0.27 0.25 0.26 0.28 0.28 0.32 0.31 0.32 0.33 0.36 0.34 0.34 0.33 0.34 0.35 0.36 0.38 0.38 0.39 0.40 0.46 0.58 0.65 0.74 0.85 1.00 1.20 1.36 1.46 1.51 1.55 1.53 1.54 1.55 1.53 1.55 1.43 1.28 1.13 1.07 0.88 0.70 0.61 0.54
0.32 0.24 0.24 0.24 0.27 0.26 0.29 0.23 0.24 0.28 0.30 0.29 0.31 0.32 0.31 0.31 0.31 0.30 0.31 0.32 0.34 0.35 0.36 0.36 0.37 0.39 0.41 0.43 0.48 0.53 0.59 0.70 0.78 0.87 1.04 1.16 1.32 1.44 1.46 1.46 1.48 1.56 1.55 1.40 1.22 1.10 1.02 0.90 0.76
0.20 0.20 0.19 0.29 0.29 0.29 0.26 0.17 0.28 0.30 0.29 0.30 0.29 0.29 0.29 0.29 0.29 0.31 0.32 0.33 0.36 0.36 0.37 0.39 0.40 0.40 0.40 0.41 0.43 0.44 0.46 0.47 0.49 0.53 0.61 0.66 0.74 0.83 0.97 1.20 1.33 1.45 1.49 1.50 1.45 1.27 1.11 1.01 0.93
0.21 0.14 0.21 0.26 0.28 0.28 0.23 0.20 0.31 0.32 0.30 0.28 0.27 0.29 0.28 0.29 0.31 0.33 0.33 0.34 0.35 0.36 0.37 0.37 0.39 0.38 0.39 0.39 0.39 0.39 0.40 0.41 0.42 0.44 0.46 0.46 0.50 0.55 0.59 0.70 0.85 1.04 1.19 1.33 1.42 1.40 1.32 1.13 1.02
0.18 0.19 0.18 0.19 0.28 0.26 0.25 0.24 0.30 0.29 0.28 0.28 0.29 0.29 0.29 0.28 0.30 0.32 0.33 0.34 0.34 0.34 0.35 0.37 0.37 0.37 0.38 0.39 0.38 0.38 0.38 0.37 0.37 0.36 0.37 0.38 0.39 0.45 0.49 0.52 0.56 0.68 0.79 0.95 1.08 1.22 1.37 1.32 1.15
0.18 0.17 0.17 0.22 0.29 0.24 0.20 0.22 0.26 0.29 0.30 0.29 0.28 0.27 0.27 0.27 0.31 0.33 0.34 0.34 0.34 0.35 0.35 0.35 0.35 0.35 0.34 0.34 0.33 0.30 0.29 0.29 0.30 0.33 0.33 0.33 0.32 0.33 0.36 0.42 0.44 0.47 0.49 0.61 0.79 0.90 1.01 1.16 1.27
0.21 0.19 0.21 0.25 0.26 0.23 0.23 0.24 0.28 0.29 0.27 0.28 0.28 0.27 0.27 0.27 0.28 0.31 0.33 0.34 0.35 0.35 0.36 0.34 0.32 0.33 0.33 0.33 0.32 0.32 0.30 0.30 0.31 0.32 0.32 0.32 0.32 0.32 0.33 0.35 0.37 0.38 0.40 0.45 0.50 0.59 0.69 0.85 1.09
0.23 0.21 0.21 0.20 0.27 0.28 0.26 0.18 0.22 0.27 0.27 0.28 0.29 0.29 0.29 0.29 0.28 0.29 0.31 0.33 0.35 0.34 0.35 0.35 0.34 0.33 0.34 0.34 0.34 0.33 0.33 0.33 0.32 0.33 0.33 0.36 0.37 0.36 0.33 0.34 0.37 0.38 0.38 0.37 0.41 0.46 0.50 0.55 0.70
0.19 0.27 0.22 0.22 0.23 0.18 0.26 0.10 0.20 0.24 0.24 0.25 0.26 0.27 0.28 0.29 0.31 0.31 0.31 0.31 0.32 0.34 0.37 0.36 0.35 0.35 0.35 0.33 0.31 0.31 0.30 0.29 0.31 0.32 0.34 0.35 0.38 0.38 0.38 0.38 0.37 0.35 0.34 0.33 0.35 0.39 0.43 0.47 0.49
0.23 0.28 0.25 0.26 0.21 0.18 0.18 0.16 0.21 0.26 0.21 0.22 0.24 0.26 0.28 0.28 0.28 0.28 0.29 0.30 0.31 0.32 0.34 0.36 0.38 0.36 0.33 0.32 0.32 0.31 0.30 0.31 0.32 0.32 0.32 0.33 0.34 0.35 0.36 0.36 0.37 0.38 0.36 0.33 0.33 0.34 0.36 0.43 0.43
0.29 0.25 0.24 0.22 0.18 0.13 0.18 0.18 0.18 0.22 0.21 0.22 0.25 0.26 0.27 0.27 0.28 0.29 0.31 0.32 0.33 0.35 0.38 0.38 0.35 0.33 0.33 0.32 0.31 0.31 0.31 0.31 0.30 0.31 0.31 0.31 0.33 0.34 0.36 0.37 0.38 0.41 0.42 0.40 0.37 0.36 0.36 0.37 0.43
0.27 0.22 0.14 0.17 0.18 0.17 0.23 0.17 0.16 0.25 0.23 0.23 0.24 0.25 0.25 0.26 0.27 0.29 0.30 0.32 0.33 0.34 0.35 0.35 0.34 0.33 0.33 0.33 0.32 0.32 0.32 0.31 0.29 0.29 0.29 0.29 0.31 0.33 0.34 0.37 0.39 0.41 0.43 0.44 0.42 0.38 0.38 0.38 0.39
0.23 0.19 0.14 0.12 0.13 0.15 0.21 0.14 0.19 0.23 0.23 0.23 0.24 0.24 0.25 0.27 0.29 0.30 0.32 0.34 0.34 0.35 0.36 0.36 0.35 0.34 0.35 0.32 0.31 0.31 0.30 0.29 0.28 0.29 0.30 0.30 0.31 0.34 0.36 0.37 0.38 0.39 0.41 0.42 0.43 0.39 0.38 0.42 0.40
0.22 0.15 0.23 0.15 0.16 0.14 0.15 0.19 0.21 0.22 0.21 0.22 0.23 0.24 0.26 0.28 0.30 0.32 0.33 0.34 0.36 0.36 0.36 0.37 0.37 0.36 0.33 0.30 0.29 0.29 0.28 0.29 0.29 0.30 0.32 0.33 0.34 0.36 0.36 0.37 0.38 0.40 0.42 0.42 0.41 0.40 0.39 0.40 0.40
0.19 0.24 0.17 0.19 0.13 0.13 0.15 0.16 0.17 0.20 0.21 0.22 0.23 0.24 0.27 0.30 0.31 0.32 0.34 0.35 0.37 0.38 0.39 0.39 0.37 0.32 0.29 0.28 0.28 0.29 0.31 0.33 0.33 0.34 0.34 0.36 0.38 0.40 0.40 0.42 0.42 0.42 0.43 0.44 0.43 0.41 0.43 0.41 0.40
0.18 0.18 0.18 0.18 0.17 0.14 0.13 0.16 0.22 0.21 0.23 0.23 0.25 0.27 0.29 0.32 0.34 0.34 0.35 0.38 0.40 0.40 0.40 0.38 0.32 0.27 0.27 0.28 0.30 0.32 0.32 0.33 0.35 0.35 0.37 0.38 0.39 0.41 0.42 0.43 0.43 0.42 0.43 0.46 0.45 0.44 0.45 0.44 0.41
0.21 0.19 0.20 0.17 0.18 0.20 0.18 0.16 0.24 0.24 0.24 0.25 0.26 0.27 0.30 0.33 0.35 0.36 0.38 0.41 0.40 0.40 0.38 0.32 0.28 0.27 0.28 0.30 0.31 0.32 0.34 0.35 0.36 0.37 0.38 0.40 0.40 0.41 0.42 0.45 0.46 0.47 0.48 0.46 0.45 0.46 0.44 0.44 0.44

GFSSGP_prec_pwat_048.txt.gz
Precipitable_Water
1.41 1.50 1.57 1.55 1.09 0.92 0.61 0.70 0.77 0.68 0.62 0.69 0.79 0.80 0.75 0.67 0.63 0.57 1.07 1.02 1.04 1.06 1.08 1.07 1.05 1.02 1.03 1.17 1.33 1.05 1.00 0.99 0.95 0.85 0.77 0.80 0.98 0.98 1.02 1.11 1.24 1.22 1.33 1.27 1.29 1.39 1.23 1.28 1.27
1.29 1.38 1.50 1.39 0.95 0.78 0.69 0.79 0.67 0.63 0.68 0.73 0.77 0.92 0.82 0.69 0.94 0.94 0.98 1.07 1.07 1.19 1.14 1.13 1.09 1.05 1.13 1.18 1.13 1.01 0.98 1.05 1.02 0.88 0.78 0.69 0.77 0.88 1.01 0.99 1.09 1.18 1.16 1.22 1.25 1.33 1.36 1.34 1.36
1.20 1.22 1.08 1.00 0.84 0.79 0.71 0.68 0.70 0.62 0.60 0.63 0.71 0.75 0.67 0.82 1.03 0.97 1.08 1.14 1.13 1.21 1.38 1.26 1.15 1.14 1.11 1.08 1.04 1.01 1.05 1.10 1.08 0.96 0.80 0.66 0.74 0.75 0.93 0.93 0.95 1.04 1.03 1.11 1.24 1.23 1.37 1.30 1.36
0.99 1.13 1.06 0.73 0.63 0.72 0.64 0.54 0.57 0.60 0.47 0.50 0.73 0.69 0.73 1.04 1.11 1.10 1.14 1.18 1.15 1.19 1.28 1.09 1.10 1.18 1.25 1.17 1.13 1.09 1.10 1.09 1.05 0.96 0.77 0.71 0.73 0.67 0.81 0.84 0.86 0.84 0.90 1.04 1.09 1.19 1.23 1.32 1.23
1.00 0.89 0.64 0.61 0.55 0.50 0.50 0.46 0.42 0.38 0.38 0.32 0.50 0.58 0.60 0.99 1.27 1.20 1.17 1.18 1.19 1.24 1.19 0.96 1.07 1.15 1.17 1.20 1.21 1.17 1.14 1.15 1.09 0.93 0.82 0.77 0.72 0.66 0.69 0.72 0.71 0.72 0.74 0.86 0.92 1.07 1.19 1.19 1.23
0.87 0.77 0.53 0.50 0.47 0.39 0.38 0.37 0.36 0.31 0.31 0.27 0.32 0.46 0.55 0.79 1.20 1.22 1.25 1.18 1.21 1.14 1.25 1.10 1.00 1.01 1.06 1.10 1.17 1.20 1.16 1.18 1.16 1.08 0.94 0.84 0.81 0.70 0.61 0.58 0.58 0.61 0.64 0.65 0.72 0.86 1.07 1.14 1.14
0.80 0.72 0.52 0.45 0.44 0.38 0.33 0.34 0.30 0.32 0.30 0.25 0.30 0.45 0.51 0.53 0.93 1.29 1.24 1.26 1.29 1.26 1.22 1.37 1.37 1.34 1.25 1.14 1.10 1.08 1.04 1.07 1.12 1.13 1.11 1.02 0.90 0.82 0.71 0.58 0.55 0.54 0.54 0.56 0.56 0.75 0.92 1.02 1.07
0.80 0.72 0.55 0.49 0.40 0.38 0.36 0.35 0.34 0.30 0.31 0.35 0.32 0.32 0.40 0.55 0.83 1.15 1.19 1.22 1.30 1.28 1.22 1.45 1.55 1.55 1.64 1.31 1.35 1.37 1.36 1.23 1.19 1.06 0.97 1.03 1.05 1.00 1.03 0.85 0.71 0.64 0.54 0.54 0.53 0.66 0.77 0.85 0.94
0.78 0.62 0.55 0.46 0.42 0.41 0.39 0.36 0.42 0.40 0.35 0.33 0.35 0.37 0.47 0.59 0.79 1.13 1.17 1.23 1.22 1.17 1.20 1.12 1.11 1.34 1.63 2.07 1.71 1.75 1.58 1.59 1.55 1.48 1.42 1.28 1.06 0.99 1.05 1.07 1.01 0.83 0.66 0.57 0.54 0.54 0.66 0.73 0.80
0.68 0.60 0.52 0.53 0.52 0.46 0.44 0.37 0.37 0.34 0.38 0.34 0.32 0.41 0.51 0.57 0.63 0.72 0.81 0.79 0.79 0.81 0.96 1.05 1.08 1.13 1.19 1.44 1.48 1.67 1.61 1.81 1.72 1.86 2.01 1.93 1.65 1.34 1.18 1.01 0.97 0.97 0.91 0.76 0.67 0.59 0.52 0.60 0.65
0.65 0.56 0.59 0.59 0.58 0.50 0.42 0.40 0.35 0.35 0.31 0.31 0.28 0.34 0.41 0.46 0.49 0.51 0.57 0.62 0.63 0.69 0.76 0.86 0.94 1.06 1.23 1.28 1.43 1.43 1.45 1.52 1.61 1.65 1.67 1.73 1.71 1.73 1.56 1.32 1.15 1.02 0.92 0.91 0.91 0.89 0.75 0.54 0.54
0.58 0.61 0.60 0.62 0.54 0.44 0.38 0.40 0.30 0.32 0.32 0.35 0.34 0.35 0.36 0.36 0.36 0.39 0.43 0.48 0.52 0.54 0.58 0.64 0.74 0.84 1.04 1.23 1.25 1.31 1.37 1.37 1.39 1.48 1.51 1.61 1.66 1.59 1.65 1.63 1.45 1.29 1.16 1.02 0.92 0.82 0.75 0.74 0.69
0.53 0.55 0.56 0.53 0.44 0.39 0.34 0.29 0.26 0.25 0.31 0.34 0.35 0.34 0.33 0.34 0.35 0.38 0.40 0.40 0.41 0.40 0.40 0.41 0.47 0.55 0.63 0.70 0.81 0.88 1.02 1.15 1.21 1.32 1.39 1.40 1.41 1.40 1.57 1.60 1.58 1.54 1.40 1.27 1.13 0.97 0.86 0.77 0.69
0.57 0.51 0.45 0.40 0.33 0.30 0.25 0.25 0.26 0.27 0.31 0.30 0.31 0.32 0.32 0.33 0.34 0.33 0.34 0.33 0.33 0.34 0.34 0.36 0.37 0.39 0.41 0.43 0.49 0.52 0.60 0.70 0.83 0.91 1.03 1.10 1.18 1.25 1.34 1.35 1.40 1.47 1.57 1.52 1.37 1.20 1.08 0.91 0.86
0.46 0.34 0.30 0.28 0.28 0.27 0.28 0.23 0.22 0.31 0.31 0.28 0.29 0.31 0.33 0.32 0.31 0.30 0.31 0.32 0.33 0.35 0.37 0.37 0.38 0.40 0.41 0.42 0.43 0.44 0.45 0.46 0.48 0.51 0.57 0.59 0.64 0.75 0.89 1.04 1.18 1.31 1.43 1.44 1.45 1.35 1.21 1.04 0.95
0.26 0.22 0.18 0.28 0.31 0.33 0.28 0.15 0.29 0.33 0.30 0.28 0.31 0.31 0.29 0.28 0.29 0.30 0.32 0.34 0.36 0.37 0.38 0.40 0.40 0.40 0.41 0.41 0.42 0.42 0.43 0.44 0.44 0.45 0.47 0.46 0.46 0.50 0.51 0.54 0.67 0.90 1.03 1.09 1.23 1.37 1.34 1.22 1.09
0.21 0.17 0.19 0.27 0.35 0.32 0.27 0.20 0.31 0.34 0.32 0.30 0.29 0.29 0.29 0.28 0.29 0.31 0.33 0.34 0.34 0.36 0.37 0.38 0.39 0.38 0.39 0.39 0.39 0.38 0.38 0.37 0.37 0.37 0.37 0.37 0.37 0.39 0.41 0.45 0.47 0.52 0.65 0.79 0.84 0.91 1.10 1.21 1.23
0.19 0.22 0.22 0.21 0.28 0.28 0.25 0.23 0.31 0.33 0.31 0.30 0.30 0.30 0.30 0.28 0.29 0.31 0.33 0.34 0.35 0.35 0.35 0.36 0.36 0.36 0.35 0.35 0.35 0.34 0.32 0.30 0.31 0.30 0.30 0.30 0.32 0.31 0.32 0.32 0.35 0.37 0.40 0.45 0.60 0.70 0.74 0.92 1.07
0.19 0.15 0.15 0.18 0.29 0.26 0.25 0.22 0.24 0.32 0.32 0.30 0.31 0.30 0.29 0.28 0.30 0.33 0.33 0.34 0.34 0.35 0.35 0.35 0.34 0.33 0.32 0.31 0.28 0.27 0.26 0.29 0.29 0.29 0.30 0.31 0.33 0.32 0.32 0.31 0.32 0.35 0.37 0.38 0.41 0.43 0.51 0.57 0.68
0.18 0.18 0.18 0.25 0.30 0.27 0.23 0.20 0.26 0.31 0.31 0.31 0.30 0.28 0.28 0.28 0.29 0.31 0.33 0.35 0.34 0.35 0.35 0.35 0.33 0.31 0.30 0.32 0.33 0.33 0.32 0.32 0.31 0.32 0.33 0.35 0.34 0.34 0.35 0.33 0.33 0.36 0.38 0.39 0.39 0.40 0.41 0.46 0.58
0.21 0.21 0.21 0.21 0.27 0.26 0.25 0.22 0.24 0.30 0.32 0.32 0.31 0.31 0.30 0.29 0.28 0.29 0.31 0.32 0.35 0.35 0.34 0.34 0.34 0.33 0.34 0.36 0.35 0.33 0.32 0.32 0.31 0.32 0.33 0.33 0.35 0.36 0.38 0.39 0.39 0.37 0.36 0.35 0.37 0.36 0.35 0.35 0.43
0.19 0.28 0.26 0.23 0.20 0.17 0.28 0.14 0.17 0.24 0.27 0.28 0.28 0.29 0.30 0.29 0.31 0.31 0.32 0.32 0.33 0.32 0.33 0.36 0.36 0.35 0.37 0.36 0.33 0.31 0.30 0.29 0.31 0.33 0.34 0.35 0.37 0.36 0.37 0.38 0.38 0.36 0.36 0.36 0.35 0.34 0.33 0.35 0.34
0.24 0.29 0.25 0.22 0.21 0.21 0.17 0.17 0.20 0.27 0.26 0.26 0.26 0.28 0.29 0.30 0.31 0.31 0.31 0.30 0.31 0.33 0.33 0.36 0.38 0.39 0.37 0.35 0.34 0.34 0.32 0.33 0.34 0.34 0.33 0.33 0.34 0.35 0.35 0.34 0.32 0.33 0.35 0.36 0.37 0.37 0.35 0.34 0.32
0.28 0.21 0.23 0.24 0.21 0.13 0.18 0.19 0.19 0.24 0.25 0.27 0.26 0.27 0.28 0.30 0.30 0.29 0.30 0.31 0.31 0.34 0.37 0.39 0.39 0.37 0.38 0.37 0.37 0.36 0.33 0.33 0.32 0.32 0.31 0.30 0.31 0.33 0.34 0.36 0.35 0.36 0.37 0.38 0.40 0.41 0.40 0.38 0.36
0.25 0.21 0.16 0.16 0.18 0.18 0.26 0.23 0.21 0.25 0.27 0.25 0.25 0.26 0.28 0.29 0.28 0.28 0.30 0.30 0.33 0.35 0.37 0.39 0.39 0.38 0.39 0.38 0.39 0.36 0.33 0.32 0.30 0.29 0.29 0.29 0.29 0.30 0.32 0.34 0.36 0.36 0.37 0.39 0.42 0.44 0.44 0.42 0.38
0.27 0.23 0.17 0.12 0.14 0.16 0.23 0.15 0.18 0.27 0.27 0.23 0.26 0.28 0.28 0.27 0.28 0.30 0.31 0.33 0.35 0.37 0.39 0.41 0.40 0.39 0.40 0.40 0.37 0.33 0.31 0.30 0.29 0.29 0.30 0.30 0.31 0.32 0.34 0.35 0.36 0.36 0.38 0.37 0.39 0.40 0.41 0.44 0.43
0.24 0.16 0.22 0.16 0.14 0.14 0.16 0.21 0.25 0.26 0.25 0.24 0.25 0.26 0.26 0.28 0.30 0.31 0.34 0.36 0.37 0.39 0.41 0.42 0.41 0.41 0.41 0.37 0.32 0.29 0.29 0.30 0.30 0.31 0.32 0.33 0.34 0.35 0.36 0.38 0.39 0.40 0.40 0.41 0.42 0.42 0.43 0.43 0.42
0.21 0.25 0.16 0.18 0.14 0.13 0.16 0.17 0.19 0.23 0.24 0.25 0.26 0.26 0.28 0.31 0.33 0.34 0.36 0.37 0.39 0.41 0.43 0.43 0.43 0.41 0.36 0.32 0.29 0.29 0.30 0.31 0.31 0.32 0.32 0.33 0.34 0.35 0.36 0.36 0.38 0.40 0.42 0.44 0.44 0.43 0.43 0.43 0.42
0.19 0.15 0.17 0.18 0.17 0.13 0.13 0.16 0.25 0.24 0.25 0.25 0.26 0.28 0.31 0.33 0.36 0.37 0.38 0.40 0.41 0.43 0.43 0.43 0.42 0.36 0.31 0.28 0.29 0.30 0.30 0.31 0.33 0.34 0.35 0.35 0.36 0.37 0.36 0.37 0.38 0.39 0.41 0.43 0.45 0.45 0.45 0.46 0.45
0.22 0.20 0.21 0.17 0.17 0.22 0.20 0.17 0.26 0.26 0.27 0.28 0.29 0.30 0.33 0.36 0.37 0.39 0.40 0.41 0.42 0.42 0.42 0.41 0.36 0.31 0.28 0.29 0.30 0.30 0.32 0.33 0.34 0.35 0.36 0.39 0.40 0.42 0.42 0.41 0.40 0.40 0.41 0.43 0.44 0.45 0.50 0.48 0.45

GFSSGP_prec_pwat_051.txt.gz
Precipitable_Water
1.36 1.53 1.63 1.61 0.93 0.82 0.64 0.66 0.72 0.60 0.62 0.81 0.87 0.77 0.70 0.70 0.61 0.49 1.05 1.13 1.11 1.05 1.01 1.12 1.14 1.07 1.12 1.22 1.28 1.05 1.02 1.03 0.92 0.81 0.76 0.86 0.97 1.02 1.05 1.12 1.23 1.25 1.28 1.27 1.38 1.27 1.29 1.23 1.28
1.34 1.42 1.61 1.30 0.86 0.68 0.65 0.74 0.56 0.58 0.69 0.91 0.91 0.86 0.57 0.61 0.92 0.88 0.96 1.14 1.14 1.18 1.06 1.06 1.10 1.11 1.22 1.14 1.11 0.98 1.02 1.10 1.00 0.88 0.73 0.73 0.81 0.95 0.99 0.97 1.11 1.14 1.18 1.27 1.32 1.36 1.34 1.41 1.28
1.20 1.34 1.20 0.93 0.85 0.76 0.69 0.67 0.57 0.54 0.58 0.68 0.74 0.80 0.75 0.74 0.97 0.91 1.10 1.17 1.23 1.22 1.30 1.21 1.11 1.15 1.16 1.09 1.02 1.00 1.02 1.08 1.05 0.94 0.71 0.71 0.72 0.81 0.93 0.93 0.94 0.98 1.00 1.13 1.25 1.28 1.38 1.34 1.35
1.01 1.21 1.15 0.73 0.62 0.71 0.68 0.56 0.57 0.47 0.46 0.58 0.73 0.68 0.93 1.06 0.98 1.06 1.17 1.20 1.21 1.28 1.28 1.08 1.02 1.12 1.15 1.13 1.08 1.03 1.01 1.04 0.98 0.89 0.75 0.71 0.68 0.68 0.79 0.80 0.84 0.83 0.83 1.00 1.06 1.15 1.23 1.33 1.28
1.01 0.97 0.70 0.57 0.56 0.60 0.53 0.43 0.41 0.37 0.35 0.48 0.56 0.54 0.74 1.01 1.13 1.17 1.20 1.26 1.21 1.26 1.00 0.96 0.95 0.99 1.03 1.07 1.10 1.09 1.05 1.06 1.06 0.95 0.83 0.78 0.72 0.61 0.62 0.64 0.65 0.65 0.69 0.79 0.87 1.00 1.14 1.16 1.20
0.84 0.88 0.60 0.47 0.46 0.44 0.36 0.36 0.35 0.32 0.32 0.31 0.36 0.42 0.60 1.02 1.08 1.21 1.25 1.22 1.25 1.17 1.21 1.21 1.24 1.20 1.09 0.97 0.95 1.01 1.06 1.12 1.14 1.11 1.05 0.91 0.85 0.76 0.63 0.56 0.55 0.55 0.58 0.60 0.62 0.77 0.98 1.10 1.10
0.80 0.70 0.52 0.48 0.42 0.42 0.34 0.35 0.32 0.31 0.30 0.25 0.42 0.39 0.49 0.86 1.05 1.18 1.29 1.31 1.19 1.25 1.35 1.45 1.53 1.48 1.54 1.35 1.23 1.24 1.21 1.17 1.06 0.99 1.03 1.06 1.01 0.93 0.95 0.71 0.59 0.55 0.53 0.52 0.52 0.66 0.83 0.96 1.02
0.76 0.75 0.59 0.47 0.42 0.41 0.39 0.36 0.36 0.32 0.30 0.39 0.41 0.34 0.38 0.71 1.00 1.16 1.28 1.31 1.22 1.17 1.10 1.40 1.49 1.65 1.72 1.75 1.78 1.72 1.39 1.41 1.39 1.32 1.31 1.27 1.11 1.02 1.10 1.08 0.94 0.82 0.67 0.55 0.54 0.56 0.71 0.78 0.87
0.81 0.62 0.51 0.47 0.44 0.44 0.43 0.38 0.44 0.46 0.37 0.37 0.40 0.42 0.56 0.74 0.88 1.00 0.97 1.03 1.09 1.19 1.09 1.03 1.06 1.17 1.34 1.49 1.82 1.81 1.67 1.69 1.72 1.64 1.69 1.78 1.66 1.40 1.22 1.10 1.04 1.05 0.98 0.80 0.66 0.60 0.58 0.67 0.73
0.67 0.58 0.52 0.55 0.54 0.51 0.53 0.43 0.42 0.39 0.37 0.36 0.35 0.44 0.54 0.60 0.72 0.77 0.80 0.82 0.88 0.90 0.93 1.00 1.10 1.26 1.37 1.46 1.46 1.53 1.48 1.58 1.61 1.64 1.72 1.82 1.71 1.63 1.64 1.50 1.33 1.13 0.98 0.91 0.90 0.80 0.80 0.64 0.63
0.66 0.56 0.60 0.60 0.59 0.56 0.51 0.48 0.43 0.37 0.31 0.34 0.30 0.34 0.41 0.46 0.55 0.66 0.65 0.66 0.68 0.70 0.69 0.82 1.02 1.21 1.38 1.39 1.36 1.37 1.39 1.40 1.43 1.45 1.54 1.53 1.53 1.65 1.64 1.54 1.50 1.45 1.31 1.20 1.04 0.90 0.85 0.76 0.65
0.58 0.62 0.63 0.63 0.60 0.50 0.43 0.45 0.37 0.34 0.33 0.37 0.35 0.35 0.37 0.37 0.39 0.41 0.46 0.48 0.48 0.48 0.50 0.57 0.72 0.85 0.97 1.11 1.09 1.09 1.09 1.11 1.19 1.20 1.21 1.27 1.32 1.41 1.52 1.58 1.53 1.57 1.43 1.31 1.27 1.18 1.03 0.95 0.85
0.55 0.57 0.59 0.58 0.52 0.48 0.43 0.35 0.29 0.26 0.33 0.37 0.35 0.35 0.33 0.33 0.34 0.37 0.40 0.39 0.38 0.36 0.36 0.39 0.42 0.46 0.50 0.53 0.51 0.55 0.66 0.74 0.87 0.97 0.98 1.01 1.07 1.10 1.19 1.25 1.31 1.43 1.51 1.39 1.34 1.26 1.14 1.06 0.98
0.59 0.57 0.53 0.47 0.39 0.33 0.27 0.27 0.26 0.26 0.31 0.31 0.33 0.31 0.32 0.31 0.34 0.35 0.34 0.32 0.33 0.34 0.34 0.36 0.38 0.40 0.42 0.42 0.43 0.42 0.44 0.46 0.49 0.54 0.55 0.57 0.65 0.75 0.85 0.97 1.09 1.20 1.30 1.36 1.38 1.33 1.27 1.18 1.05
0.54 0.42 0.39 0.34 0.28 0.26 0.30 0.23 0.21 0.30 0.32 0.30 0.31 0.30 0.31 0.33 0.33 0.32 0.32 0.32 0.33 0.35 0.36 0.37 0.39 0.40 0.40 0.41 0.42 0.43 0.44 0.44 0.43 0.44 0.45 0.46 0.46 0.47 0.47 0.49 0.52 0.68 0.88 1.08 1.11 1.18 1.29 1.28 1.22
0.40 0.32 0.20 0.23 0.29 0.33 0.32 0.17 0.27 0.33 0.32 0.30 0.32 0.31 0.32 0.31 0.30 0.31 0.33 0.34 0.36 0.38 0.39 0.39 0.40 0.41 0.42 0.42 0.42 0.41 0.40 0.40 0.39 0.39 0.39 0.38 0.39 0.38 0.38 0.39 0.41 0.45 0.50 0.62 0.65 0.71 0.83 1.02 1.14
0.32 0.18 0.21 0.24 0.33 0.32 0.30 0.22 0.29 0.35 0.33 0.31 0.32 0.31 0.30 0.29 0.30 0.32 0.33 0.34 0.36 0.37 0.38 0.38 0.39 0.39 0.39 0.37 0.35 0.32 0.30 0.29 0.29 0.28 0.26 0.28 0.30 0.31 0.29 0.29 0.29 0.29 0.31 0.35 0.45 0.55 0.62 0.54 0.61
0.17 0.19 0.22 0.22 0.28 0.30 0.26 0.23 0.30 0.33 0.31 0.31 0.33 0.32 0.31 0.29 0.30 0.31 0.33 0.34 0.34 0.35 0.37 0.37 0.37 0.37 0.34 0.31 0.29 0.29 0.27 0.27 0.29 0.28 0.27 0.30 0.31 0.33 0.32 0.31 0.31 0.33 0.33 0.32 0.34 0.36 0.43 0.47 0.49
0.21 0.19 0.16 0.18 0.26 0.25 0.23 0.24 0.28 0.31 0.31 0.31 0.33 0.33 0.31 0.29 0.31 0.31 0.33 0.34 0.35 0.36 0.36 0.36 0.34 0.33 0.31 0.28 0.28 0.28 0.27 0.29 0.30 0.31 0.30 0.31 0.34 0.33 0.31 0.32 0.33 0.33 0.32 0.34 0.36 0.38 0.37 0.38 0.47
0.22 0.18 0.15 0.23 0.28 0.27 0.26 0.23 0.24 0.27 0.29 0.32 0.33 0.33 0.30 0.30 0.30 0.31 0.33 0.34 0.35 0.35 0.35 0.35 0.34 0.34 0.31 0.30 0.32 0.32 0.32 0.32 0.33 0.34 0.34 0.36 0.35 0.35 0.36 0.35 0.36 0.38 0.37 0.36 0.37 0.38 0.37 0.38 0.41
0.20 0.19 0.20 0.22 0.26 0.28 0.24 0.18 0.23 0.29 0.31 0.33 0.35 0.36 0.32 0.30 0.29 0.30 0.31 0.32 0.34 0.35 0.35 0.34 0.35 0.35 0.33 0.34 0.35 0.34 0.34 0.34 0.34 0.34 0.34 0.35 0.36 0.37 0.36 0.36 0.35 0.37 0.39 0.39 0.38 0.37 0.36 0.32 0.35
0.17 0.26 0.25 0.24 0.22 0.15 0.24 0.12 0.18 0.22 0.26 0.31 0.34 0.33 0.31 0.30 0.30 0.30 0.31 0.32 0.34 0.35 0.35 0.36 0.36 0.35 0.37 0.38 0.36 0.34 0.34 0.34 0.35 0.35 0.36 0.36 0.36 0.35 0.36 0.35 0.35 0.35 0.33 0.34 0.34 0.36 0.36 0.36 0.31
0.23 0.28 0.25 0.22 0.18 0.18 0.16 0.15 0.16 0.24 0.25 0.30 0.33 0.31 0.31 0.31 0.30 0.31 0.32 0.32 0.33 0.35 0.34 0.35 0.37 0.38 0.40 0.40 0.39 0.38 0.38 0.38 0.37 0.35 0.34 0.34 0.34 0.34 0.34 0.34 0.33 0.31 0.35 0.34 0.35 0.36 0.37 0.38 0.36
0.30 0.24 0.20 0.22 0.21 0.14 0.18 0.18 0.17 0.24 0.27 0.30 0.32 0.29 0.30 0.31 0.32 0.33 0.33 0.33 0.33 0.35 0.35 0.37 0.39 0.41 0.42 0.42 0.42 0.41 0.39 0.37 0.33 0.31 0.30 0.30 0.31 0.31 0.31 0.32 0.32 0.33 0.33 0.34 0.36 0.35 0.37 0.40 0.42
0.24 0.18 0.13 0.14 0.16 0.15 0.25 0.21 0.21 0.28 0.29 0.30 0.28 0.27 0.29 0.32 0.31 0.32 0.31 0.32 0.34 0.34 0.36 0.39 0.41 0.42 0.44 0.44 0.43 0.42 0.38 0.34 0.30 0.29 0.28 0.28 0.29 0.30 0.31 0.33 0.34 0.34 0.35 0.36 0.37 0.36 0.35 0.37 0.39
0.26 0.23 0.16 0.12 0.14 0.15 0.20 0.14 0.18 0.28 0.32 0.30 0.30 0.30 0.31 0.31 0.32 0.32 0.32 0.34 0.35 0.37 0.39 0.41 0.43 0.44 0.44 0.43 0.41 0.38 0.34 0.30 0.29 0.29 0.30 0.30 0.30 0.31 0.34 0.34 0.35 0.36 0.37 0.38 0.39 0.38 0.38 0.39 0.39
0.23 0.19 0.23 0.16 0.14 0.12 0.14 0.20 0.26 0.29 0.27 0.26 0.27 0.31 0.31 0.31 0.32 0.32 0.34 0.37 0.37 0.39 0.41 0.42 0.43 0.43 0.42 0.40 0.36 0.33 0.31 0.29 0.30 0.31 0.31 0.31 0.33 0.34 0.34 0.35 0.35 0.35 0.36 0.37 0.38 0.39 0.40 0.43 0.43
0.23 0.25 0.16 0.17 0.11 0.12 0.16 0.18 0.18 0.22 0.24 0.26 0.27 0.28 0.29 0.31 0.33 0.35 0.38 0.39 0.40 0.41 0.41 0.42 0.42 0.40 0.38 0.35 0.33 0.31 0.29 0.31 0.32 0.32 0.31 0.33 0.34 0.35 0.35 0.36 0.37 0.38 0.38 0.39 0.38 0.38 0.40 0.42 0.43
0.19 0.17 0.17 0.17 0.17 0.13 0.12 0.15 0.25 0.25 0.25 0.26 0.28 0.29 0.32 0.34 0.36 0.38 0.39 0.40 0.40 0.40 0.41 0.41 0.40 0.37 0.35 0.34 0.31 0.29 0.30 0.31 0.32 0.33 0.34 0.35 0.36 0.37 0.38 0.39 0.39 0.39 0.39 0.41 0.41 0.41 0.41 0.40 0.43
0.24 0.20 0.21 0.17 0.16 0.20 0.20 0.18 0.26 0.26 0.27 0.29 0.30 0.32 0.35 0.38 0.38 0.39 0.38 0.38 0.38 0.39 0.40 0.39 0.36 0.35 0.34 0.32 0.30 0.30 0.31 0.33 0.34 0.34 0.35 0.36 0.36 0.37 0.37 0.37 0.38 0.41 0.42 0.42 0.42 0.42 0.43 0.43 0.44

GFSSGP_prec_pwat_057.txt.gz
Precipitable_Water
1.46 1.58 1.73 1.51 0.83 0.71 0.55 0.53 0.63 0.61 0.64 0.83 0.83 0.69 0.58 0.60 0.51 0.41 1.04 1.16 1.13 1.02 1.15 1.31 1.17 1.12 1.22 1.16 1.14 1.05 1.01 0.94 0.77 0.70 0.83 0.96 0.98 0.98 1.20 1.16 1.16 1.17 1.24 1.30 1.30 1.24 1.27 1.25 1.24
1.45 1.52 1.61 1.15 0.73 0.58 0.55 0.60 0.55 0.62 0.75 0.85 0.82 0.76 0.64 0.53 0.78 0.83 0.93 1.19 1.06 1.00 1.09 1.17 1.11 1.14 1.22 1.06 1.01 0.97 1.00 1.01 0.91 0.69 0.73 0.78 0.91 0.92 0.89 1.01 1.01 1.05 1.15 1.28 1.30 1.28 1.36 1.38 1.31
1.24 1.48 1.11 0.92 0.78 0.63 0.57 0.58 0.61 0.72 0.77 0.70 0.71 0.85 0.77 0.62 0.79 0.86 1.08 1.18 1.15 1.02 1.10 1.06 1.05 1.19 1.26 1.13 1.03 1.02 1.04 1.03 0.93 0.79 0.76 0.68 0.80 0.85 0.81 0.81 0.85 0.81 0.98 1.12 1.17 1.26 1.31 1.36 1.34
1.04 1.22 0.99 0.76 0.67 0.70 0.65 0.69 0.73 0.62 0.65 0.74 0.78 0.65 0.81 0.92 0.85 0.98 1.19 1.23 1.12 1.10 1.22 1.17 1.21 1.24 1.18 1.14 1.14 1.15 1.12 1.04 0.95 0.87 0.85 0.77 0.72 0.76 0.76 0.71 0.70 0.67 0.73 0.91 1.00 1.11 1.21 1.25 1.25
1.06 0.92 0.65 0.61 0.60 0.60 0.60 0.56 0.47 0.47 0.53 0.53 0.64 0.58 0.62 0.85 1.01 1.12 1.19 1.28 1.21 1.18 1.21 1.24 1.27 1.23 1.21 1.16 1.14 1.11 1.16 1.18 1.15 1.08 0.99 0.91 0.82 0.73 0.70 0.64 0.61 0.58 0.61 0.66 0.77 0.86 1.02 1.12 1.17
0.83 0.79 0.55 0.48 0.50 0.51 0.49 0.45 0.41 0.39 0.35 0.40 0.52 0.54 0.65 0.91 0.94 1.17 1.33 1.36 1.39 1.27 1.27 1.29 1.34 1.39 1.32 1.36 1.32 1.30 1.27 1.19 1.07 1.05 1.06 1.05 1.00 0.96 0.90 0.76 0.67 0.62 0.55 0.52 0.51 0.62 0.79 0.92 1.03
0.77 0.66 0.54 0.52 0.48 0.46 0.42 0.44 0.35 0.33 0.32 0.34 0.58 0.48 0.74 0.84 1.05 1.28 1.29 1.27 1.34 1.34 1.28 1.32 1.41 1.54 1.61 1.67 1.74 1.77 1.68 1.50 1.41 1.37 1.35 1.32 1.14 1.08 1.13 1.11 1.03 1.00 0.94 0.78 0.55 0.55 0.65 0.82 0.90
0.79 0.65 0.50 0.49 0.43 0.40 0.47 0.46 0.45 0.38 0.35 0.47 0.50 0.44 0.65 0.83 1.09 1.15 1.03 1.09 1.24 1.28 1.19 1.33 1.43 1.39 1.44 1.56 1.61 1.72 1.77 1.77 1.74 1.70 1.74 1.71 1.76 1.63 1.52 1.44 1.28 1.17 1.11 1.06 0.93 0.77 0.70 0.74 0.78
0.87 0.58 0.45 0.48 0.44 0.45 0.50 0.48 0.53 0.57 0.47 0.47 0.52 0.52 0.75 0.90 0.97 0.96 0.90 0.91 0.96 1.13 1.17 1.31 1.33 1.38 1.46 1.47 1.48 1.50 1.67 1.68 1.60 1.55 1.55 1.61 1.69 1.75 1.71 1.62 1.56 1.58 1.43 1.28 1.11 1.05 0.91 0.80 0.76
0.72 0.54 0.51 0.56 0.53 0.47 0.50 0.49 0.52 0.52 0.50 0.49 0.49 0.56 0.73 0.82 0.85 0.82 0.81 0.82 0.89 0.97 1.15 1.28 1.30 1.41 1.45 1.43 1.46 1.48 1.47 1.43 1.37 1.36 1.33 1.34 1.34 1.38 1.41 1.38 1.38 1.53 1.55 1.51 1.46 1.43 1.32 1.15 1.01
0.71 0.59 0.59 0.57 0.57 0.57 0.52 0.51 0.55 0.49 0.44 0.44 0.40 0.47 0.57 0.68 0.72 0.71 0.73 0.76 0.78 0.88 1.01 1.13 1.21 1.28 1.31 1.24 1.23 1.23 1.22 1.16 1.07 0.99 0.98 1.03 1.07 1.12 1.16 1.24 1.30 1.36 1.44 1.40 1.33 1.27 1.30 1.26 1.20
0.62 0.65 0.63 0.61 0.61 0.55 0.51 0.52 0.49 0.48 0.43 0.42 0.44 0.44 0.46 0.52 0.59 0.61 0.61 0.64 0.70 0.74 0.77 0.79 0.81 0.79 0.80 0.84 0.85 0.89 0.83 0.72 0.67 0.68 0.73 0.72 0.75 0.80 0.84 0.92 0.98 1.05 1.23 1.28 1.25 1.22 1.20 1.21 1.15
0.64 0.65 0.66 0.64 0.59 0.56 0.53 0.45 0.41 0.39 0.40 0.39 0.39 0.40 0.40 0.43 0.46 0.50 0.53 0.56 0.59 0.60 0.61 0.59 0.49 0.47 0.47 0.46 0.46 0.46 0.45 0.45 0.44 0.44 0.45 0.46 0.45 0.49 0.55 0.62 0.65 0.69 0.81 0.92 0.99 1.05 1.13 1.16 1.17
0.68 0.64 0.60 0.59 0.56 0.53 0.44 0.39 0.34 0.30 0.34 0.32 0.35 0.35 0.37 0.37 0.38 0.38 0.39 0.42 0.44 0.43 0.40 0.41 0.41 0.42 0.41 0.41 0.42 0.42 0.43 0.44 0.42 0.39 0.37 0.38 0.39 0.38 0.39 0.39 0.40 0.40 0.44 0.50 0.63 0.74 0.82 0.84 0.91
0.65 0.54 0.54 0.52 0.52 0.41 0.35 0.24 0.21 0.30 0.34 0.33 0.33 0.35 0.35 0.35 0.36 0.34 0.35 0.37 0.37 0.38 0.39 0.39 0.41 0.42 0.42 0.42 0.43 0.42 0.39 0.35 0.31 0.29 0.27 0.27 0.29 0.30 0.31 0.30 0.30 0.31 0.33 0.34 0.34 0.37 0.43 0.45 0.55
0.53 0.49 0.40 0.45 0.44 0.33 0.30 0.19 0.26 0.35 0.34 0.31 0.33 0.34 0.34 0.35 0.36 0.37 0.36 0.36 0.37 0.38 0.38 0.40 0.41 0.41 0.41 0.39 0.35 0.31 0.29 0.28 0.27 0.27 0.27 0.27 0.29 0.31 0.28 0.29 0.29 0.31 0.32 0.33 0.32 0.31 0.31 0.31 0.34
0.45 0.37 0.38 0.39 0.40 0.32 0.29 0.21 0.28 0.34 0.33 0.31 0.35 0.35 0.34 0.34 0.36 0.38 0.39 0.37 0.38 0.39 0.40 0.39 0.40 0.40 0.38 0.35 0.31 0.29 0.29 0.29 0.29 0.30 0.31 0.31 0.32 0.32 0.31 0.32 0.32 0.34 0.33 0.32 0.32 0.33 0.35 0.33 0.33
0.39 0.39 0.42 0.32 0.28 0.28 0.25 0.20 0.25 0.31 0.31 0.33 0.35 0.36 0.35 0.34 0.36 0.39 0.39 0.38 0.38 0.38 0.39 0.39 0.39 0.39 0.37 0.33 0.30 0.30 0.31 0.31 0.31 0.32 0.34 0.35 0.36 0.35 0.34 0.34 0.33 0.34 0.33 0.33 0.34 0.34 0.36 0.37 0.38
0.40 0.39 0.32 0.26 0.26 0.25 0.22 0.20 0.22 0.29 0.31 0.32 0.34 0.36 0.37 0.37 0.38 0.39 0.37 0.36 0.35 0.37 0.37 0.38 0.37 0.36 0.35 0.33 0.31 0.30 0.30 0.33 0.35 0.38 0.38 0.38 0.37 0.36 0.35 0.35 0.34 0.34 0.33 0.33 0.35 0.35 0.34 0.35 0.39
0.38 0.32 0.25 0.24 0.27 0.25 0.22 0.20 0.24 0.27 0.28 0.31 0.33 0.36 0.37 0.36 0.36 0.36 0.35 0.34 0.34 0.34 0.36 0.37 0.36 0.35 0.36 0.36 0.36 0.36 0.37 0.38 0.39 0.41 0.40 0.40 0.40 0.38 0.36 0.36 0.35 0.35 0.34 0.33 0.33 0.33 0.33 0.35 0.38
0.26 0.22 0.21 0.20 0.24 0.25 0.23 0.18 0.19 0.23 0.27 0.31 0.34 0.35 0.37 0.35 0.35 0.35 0.33 0.33 0.34 0.34 0.34 0.37 0.38 0.38 0.38 0.39 0.39 0.39 0.40 0.40 0.39 0.41 0.41 0.42 0.41 0.39 0.36 0.35 0.34 0.33 0.33 0.31 0.31 0.31 0.31 0.29 0.32
0.19 0.25 0.23 0.22 0.21 0.15 0.25 0.12 0.14 0.19 0.22 0.26 0.31 0.33 0.36 0.37 0.35 0.34 0.33 0.33 0.33 0.34 0.38 0.39 0.41 0.40 0.40 0.41 0.39 0.39 0.38 0.37 0.41 0.42 0.42 0.40 0.37 0.34 0.32 0.32 0.32 0.31 0.31 0.30 0.31 0.32 0.32 0.32 0.28
0.21 0.29 0.26 0.25 0.22 0.20 0.17 0.14 0.13 0.21 0.21 0.27 0.32 0.34 0.37 0.37 0.34 0.33 0.33 0.34 0.36 0.37 0.39 0.41 0.43 0.42 0.42 0.42 0.42 0.40 0.39 0.41 0.41 0.39 0.36 0.34 0.35 0.32 0.31 0.31 0.31 0.30 0.30 0.30 0.31 0.31 0.30 0.31 0.30
0.30 0.26 0.26 0.25 0.21 0.12 0.15 0.15 0.16 0.22 0.27 0.28 0.33 0.35 0.36 0.35 0.34 0.34 0.36 0.36 0.37 0.40 0.41 0.42 0.42 0.41 0.43 0.43 0.42 0.41 0.40 0.39 0.36 0.34 0.33 0.34 0.33 0.30 0.30 0.31 0.31 0.32 0.32 0.31 0.31 0.32 0.32 0.31 0.31
0.28 0.22 0.14 0.12 0.13 0.11 0.22 0.19 0.20 0.26 0.29 0.28 0.29 0.33 0.34 0.36 0.36 0.36 0.35 0.36 0.38 0.39 0.41 0.42 0.42 0.41 0.43 0.43 0.42 0.41 0.39 0.37 0.34 0.34 0.34 0.32 0.29 0.28 0.29 0.31 0.32 0.32 0.33 0.33 0.33 0.33 0.33 0.32 0.31
0.23 0.21 0.14 0.10 0.11 0.15 0.21 0.15 0.18 0.25 0.27 0.29 0.31 0.33 0.35 0.35 0.35 0.36 0.37 0.38 0.38 0.40 0.41 0.43 0.43 0.41 0.42 0.41 0.39 0.38 0.37 0.36 0.36 0.35 0.34 0.31 0.29 0.30 0.33 0.33 0.33 0.33 0.34 0.34 0.35 0.34 0.34 0.34 0.34
0.23 0.20 0.26 0.18 0.18 0.14 0.14 0.16 0.22 0.25 0.24 0.27 0.30 0.31 0.33 0.35 0.35 0.36 0.37 0.39 0.41 0.42 0.43 0.42 0.41 0.41 0.39 0.38 0.37 0.37 0.37 0.37 0.36 0.36 0.34 0.31 0.32 0.32 0.32 0.33 0.33 0.33 0.33 0.33 0.32 0.31 0.31 0.32 0.32
0.25 0.26 0.18 0.18 0.10 0.10 0.13 0.15 0.17 0.22 0.23 0.26 0.27 0.29 0.32 0.34 0.36 0.38 0.40 0.42 0.43 0.42 0.41 0.40 0.38 0.36 0.37 0.38 0.38 0.38 0.38 0.38 0.37 0.36 0.32 0.32 0.33 0.33 0.33 0.32 0.32 0.32 0.32 0.33 0.33 0.33 0.34 0.35 0.36
0.20 0.19 0.20 0.19 0.18 0.13 0.11 0.13 0.22 0.23 0.26 0.26 0.27 0.29 0.30 0.33 0.37 0.40 0.41 0.40 0.38 0.38 0.38 0.36 0.36 0.37 0.37 0.38 0.38 0.37 0.37 0.38 0.37 0.33 0.33 0.33 0.33 0.32 0.31 0.31 0.32 0.33 0.34 0.35 0.36 0.37 0.38 0.38 0.39
0.23 0.20 0.20 0.16 0.14 0.17 0.17 0.17 0.27 0.26 0.27 0.28 0.29 0.32 0.35 0.37 0.38 0.37 0.34 0.34 0.35 0.35 0.35 0.35 0.34 0.35 0.36 0.37 0.37 0.37 0.37 0.35 0.33 0.32 0.32 0.32 0.31 0.31 0.32 0.33 0.34 0.35 0.37 0.38 0.38 0.39 0.40 0.39 0.38